[[{"header":{"parameterUnit":"m.s-1","parameterCategory":1,"la1":31.0,"la2":29.5877,"lo1":-88.7671,"lo2":-86.6584,"dy":0.0162,"dx":0.0185,"nx":115,"ny":88,"refTime":"2023-02-24T18:00:00:Z","depth":0,"parameterNumber":2,"parameterNumberName":"U-component_of_WINDS"},"data":[0.0,0.0,0.0,0.0,0.0,0.0,0.0,0.0,0.0,0.0,0.0,0.0,0.0,0.0,0.0,0.0,0.0,0.0,0.0,0.0,0.0,0.0,0.0,0.0,0.0,0.0,0.0,0.0,0.0,0.0,0.0,0.0,0.0,0.0,0.0,0.0,0.0,0.0,0.0,0.0,0.0,0.0,0.0,0.0,0.0,0.0,0.0,0.0,0.0,0.0,0.0,0.0,0.0,0.0,0.0,0.0,0.0,0.0,0.0,0.0,0.0,0.0,0.0,0.0,0.0,0.0,0.0,0.0,0.0,0.0,0.0,0.0,0.0,0.0,0.0,0.0,0.0,0.0,0.0,0.0,0.0,0.0,0.0,0.0,0.0,0.0,0.0,0.0,0.0,0.0,0.0,0.0,0.0,0.0,0.0,0.0,0.0,0.0,0.0,0.0,0.0,0.0,0.0,0.0,0.0,0.0,0.0,0.0,0.0,0.0,0.0,0.0,0.0,0.0,0.0,0.0,0.0,0.0,0.0,0.0,0.0,0.0,0.0,0.0,0.0,0.0,0.0,0.0,0.0,0.0,0.0,0.0,0.0,0.0,0.0,0.0,0.0,0.0,0.0,0.0,0.0,0.0,0.0,0.0,0.0,0.0,0.0,0.0,0.0,0.0,0.0,0.0,0.0,0.0,0.0,0.0,0.0,0.0,0.0,0.0,0.0,0.0,0.0,0.0,0.0,0.0,0.0,0.0,0.0,0.0,0.0,0.0,0.0,0.0,0.0,0.0,0.0,0.0,0.0,0.0,0.0,0.0,0.0,0.0,0.0,0.0,0.0,0.0,0.0,0.0,0.0,0.0,0.0,0.0,0.0,0.0,0.0,0.0,0.0,0.0,0.0,0.0,0.0,0.0,0.0,0.0,0.0,0.0,0.0,0.0,0.0,0.0,0.0,0.0,0.0,0.0,0.0,0.0,0.0,0.0,0.0,0.0,0.0,0.0,0.0,0.0,0.0,0.0,0.0,0.0,0.0,0.0,0.0,0.0,0.0,0.0,0.0,0.0,0.0,0.0,0.0,0.0,0.0,0.0,0.0,0.0,0.0,0.0,0.0,0.0,0.0,0.0,0.0,0.0,0.0,0.0,0.0,0.0,0.0,0.0,0.0,0.0,0.0,0.0,0.0,0.0,0.0,0.0,0.0,0.0,0.0,0.0,0.0,0.0,0.0,0.0,0.0,0.0,0.0,0.0,0.0,0.0,0.0,0.0,0.0,0.0,0.0,0.0,0.0,0.0,0.0,0.0,0.0,0.0,0.0,0.0,0.0,0.0,0.0,0.0,0.0,0.0,0.0,0.0,0.0,0.0,0.0,0.0,0.0,0.0,0.0,0.0,0.0,0.0,0.0,0.0,0.0,0.0,0.0,0.0,0.0,0.0,0.0,0.0,0.0,0.0,0.0,0.0,0.0,0.0,0.0,0.0,0.0,0.0,0.0,0.0,0.0,0.0,0.0,0.0,0.0,0.0,0.0,0.0,0.0,0.0,0.0,0.0,0.0,0.0,0.0,0.0,0.0,0.0,0.0,0.0,0.0,0.0,0.0,0.0,0.0,0.0,0.0,0.0,0.0,0.0,0.0,0.0,0.0,0.0,0.0,0.0,0.0,0.0,0.0,0.0,0.0,0.0,0.0,0.0,0.0,0.0,0.0,0.0,0.0,0.0,0.0,0.0,0.0,0.0,0.0,0.0,0.0,0.0,0.0,0.0,0.0,0.0,0.0,0.0,0.0,0.0,0.0,0.0,0.0,0.0,0.0,0.0,0.0,0.0,0.0,0.0,0.0,0.0,0.0,0.0,0.0,0.0,0.0,0.0,0.0,0.0,0.0,0.0,0.0,0.0,0.0,0.0,0.0,0.0,0.0,0.0,0.0,0.0,0.0,0.0,0.0,0.0,0.0,0.0,0.0,0.0,0.0,0.0,0.0,0.0,0.0,0.0,0.0,0.0,0.0,0.0,0.0,0.0,0.0,0.0,0.0,0.0,0.0,0.0,0.0,0.0,0.0,0.0,0.0,0.0,0.0,0.0,0.0,0.0,0.0,0.0,0.0,0.0,0.0,0.0,0.0,0.0,0.0,0.0,0.0,0.0,0.0,0.0,0.0,0.0,0.0,0.0,0.0,0.0,0.0,0.0,0.0,0.0,0.0,0.0,0.0,0.0,0.0,0.0,0.0,0.0,0.0,0.0,0.0,0.0,0.0,0.0,0.0,0.0,0.0,0.0,0.0,0.0,0.0,0.0,0.0,0.0,0.0,0.0,0.0,0.0,0.0,0.0,0.0,0.0,0.0,0.0,0.0,0.0,0.0,0.0,0.0,0.0,0.0,0.0,0.0,0.0,0.0,0.0,0.0,0.0,0.0,0.0,0.0,0.0,0.0,0.0,0.0,0.0,0.0,0.0,0.0,0.0,0.0,0.0,0.0,0.0,0.0,0.0,0.0,0.0,0.0,0.0,0.0,0.0,0.0,0.0,0.0,0.0,0.0,0.0,0.0,0.0,0.0,0.0,0.0,0.0,0.0,0.0,0.0,0.0,0.0,0.0,0.0,0.0,0.0,0.0,0.0,0.0,0.0,0.0,0.0,0.0,0.0,0.0,0.0,0.0,0.0,0.0,0.0,0.0,0.0,0.0,0.0,0.0,0.0,0.0,0.0,0.0,0.0,0.0,0.0,0.0,0.0,0.0,0.0,0.0,0.0,0.0,0.0,0.0,0.0,0.0,0.0,0.0,0.0,0.0,0.0,0.0,0.0,0.0,0.0,0.0,0.0,0.0,0.0,0.0,0.0,0.0,0.0,0.0,0.0,0.0,0.0,0.0,0.0,0.0,0.0,0.0,0.0,0.0,0.0,0.0,0.0,0.0,0.0,0.0,0.0,0.0,0.0,0.0,0.0,0.0,0.0,0.0,0.0,0.0,0.0,0.0,0.0,0.0,0.0,0.0,0.0,0.0,0.0,0.0,0.0,0.0,0.0,0.0,0.0,0.0,0.0,0.0,0.0,0.0,0.0,0.0,0.0,0.0,0.0,0.0,0.0,0.0,0.0,0.0,0.0,0.0,0.0,0.0,0.0,0.0,0.0,0.0,0.0,0.0,0.0,0.0,0.0,0.0,0.0,0.0,0.0,0.0,0.0,0.0,0.0,0.0,0.0,0.0,0.0,0.0,0.0,0.0,0.0,0.0,0.0,0.0,0.0,0.0,0.0,0.0,0.0,0.0,0.0,0.0,0.0,0.0,0.0,0.0,0.0,0.0,0.0,0.0,0.0,0.0,0.0,0.0,0.0,0.0,0.0,0.0,0.0,0.0,0.0,0.0,0.0,0.0,0.0,0.0,0.0,0.0,0.0,0.0,0.0,0.0,0.0,0.0,0.0,0.0,0.0,0.0,0.0,0.0,0.0,0.0,0.0,0.0,0.0,0.0,0.0,0.0,0.0,0.0,0.0,0.0,0.0,0.0,0.0,0.0,0.0,0.0,0.0,0.0,0.0,0.0,0.0,0.0,0.0,0.0,0.0,0.0,0.0,0.0,0.0,0.0,0.0,0.0,0.0,0.0,0.0,0.0,0.0,0.0,0.0,0.0,0.0,0.0,0.0,0.0,0.0,0.0,0.0,0.0,0.0,0.0,0.0,0.0,0.0,0.0,0.0,0.0,0.0,0.0,0.0,0.0,0.0,0.0,0.0,0.0,0.0,0.0,0.0,0.0,0.0,0.0,0.0,0.0,0.0,0.0,0.0,0.0,0.0,0.0,0.0,0.0,0.0,0.0,0.0,0.0,0.0,0.0,0.0,0.0,0.0,0.0,0.0,0.0,0.0,0.0,0.0,0.0,0.0,0.0,0.0,0.0,0.0,0.0,0.0,0.0,0.0,0.0,0.0,0.0,0.0,0.0,0.0,0.0,0.0,0.0,0.0,0.0,0.0,0.0,0.0,0.0,0.0,0.0,0.0,0.0,0.0,0.0,0.0,0.0,0.0,0.0,0.0,0.0,0.0,0.0,0.0,0.0,0.0,0.0,0.0,0.0,0.0,0.0,0.0,0.0,0.0,0.0,0.0,0.0,0.0,0.0,0.0,0.0,0.0,0.0,0.0,0.0,0.0,0.0,0.0,0.0,0.0,0.0,0.0,0.0,0.0,0.0,0.0,0.0,0.0,0.0,0.0,0.0,0.0,0.0,0.0,0.0,0.0,0.0,0.0,0.0,0.0,0.0,0.0,0.0,0.0,0.0,0.0,0.0,-1.6942,0.0,0.0,0.0,0.0,0.0,0.0,0.0,0.0,0.0,0.0,0.0,0.0,0.0,0.0,0.0,0.0,0.0,0.0,0.0,0.0,0.0,0.0,0.0,0.0,0.0,0.0,0.0,0.0,0.0,0.0,0.0,0.0,0.0,0.0,0.0,0.0,0.0,0.0,0.0,0.0,0.0,0.0,0.0,0.0,0.0,0.0,0.0,0.0,0.0,0.0,0.0,0.0,0.0,0.0,0.0,0.0,0.0,0.0,0.0,0.0,0.0,0.0,0.0,0.0,0.0,0.0,0.0,0.0,0.0,0.0,0.0,0.0,0.0,0.0,0.0,0.0,0.0,0.0,0.0,0.0,0.0,0.0,0.0,0.0,0.0,0.0,0.0,0.0,0.0,0.0,0.0,0.0,0.0,0.0,0.0,0.0,0.0,0.0,0.0,0.0,0.0,0.0,0.0,0.0,0.0,0.0,0.0,0.0,0.0,0.0,-1.859,-1.8685,-1.867,-1.8538,-1.837,0.0,0.0,0.0,0.0,0.0,0.0,0.0,0.0,0.0,0.0,0.0,0.0,0.0,0.0,0.0,0.0,0.0,0.0,0.0,0.0,0.0,0.0,0.0,0.0,0.0,0.0,0.0,0.0,0.0,0.0,0.0,0.0,0.0,0.0,0.0,0.0,0.0,0.0,0.0,0.0,0.0,0.0,0.0,0.0,0.0,0.0,0.0,0.0,0.0,0.0,0.0,0.0,0.0,0.0,0.0,0.0,0.0,0.0,0.0,0.0,0.0,0.0,0.0,0.0,0.0,0.0,0.0,0.0,0.0,0.0,0.0,0.0,0.0,0.0,0.0,0.0,0.0,0.0,0.0,0.0,0.0,0.0,0.0,0.0,0.0,0.0,0.0,0.0,0.0,0.0,0.0,0.0,0.0,0.0,0.0,0.0,0.0,0.0,0.0,0.0,0.0,0.0,0.0,0.0,0.0,0.0,0.0,0.0,0.0,0.0,0.0,0.0,-2.045,-2.0347,-1.9793,0.0,0.0,0.0,0.0,0.0,0.0,0.0,0.0,0.0,0.0,0.0,0.0,0.0,0.0,0.0,0.0,0.0,0.0,0.0,0.0,0.0,0.0,0.0,0.0,0.0,0.0,0.0,0.0,0.0,0.0,0.0,0.0,0.0,0.0,0.0,0.0,0.0,0.0,0.0,0.0,0.0,0.0,0.0,0.0,0.0,0.0,0.0,0.0,0.0,0.0,0.0,0.0,0.0,0.0,0.0,0.0,0.0,0.0,0.0,0.0,0.0,0.0,0.0,0.0,0.0,0.0,0.0,0.0,0.0,0.0,0.0,0.0,0.0,0.0,0.0,0.0,0.0,0.0,0.0,0.0,0.0,0.0,0.0,0.0,0.0,0.0,0.0,0.0,0.0,0.0,0.0,0.0,0.0,0.0,0.0,0.0,0.0,0.0,0.0,0.0,0.0,0.0,0.0,0.0,0.0,0.0,0.0,0.0,0.0,0.0,-2.1928,-2.2228,-2.2811,0.0,-2.0977,0.0,0.0,0.0,0.0,0.0,0.0,0.0,0.0,0.0,0.0,0.0,0.0,0.0,0.0,0.0,0.0,0.0,0.0,0.0,0.0,0.0,0.0,0.0,0.0,0.0,0.0,0.0,0.0,0.0,0.0,0.0,0.0,0.0,0.0,0.0,0.0,0.0,0.0,0.0,0.0,0.0,0.0,0.0,0.0,0.0,0.0,0.0,0.0,0.0,0.0,0.0,0.0,0.0,0.0,0.0,0.0,0.0,0.0,0.0,0.0,0.0,0.0,0.0,0.0,0.0,0.0,0.0,0.0,0.0,0.0,0.0,0.0,0.0,0.0,0.0,0.0,0.0,0.0,0.0,0.0,0.0,0.0,0.0,0.0,0.0,0.0,0.0,0.0,0.0,0.0,0.0,0.0,0.0,0.0,0.0,0.0,0.0,0.0,0.0,0.0,0.0,0.0,0.0,0.0,0.0,0.0,0.0,0.0,0.0,0.0,-2.3307,-2.3717,-2.3803,-2.3045,0.0,0.0,0.0,0.0,0.0,0.0,0.0,0.0,0.0,0.0,0.0,0.0,0.0,0.0,0.0,0.0,0.0,0.0,0.0,0.0,0.0,0.0,0.0,0.0,0.0,0.0,0.0,0.0,0.0,0.0,0.0,0.0,0.0,0.0,0.0,0.0,0.0,0.0,0.0,0.0,0.0,0.0,0.0,0.0,0.0,0.0,0.0,0.0,0.0,0.0,0.0,0.0,0.0,0.0,0.0,0.0,0.0,0.0,0.0,0.0,0.0,0.0,0.0,0.0,0.0,0.0,0.0,0.0,0.0,0.0,0.0,0.0,0.0,0.0,0.0,0.0,0.0,0.0,0.0,0.0,0.0,0.0,0.0,0.0,0.0,0.0,0.0,0.0,0.0,0.0,0.0,0.0,0.0,0.0,0.0,0.0,0.0,0.0,0.0,0.0,0.0,0.0,0.0,0.0,0.0,0.0,0.0,0.0,0.0,0.0,-2.3894,-2.5091,-2.5716,-2.5211,-2.3941,-2.1931,0.0,0.0,0.0,0.0,0.0,0.0,0.0,0.0,0.0,0.0,0.0,0.0,0.0,0.0,0.0,0.0,0.0,0.0,0.0,0.0,0.0,0.0,0.0,0.0,0.0,0.0,0.0,0.0,0.0,0.0,0.0,0.0,0.0,0.0,0.0,0.0,0.0,0.0,0.0,0.0,0.0,0.0,0.0,0.0,0.0,0.0,0.0,0.0,0.0,0.0,0.0,0.0,0.0,0.0,0.0,0.0,0.0,0.0,0.0,0.0,0.0,0.0,0.0,0.0,0.0,0.0,0.0,0.0,0.0,0.0,0.0,0.0,0.0,0.0,0.0,0.0,0.0,0.0,0.0,0.0,0.0,0.0,0.0,0.0,0.0,0.0,0.0,0.0,0.0,0.0,0.0,0.0,0.0,0.0,0.0,0.0,0.0,0.0,0.0,0.0,0.0,0.0,0.0,0.0,0.0,0.0,0.0,0.0,-2.3428,-2.5717,-2.7506,-2.8477,-2.7538,-2.5795,0.0,0.0,0.0,0.0,0.0,0.0,0.0,0.0,0.0,0.0,0.0,0.0,0.0,0.0,0.0,0.0,0.0,0.0,0.0,0.0,0.0,0.0,0.0,0.0,0.0,0.0,0.0,0.0,0.0,0.0,0.0,0.0,0.0,0.0,0.0,0.0,0.0,0.0,0.0,0.0,0.0,0.0,0.0,0.0,0.0,0.0,0.0,0.0,0.0,0.0,0.0,0.0,0.0,0.0,0.0,0.0,0.0,0.0,0.0,0.0,0.0,0.0,0.0,0.0,0.0,0.0,0.0,0.0,0.0,0.0,0.0,0.0,0.0,0.0,0.0,0.0,0.0,0.0,0.0,0.0,0.0,0.0,0.0,0.0,0.0,0.0,0.0,0.0,0.0,0.0,0.0,0.0,0.0,0.0,0.0,0.0,0.0,0.0,0.0,0.0,0.0,0.0,0.0,0.0,0.0,0.0,0.0,0.0,0.0,-2.4563,-2.7324,-2.9005,-2.9313,-2.8548,-2.6537,0.0,0.0,0.0,0.0,0.0,0.0,0.0,0.0,0.0,0.0,0.0,0.0,0.0,0.0,0.0,0.0,0.0,0.0,0.0,0.0,0.0,0.0,0.0,0.0,0.0,0.0,0.0,0.0,0.0,0.0,0.0,0.0,0.0,0.0,0.0,0.0,0.0,0.0,0.0,0.0,0.0,0.0,0.0,0.0,0.0,0.0,0.0,0.0,0.0,0.0,0.0,0.0,0.0,0.0,0.0,0.0,0.0,0.0,0.0,0.0,0.0,0.0,0.0,0.0,0.0,0.0,0.0,0.0,0.0,0.0,0.0,0.0,0.0,0.0,0.0,0.0,0.0,0.0,0.0,0.0,0.0,0.0,0.0,0.0,0.0,0.0,0.0,0.0,0.0,0.0,0.0,0.0,0.0,0.0,0.0,0.0,0.0,0.0,0.0,0.0,0.0,0.0,0.0,0.0,0.0,0.0,0.0,0.0,0.0,-2.6736,0.0,-3.0374,-3.0485,-2.9603,-2.7486,0.0,0.0,0.0,0.0,0.0,0.0,0.0,0.0,0.0,0.0,0.0,0.0,0.0,0.0,0.0,0.0,0.0,0.0,0.0,0.0,0.0,0.0,0.0,0.0,0.0,0.0,0.0,0.0,0.0,0.0,0.0,0.0,0.0,0.0,0.0,0.0,0.0,0.0,0.0,0.0,0.0,0.0,0.0,0.0,0.0,0.0,0.0,0.0,0.0,0.0,0.0,0.0,0.0,0.0,0.0,0.0,0.0,0.0,0.0,0.0,0.0,0.0,0.0,0.0,0.0,0.0,0.0,0.0,0.0,0.0,0.0,0.0,0.0,0.0,0.0,0.0,0.0,0.0,0.0,0.0,0.0,0.0,0.0,0.0,0.0,0.0,0.0,0.0,0.0,0.0,0.0,0.0,0.0,0.0,0.0,0.0,0.0,0.0,0.0,0.0,0.0,0.0,0.0,0.0,0.0,0.0,0.0,0.0,-2.5772,-3.0148,-3.1042,-3.1659,-3.2156,-3.076,-2.8699,0.0,0.0,0.0,0.0,0.0,0.0,0.0,0.0,0.0,0.0,0.0,0.0,0.0,0.0,0.0,0.0,0.0,0.0,0.0,0.0,0.0,0.0,0.0,0.0,0.0,0.0,0.0,0.0,0.0,0.0,0.0,0.0,0.0,0.0,0.0,0.0,0.0,0.0,0.0,0.0,0.0,0.0,0.0,0.0,0.0,0.0,0.0,0.0,0.0,0.0,0.0,0.0,0.0,0.0,0.0,0.0,0.0,0.0,0.0,0.0,0.0,0.0,0.0,0.0,0.0,0.0,0.0,0.0,0.0,0.0,0.0,0.0,0.0,0.0,0.0,0.0,0.0,0.0,0.0,0.0,0.0,0.0,0.0,0.0,0.0,0.0,0.0,0.0,0.0,0.0,0.0,0.0,0.0,0.0,0.0,0.0,0.0,0.0,0.0,0.0,0.0,0.0,0.0,0.0,0.0,0.0,0.0,0.0,0.0,-3.1223,-3.2358,-3.2912,-3.2844,-3.1386,-2.9201,0.0,0.0,0.0,0.0,0.0,0.0,0.0,0.0,0.0,0.0,0.0,0.0,0.0,0.0,0.0,0.0,0.0,0.0,0.0,0.0,0.0,0.0,0.0,0.0,0.0,0.0,0.0,0.0,0.0,0.0,0.0,0.0,0.0,0.0,0.0,0.0,0.0,0.0,0.0,0.0,0.0,0.0,0.0,0.0,0.0,0.0,0.0,0.0,0.0,0.0,0.0,0.0,0.0,0.0,0.0,0.0,0.0,0.0,0.0,0.0,0.0,0.0,0.0,0.0,0.0,0.0,0.0,0.0,0.0,0.0,0.0,0.0,0.0,0.0,0.0,0.0,0.0,0.0,0.0,0.0,0.0,0.0,0.0,0.0,0.0,0.0,0.0,0.0,0.0,0.0,0.0,0.0,0.0,0.0,0.0,0.0,0.0,0.0,0.0,0.0,0.0,0.0,0.0,0.0,0.0,0.0,0.0,0.0,0.0,-3.2069,-3.3206,-3.3781,-3.3808,-3.1955,-2.9799,-2.735,0.0,0.0,0.0,0.0,0.0,0.0,0.0,0.0,0.0,0.0,0.0,0.0,0.0,0.0,0.0,0.0,0.0,0.0,0.0,0.0,0.0,0.0,0.0,0.0,0.0,0.0,0.0,0.0,0.0,0.0,0.0,0.0,0.0,0.0,0.0,0.0,0.0,0.0,0.0,0.0,0.0,0.0,0.0,0.0,0.0,0.0,0.0,0.0,0.0,0.0,0.0,0.0,0.0,0.0,0.0,0.0,0.0,0.0,0.0,0.0,0.0,0.0,0.0,0.0,0.0,0.0,0.0,0.0,0.0,0.0,0.0,0.0,0.0,0.0,0.0,0.0,0.0,0.0,0.0,0.0,0.0,0.0,0.0,0.0,0.0,0.0,0.0,0.0,0.0,0.0,0.0,0.0,0.0,0.0,0.0,0.0,0.0,0.0,0.0,0.0,0.0,0.0,0.0,0.0,0.0,0.0,0.0,0.0,-3.2786,-3.3711,-3.4405,-3.4772,-3.2489,-3.0476,0.0,0.0,0.0,0.0,0.0,0.0,0.0,0.0,0.0,0.0,0.0,0.0,0.0,0.0,0.0,0.0,0.0,0.0,0.0,0.0,0.0,0.0,0.0,0.0,0.0,0.0,0.0,0.0,0.0,0.0,0.0,0.0,0.0,0.0,0.0,0.0,0.0,0.0,0.0,0.0,0.0,0.0,0.0,0.0,0.0,0.0,0.0,0.0,0.0,0.0,0.0,0.0,0.0,0.0,0.0,0.0,0.0,0.0,0.0,0.0,0.0,0.0,0.0,0.0,0.0,0.0,0.0,0.0,0.0,0.0,0.0,0.0,0.0,0.0,0.0,0.0,0.0,0.0,0.0,0.0,0.0,0.0,0.0,0.0,0.0,0.0,0.0,0.0,0.0,0.0,0.0,0.0,0.0,0.0,0.0,0.0,0.0,0.0,0.0,0.0,0.0,0.0,0.0,0.0,0.0,0.0,0.0,0.0,0.0,-3.2888,-3.4554,-3.5319,-3.5043,-3.277,-3.0772,0.0,0.0,0.0,0.0,0.0,0.0,0.0,0.0,0.0,0.0,0.0,0.0,0.0,0.0,0.0,0.0,0.0,0.0,0.0,0.0,0.0,0.0,0.0,0.0,0.0,0.0,0.0,0.0,0.0,0.0,0.0,0.0,0.0,0.0,0.0,0.0,0.0,0.0,0.0,0.0,0.0,0.0,0.0,0.0,0.0,0.0,0.0,0.0,0.0,0.0,0.0,0.0,0.0,0.0,0.0,0.0,0.0,0.0,0.0,0.0,0.0,0.0,0.0,0.0,0.0,0.0,0.0,0.0,0.0,0.0,0.0,0.0,0.0,0.0,0.0,0.0,0.0,0.0,0.0,0.0,0.0,0.0,0.0,0.0,0.0,0.0,0.0,0.0,0.0,0.0,0.0,0.0,0.0,0.0,0.0,0.0,0.0,0.0,0.0,0.0,0.0,0.0,0.0,0.0,0.0,0.0,0.0,0.0,-3.1742,-3.249,-3.4386,-3.5224,-3.4839,-3.2792,-3.0956,0.0,0.0,0.0,0.0,0.0,0.0,0.0,0.0,0.0,0.0,0.0,0.0,0.0,0.0,0.0,0.0,0.0,0.0,0.0,0.0,0.0,0.0,0.0,0.0,0.0,0.0,0.0,0.0,0.0,0.0,0.0,0.0,0.0,0.0,0.0,0.0,0.0,0.0,0.0,0.0,0.0,0.0,0.0,0.0,0.0,0.0,0.0,0.0,0.0,0.0,0.0,0.0,0.0,0.0,0.0,0.0,0.0,0.0,0.0,0.0,0.0,0.0,0.0,0.0,0.0,0.0,0.0,0.0,0.0,0.0,0.0,0.0,0.0,0.0,0.0,0.0,0.0,0.0,0.0,0.0,0.0,0.0,0.0,0.0,0.0,0.0,0.0,0.0,0.0,0.0,0.0,0.0,0.0,0.0,0.0,0.0,0.0,0.0,0.0,0.0,0.0,0.0,0.0,0.0,0.0,0.0,0.0,0.0,-3.1251,-3.1921,-3.3632,-3.4426,-3.4139,-3.263,-3.1117,0.0,0.0,0.0,0.0,0.0,0.0,0.0,0.0,0.0,0.0,0.0,0.0,0.0,0.0,0.0,0.0,0.0,0.0,0.0,0.0,0.0,0.0,0.0,0.0,0.0,0.0,0.0,0.0,0.0,0.0,0.0,0.0,0.0,0.0,0.0,0.0,0.0,0.0,0.0,0.0,0.0,0.0,0.0,0.0,0.0,0.0,0.0,0.0,0.0,0.0,0.0,0.0,0.0,0.0,0.0,0.0,0.0,0.0,0.0,0.0,0.0,0.0,0.0,0.0,0.0,0.0,0.0,0.0,0.0,0.0,0.0,0.0,0.0,0.0,0.0,0.0,0.0,0.0,0.0,0.0,0.0,0.0,0.0,0.0,0.0,0.0,0.0,0.0,0.0,0.0,0.0,0.0,0.0,0.0,0.0,0.0,0.0,0.0,0.0,0.0,0.0,0.0,0.0,0.0,0.0,0.0,0.0,0.0,-3.1391,-3.1897,-3.3014,-3.3517,-3.335,-3.2398,-3.1206,0.0,0.0,0.0,0.0,0.0,0.0,0.0,0.0,0.0,0.0,0.0,0.0,0.0,0.0,0.0,0.0,0.0,0.0,0.0,0.0,0.0,0.0,0.0,0.0,0.0,0.0,0.0,0.0,0.0,0.0,0.0,0.0,0.0,0.0,0.0,0.0,0.0,0.0,0.0,0.0,0.0,0.0,0.0,0.0,0.0,0.0,0.0,0.0,-2.1792,0.0,0.0,0.0,0.0,0.0,0.0,0.0,0.0,0.0,0.0,0.0,0.0,0.0,0.0,0.0,0.0,0.0,0.0,0.0,0.0,0.0,0.0,0.0,0.0,0.0,0.0,0.0,0.0,0.0,0.0,0.0,0.0,0.0,0.0,0.0,0.0,0.0,0.0,0.0,0.0,0.0,0.0,0.0,0.0,0.0,0.0,0.0,0.0,0.0,0.0,0.0,0.0,0.0,0.0,0.0,0.0,0.0,0.0,0.0,-3.0946,-3.1382,-3.2274,-3.2653,-3.2443,-3.1752,-3.0744,0.0,0.0,0.0,0.0,0.0,0.0,0.0,0.0,0.0,0.0,0.0,0.0,0.0,0.0,0.0,0.0,0.0,0.0,0.0,0.0,0.0,0.0,0.0,0.0,0.0,0.0,0.0,0.0,0.0,0.0,0.0,0.0,0.0,0.0,0.0,0.0,0.0,0.0,0.0,0.0,0.0,0.0,0.0,0.0,0.0,0.0,0.0,0.0,0.0,0.0,0.0,0.0,0.0,0.0,0.0,0.0,0.0,0.0,0.0,0.0,0.0,0.0,0.0,0.0,0.0,0.0,0.0,0.0,0.0,0.0,0.0,0.0,0.0,0.0,0.0,0.0,0.0,0.0,0.0,0.0,0.0,0.0,0.0,0.0,0.0,0.0,0.0,0.0,0.0,0.0,0.0,0.0,0.0,0.0,0.0,0.0,0.0,0.0,0.0,0.0,0.0,0.0,0.0,0.0,0.0,0.0,0.0,-2.9685,-3.0409,-3.0804,-3.1515,-3.1757,-3.1507,-3.0916,-2.9936,-2.8513,0.0,0.0,0.0,0.0,0.0,0.0,0.0,0.0,0.0,0.0,0.0,0.0,0.0,0.0,0.0,0.0,0.0,0.0,0.0,0.0,0.0,0.0,0.0,0.0,0.0,0.0,0.0,0.0,0.0,0.0,0.0,0.0,0.0,0.0,0.0,0.0,0.0,0.0,-2.1464,-2.4254,0.0,0.0,0.0,0.0,0.0,0.0,0.0,0.0,-2.5921,0.0,0.0,0.0,0.0,0.0,0.0,0.0,0.0,0.0,0.0,0.0,0.0,0.0,0.0,0.0,0.0,0.0,0.0,0.0,0.0,0.0,0.0,0.0,0.0,0.0,0.0,0.0,0.0,0.0,0.0,0.0,0.0,0.0,0.0,0.0,0.0,0.0,0.0,0.0,0.0,0.0,0.0,0.0,0.0,0.0,0.0,0.0,0.0,0.0,0.0,0.0,0.0,0.0,0.0,0.0,0.0,-2.8652,-2.9778,-3.051,-3.079,-3.0876,-3.0814,-3.0598,-2.9984,-2.901,-2.7617,0.0,0.0,0.0,0.0,0.0,0.0,0.0,0.0,0.0,0.0,0.0,0.0,0.0,0.0,0.0,0.0,0.0,0.0,0.0,0.0,0.0,0.0,0.0,0.0,0.0,0.0,0.0,0.0,0.0,0.0,0.0,0.0,0.0,0.0,0.0,0.0,0.0,0.0,0.0,-2.6267,-2.7688,0.0,0.0,0.0,0.0,0.0,0.0,0.0,0.0,-2.6715,0.0,0.0,0.0,0.0,0.0,0.0,0.0,0.0,0.0,0.0,0.0,0.0,0.0,0.0,0.0,0.0,0.0,0.0,0.0,0.0,0.0,0.0,0.0,0.0,0.0,0.0,0.0,0.0,0.0,0.0,0.0,0.0,0.0,0.0,0.0,0.0,0.0,0.0,0.0,0.0,0.0,0.0,0.0,0.0,0.0,0.0,0.0,0.0,0.0,0.0,0.0,0.0,0.0,0.0,0.0,-2.8907,-2.9957,-3.06,-3.0778,-3.0739,-3.0594,-3.0344,-2.9687,-2.8698,0.0,0.0,0.0,0.0,0.0,0.0,0.0,0.0,0.0,0.0,0.0,0.0,0.0,0.0,0.0,0.0,0.0,0.0,0.0,0.0,0.0,0.0,0.0,0.0,0.0,0.0,0.0,0.0,0.0,0.0,0.0,0.0,0.0,0.0,0.0,0.0,0.0,0.0,0.0,0.0,-2.7985,-2.9675,-2.9066,0.0,0.0,0.0,0.0,0.0,0.0,-2.7554,-2.7535,0.0,0.0,0.0,0.0,0.0,0.0,0.0,0.0,0.0,0.0,0.0,0.0,0.0,0.0,0.0,0.0,0.0,0.0,0.0,0.0,0.0,0.0,0.0,0.0,0.0,0.0,0.0,0.0,0.0,0.0,0.0,0.0,0.0,0.0,0.0,0.0,0.0,0.0,0.0,0.0,0.0,0.0,0.0,0.0,0.0,0.0,0.0,0.0,0.0,0.0,0.0,0.0,0.0,0.0,0.0,-2.9117,-3.0105,-3.0645,-3.079,-3.0701,-3.054,-3.0283,-2.9595,-2.858,0.0,0.0,0.0,0.0,0.0,0.0,0.0,0.0,0.0,0.0,0.0,0.0,0.0,0.0,0.0,0.0,0.0,0.0,0.0,0.0,0.0,0.0,0.0,0.0,0.0,0.0,0.0,0.0,0.0,0.0,0.0,0.0,0.0,0.0,0.0,0.0,0.0,0.0,0.0,0.0,0.0,-3.1054,-3.0974,-3.0366,0.0,0.0,0.0,0.0,-2.8576,-2.8496,0.0,0.0,0.0,0.0,0.0,0.0,0.0,0.0,0.0,0.0,0.0,0.0,0.0,0.0,0.0,0.0,0.0,0.0,0.0,0.0,0.0,0.0,0.0,0.0,0.0,0.0,0.0,0.0,0.0,0.0,0.0,0.0,0.0,0.0,0.0,0.0,0.0,0.0,0.0,0.0,0.0,0.0,0.0,0.0,0.0,0.0,0.0,0.0,0.0,0.0,0.0,0.0,0.0,0.0,0.0,0.0,-2.898,-2.9998,-3.0598,-3.0779,-3.0614,-3.0424,-3.0209,-2.9456,-2.8408,0.0,0.0,0.0,0.0,0.0,0.0,0.0,0.0,0.0,0.0,0.0,0.0,0.0,0.0,0.0,0.0,0.0,0.0,0.0,0.0,0.0,0.0,0.0,0.0,0.0,0.0,0.0,0.0,0.0,0.0,0.0,0.0,0.0,0.0,0.0,0.0,0.0,0.0,0.0,0.0,0.0,-3.0891,-3.1955,-3.1725,-3.1252,0.0,0.0,-2.9071,-2.9198,-2.8889,0.0,0.0,0.0,0.0,0.0,0.0,0.0,0.0,0.0,0.0,0.0,0.0,0.0,0.0,0.0,0.0,0.0,0.0,0.0,0.0,0.0,0.0,0.0,0.0,0.0,0.0,0.0,0.0,0.0,0.0,0.0,0.0,0.0,0.0,0.0,0.0,0.0,0.0,0.0,0.0,0.0,0.0,0.0,0.0,0.0,0.0,0.0,0.0,0.0,0.0,0.0,0.0,0.0,0.0,0.0,-2.6436,-2.809,-2.8676,-2.9289,-2.9927,-2.981,-2.9798,-2.998,-2.9268,-2.825,0.0,0.0,0.0,0.0,0.0,0.0,0.0,0.0,0.0,0.0,0.0,0.0,0.0,0.0,0.0,0.0,0.0,0.0,0.0,0.0,0.0,0.0,0.0,0.0,0.0,0.0,0.0,0.0,0.0,0.0,0.0,0.0,0.0,0.0,0.0,0.0,0.0,0.0,0.0,0.0,0.0,0.0,-3.2232,-3.2495,0.0,0.0,0.0,-2.9897,-2.9738,0.0,0.0,0.0,0.0,0.0,0.0,0.0,0.0,0.0,0.0,0.0,0.0,0.0,0.0,0.0,0.0,0.0,0.0,0.0,0.0,0.0,0.0,0.0,0.0,0.0,0.0,0.0,0.0,0.0,0.0,0.0,0.0,0.0,0.0,0.0,0.0,0.0,0.0,0.0,0.0,0.0,0.0,0.0,0.0,0.0,0.0,0.0,0.0,0.0,0.0,0.0,0.0,0.0,0.0,0.0,0.0,0.0,-2.732,-2.7747,-2.8247,-2.8866,-2.876,-2.8836,-2.908,-2.8452,0.0,0.0,0.0,0.0,0.0,0.0,0.0,0.0,0.0,0.0,0.0,0.0,0.0,0.0,0.0,0.0,0.0,0.0,0.0,0.0,0.0,0.0,0.0,0.0,0.0,0.0,0.0,-1.5081,0.0,0.0,0.0,0.0,0.0,0.0,0.0,0.0,0.0,0.0,0.0,0.0,0.0,0.0,-3.1764,-3.2225,-3.2812,-3.2923,0.0,0.0,-3.0342,-3.006,-2.9467,-2.8717,0.0,0.0,0.0,0.0,0.0,0.0,0.0,0.0,0.0,0.0,0.0,0.0,0.0,0.0,0.0,0.0,0.0,0.0,0.0,0.0,0.0,0.0,0.0,0.0,0.0,0.0,0.0,0.0,0.0,0.0,0.0,0.0,0.0,0.0,0.0,0.0,0.0,0.0,0.0,0.0,0.0,0.0,0.0,0.0,0.0,0.0,0.0,0.0,0.0,0.0,0.0,0.0,0.0,0.0,0.0,-2.6923,-2.7885,-2.8156,-2.7827,-2.7682,-2.7456,-2.7186,-2.6539,-2.5646,0.0,0.0,0.0,0.0,0.0,0.0,0.0,0.0,0.0,0.0,0.0,0.0,0.0,0.0,0.0,0.0,0.0,0.0,0.0,0.0,0.0,0.0,0.0,0.0,0.0,0.0,0.0,0.0,0.0,0.0,0.0,0.0,0.0,0.0,0.0,0.0,0.0,0.0,0.0,0.0,0.0,-3.0683,-3.209,-3.2445,-3.2519,0.0,0.0,-3.0316,-3.0033,-2.9303,-2.8432,-2.7434,0.0,0.0,0.0,0.0,0.0,0.0,0.0,0.0,0.0,0.0,0.0,0.0,0.0,0.0,0.0,0.0,0.0,0.0,0.0,0.0,0.0,0.0,0.0,0.0,0.0,0.0,0.0,0.0,0.0,0.0,0.0,0.0,0.0,0.0,0.0,0.0,0.0,0.0,0.0,0.0,0.0,0.0,0.0,0.0,0.0,0.0,0.0,0.0,0.0,0.0,0.0,0.0,0.0,-2.4827,-2.5595,-2.6106,-2.641,-2.6454,-2.6368,-2.6428,-2.6634,-2.6059,-2.5226,0.0,0.0,0.0,0.0,0.0,0.0,0.0,0.0,0.0,0.0,0.0,0.0,0.0,0.0,0.0,0.0,0.0,0.0,0.0,0.0,0.0,0.0,0.0,0.0,0.0,0.0,0.0,0.0,-1.6819,-1.6777,-1.648,0.0,0.0,0.0,0.0,0.0,0.0,0.0,0.0,0.0,0.0,-3.068,-3.1665,-3.1943,0.0,0.0,-3.0999,-3.0199,-2.981,-2.9104,-2.8225,-2.7187,-2.5699,0.0,0.0,0.0,0.0,0.0,0.0,0.0,0.0,0.0,0.0,0.0,0.0,0.0,0.0,0.0,0.0,0.0,0.0,0.0,0.0,0.0,0.0,0.0,0.0,0.0,0.0,0.0,0.0,0.0,0.0,0.0,0.0,0.0,0.0,0.0,0.0,0.0,0.0,0.0,0.0,0.0,0.0,0.0,0.0,0.0,0.0,0.0,0.0,0.0,0.0,0.0,0.0,-2.409,-2.4563,-2.5015,-2.5226,-2.5133,-2.5116,-2.5222,-2.5506,-2.5022,-2.4237,0.0,0.0,0.0,0.0,0.0,0.0,0.0,0.0,0.0,0.0,0.0,0.0,0.0,0.0,0.0,0.0,0.0,0.0,0.0,0.0,0.0,0.0,0.0,0.0,0.0,0.0,0.0,0.0,-1.7048,-1.6661,-1.6213,0.0,0.0,0.0,0.0,0.0,0.0,0.0,0.0,0.0,0.0,-3.0432,-3.1013,-3.117,-3.1196,-3.1127,-3.0451,-2.9821,-2.9393,-2.867,-2.7819,-2.6828,0.0,0.0,0.0,0.0,0.0,0.0,0.0,0.0,0.0,0.0,0.0,0.0,0.0,0.0,0.0,0.0,0.0,0.0,0.0,0.0,0.0,0.0,0.0,0.0,0.0,0.0,0.0,-2.1753,0.0,0.0,-1.9361,0.0,0.0,0.0,0.0,0.0,0.0,0.0,0.0,0.0,0.0,0.0,0.0,0.0,0.0,0.0,0.0,0.0,0.0,0.0,0.0,0.0,0.0,-2.4175,-2.4036,-2.4993,-2.4992,-2.3896,-2.3878,-2.3828,-2.3594,-2.3098,-2.2395,-2.1368,0.0,0.0,0.0,0.0,0.0,0.0,0.0,0.0,0.0,0.0,0.0,0.0,0.0,0.0,0.0,0.0,0.0,0.0,0.0,0.0,0.0,0.0,0.0,0.0,0.0,0.0,-1.7607,-1.7183,-1.6685,0.0,0.0,0.0,0.0,0.0,0.0,0.0,0.0,0.0,0.0,-2.8693,-2.9754,-3.0179,-3.0103,-3.0033,-3.0017,-2.9499,-2.9028,-2.8732,-2.7932,-2.7093,0.0,0.0,0.0,0.0,0.0,0.0,0.0,0.0,0.0,0.0,0.0,0.0,0.0,0.0,0.0,0.0,0.0,0.0,0.0,0.0,0.0,0.0,0.0,0.0,0.0,0.0,0.0,-2.1933,-2.1076,0.0,0.0,0.0,0.0,0.0,0.0,0.0,0.0,0.0,0.0,0.0,-2.0893,-2.0646,0.0,0.0,0.0,0.0,0.0,0.0,0.0,0.0,0.0,0.0,0.0,0.0,-2.3203,-2.3354,-2.3772,-2.369,-2.3021,-2.3028,-2.2972,-2.283,-2.2388,-2.142,-1.9882,0.0,0.0,0.0,0.0,0.0,0.0,0.0,0.0,0.0,0.0,0.0,0.0,0.0,0.0,0.0,0.0,0.0,0.0,0.0,0.0,0.0,0.0,0.0,0.0,0.0,-1.7993,0.0,0.0,0.0,0.0,0.0,0.0,0.0,0.0,0.0,0.0,0.0,-2.61,-2.7777,-2.8592,-2.909,-2.9335,-2.9166,-2.8966,0.0,0.0,0.0,0.0,0.0,0.0,0.0,0.0,0.0,0.0,0.0,0.0,0.0,0.0,-2.5247,-2.4878,-2.4962,-2.4793,-2.387,0.0,0.0,0.0,0.0,0.0,0.0,0.0,0.0,0.0,0.0,0.0,0.0,0.0,0.0,-2.1469,0.0,-1.9989,0.0,0.0,0.0,0.0,0.0,0.0,0.0,0.0,-2.0778,-2.0828,-2.0795,-2.0646,-2.105,0.0,-2.1514,-2.1632,0.0,0.0,0.0,0.0,0.0,0.0,0.0,0.0,-2.2491,-2.2528,-2.2833,-2.2773,-2.2392,-2.2368,-2.2368,-2.2303,-2.1589,-2.0429,-1.8782,-1.7222,-1.6043,0.0,0.0,0.0,0.0,0.0,0.0,0.0,0.0,0.0,0.0,0.0,0.0,0.0,0.0,0.0,0.0,0.0,0.0,0.0,0.0,0.0,0.0,0.0,-1.8028,0.0,0.0,0.0,0.0,0.0,0.0,0.0,0.0,0.0,-2.4348,-2.5459,-2.6653,-2.8082,-2.8383,-2.8431,-2.8479,0.0,0.0,0.0,0.0,0.0,0.0,0.0,-2.5728,-2.5077,-2.4465,-2.3929,-2.3657,-2.4104,-2.4655,-2.5169,0.0,0.0,-2.5369,-2.5369,-2.5049,-2.4244,-2.4068,-2.4074,-2.3959,-2.3897,-2.3954,0.0,0.0,0.0,0.0,0.0,0.0,0.0,0.0,-2.1657,-2.1218,0.0,-2.0068,0.0,0.0,0.0,0.0,0.0,-1.9594,0.0,0.0,-2.0695,-2.0728,-2.0597,-2.0444,-2.0628,-2.1042,-2.0858,-2.1013,-2.1685,-2.1972,0.0,0.0,0.0,0.0,0.0,0.0,-2.2033,-2.1643,-2.2181,-2.2289,-2.1886,-2.194,-2.1911,-2.1807,-2.0653,-1.9371,-1.8014,-1.69,-1.575,-1.4499,-1.4071,0.0,0.0,0.0,0.0,0.0,0.0,0.0,0.0,0.0,0.0,0.0,0.0,0.0,0.0,0.0,0.0,0.0,0.0,0.0,0.0,-1.7796,0.0,0.0,0.0,0.0,0.0,0.0,0.0,0.0,0.0,0.0,-2.5105,-2.59,-2.6861,-2.7997,0.0,0.0,0.0,0.0,-2.7195,-2.7056,-2.6826,-2.651,-2.6122,-2.5687,-2.5119,-2.4567,0.0,0.0,-2.3941,-2.3979,-2.4129,-2.4526,-2.4431,-2.4583,-2.5546,-2.5378,-2.4953,-2.4198,-2.3918,-2.3743,-2.3408,-2.3161,-2.3186,-2.3796,0.0,0.0,0.0,0.0,-2.2692,-2.2321,-2.1626,-2.1476,-2.0993,-2.0279,-1.9846,0.0,0.0,0.0,0.0,0.0,0.0,-1.9782,-2.0166,-2.0373,-2.0441,-2.0392,-2.0185,-2.0447,-2.0999,-2.07,-2.0706,-2.0905,-2.1189,-2.1069,-2.0581,0.0,0.0,0.0,0.0,-2.0837,-2.102,-2.1027,-2.1051,-2.1103,-2.1135,-2.0975,-2.0698,-1.9467,-1.8408,-1.7529,-1.5835,-1.4828,-1.4672,-1.3693,0.0,0.0,0.0,0.0,0.0,0.0,0.0,0.0,0.0,0.0,0.0,0.0,0.0,0.0,0.0,0.0,0.0,0.0,0.0,-1.7938,-1.8013,-1.8071,0.0,0.0,0.0,0.0,0.0,0.0,0.0,0.0,0.0,-2.5785,-2.626,-2.6748,0.0,0.0,-2.6967,-2.6864,-2.6549,-2.6297,-2.6258,-2.5825,0.0,-2.5216,-2.4794,-2.435,-2.3897,-2.3556,-2.3321,-2.3351,-2.3579,-2.3778,-2.3825,-2.3745,-2.3754,-2.36,-2.3626,-2.3362,-2.2754,-2.2651,-2.2548,-2.2263,-2.217,-2.2339,-2.2979,-2.2914,-2.2539,-2.2266,-2.2058,-2.2039,-2.1647,-2.1011,-2.0925,-2.0502,-1.9884,-1.9596,-1.9302,-1.8988,-1.875,0.0,0.0,0.0,-1.9581,-1.9848,-1.9786,-1.9699,-1.958,-1.917,-1.9156,-1.9459,-1.9494,-1.9515,-1.9545,-1.9943,-1.9993,-1.9792,0.0,0.0,-2.0062,-2.0059,-2.0132,-2.0273,-2.0228,-2.0258,-2.0395,-2.0376,-2.0066,-1.9411,-1.8488,-1.752,-1.6395,-1.4964,-1.4063,-1.378,-1.2966,-1.233,0.0,0.0,0.0,0.0,0.0,0.0,0.0,0.0,0.0,0.0,0.0,-1.2343,0.0,0.0,0.0,0.0,-1.7645,-1.8091,-1.8496,-1.8396,0.0,0.0,0.0,0.0,0.0,0.0,0.0,-2.3135,-2.3987,-2.4599,-2.4868,-2.5068,-2.5469,-2.613,-2.595,-2.5668,-2.5254,0.0,-2.4736,-2.4929,-2.4625,-2.4396,-2.4465,-2.4216,-2.3923,-2.3569,-2.3271,-2.3017,-2.303,-2.296,-2.2825,-2.259,-2.2277,-2.1829,-2.124,-2.111,-2.1218,-2.1534,-2.1549,-2.149,-2.1339,-2.1371,-2.1485,-2.2203,-2.1969,-2.1526,-2.1262,-2.1087,-2.0893,-2.0644,-2.0388,-2.015,-1.9925,-1.9675,-1.9398,-1.9064,-1.8707,-1.8486,0.0,-1.8712,-1.9022,-1.9251,-1.9396,-1.8976,-1.8657,-1.8372,-1.7747,-1.7338,-1.7103,-1.764,-1.7885,-1.7898,-1.8403,-1.8612,-1.862,-1.9751,-2.0104,-1.9646,-1.9775,-1.9744,-1.942,-1.9609,-1.9717,-1.9752,-1.9675,-1.9161,-1.8172,-1.7697,-1.6637,-1.5028,-1.4266,-1.3423,-1.2348,-1.2124,-1.1624,-1.0686,0.0,0.0,0.0,0.0,0.0,0.0,0.0,0.0,0.0,0.0,0.0,0.0,0.0,0.0,0.0,-1.8636,0.0,-1.9044,-1.8933,0.0,0.0,0.0,-2.0279,-2.0519,-2.1501,-2.2323,-2.2711,0.0,0.0,-2.3017,-2.295,-2.3377,-2.4713,-2.4496,-2.4025,-2.3307,-2.307,-2.2964,-2.34,-2.3369,-2.3441,-2.3599,-2.3664,-2.3585,-2.3289,-2.3027,-2.2784,-2.2637,-2.2065,-2.1463,-2.1104,-2.0274,-1.9451,-1.8808,-1.8369,-1.8459,-2.0265,-2.0432,-2.0313,-2.0327,-2.0296,-2.0266,-2.2192,-2.2135,-2.1694,-2.1388,-2.1135,-2.0909,-2.0644,-2.0388,-2.003,-1.9767,-1.953,-1.9087,-1.8592,-1.8082,-1.7653,-1.747,-1.7557,-1.7476,-1.751,-1.7684,-1.7675,-1.7651,-1.7568,-1.7272,-1.7035,-1.6884,-1.6902,-1.7098,-1.7423,-1.759,-1.7873,-1.8293,-1.8599,-1.8749,-1.8782,-1.8896,-1.8888,-1.8822,-1.8959,-1.9072,-1.9118,-1.902,-1.8596,-1.7673,-1.6707,-1.5585,-1.4374,-1.3606,-1.3054,-1.2671,-1.2541,-1.2183,-1.1552,-1.1158,0.0,0.0,0.0,0.0,0.0,0.0,0.0,0.0,0.0,-1.2823,-1.4184,0.0,-1.6262,0.0,-1.9078,-1.9611,-1.9206,-1.9422,0.0,0.0,-1.9676,-2.003,-2.0696,-2.1128,-2.1639,-2.2417,-2.2536,-2.2577,-2.259,-2.2469,-2.2338,-2.2247,-2.2764,-2.2951,-2.2644,-2.2456,-2.2413,-2.2476,-2.2282,-2.2168,-2.2247,-2.2477,-2.264,-2.2405,-2.2275,-2.1891,-2.1253,-2.0746,-2.0241,-1.9826,-1.9126,-1.8412,-1.777,-1.7244,-1.6987,-1.7421,-1.778,-1.8039,-1.7965,-1.8096,-1.8279,-2.218,-2.218,-2.1844,-2.1573,-2.1356,-2.0958,-2.0644,-2.0339,-1.9925,-1.9639,-1.9369,-1.8521,-1.7953,-1.7605,-1.7026,-1.6849,-1.7004,-1.693,-1.6961,-1.7084,-1.6876,-1.676,-1.6627,-1.6227,-1.5905,-1.5706,-1.5834,-1.5997,-1.6209,-1.6702,-1.7122,-1.7435,-1.7733,-1.7935,-1.8016,-1.8293,-1.8411,-1.8411,-1.8344,-1.8383,-1.8394,-1.804,-1.7432,-1.658,-1.5717,-1.4752,-1.3742,-1.3213,-1.2777,-1.2404,-1.2057,-1.1527,-1.088,-1.0467,-1.0,0.0,0.0,0.0,0.0,0.0,0.0,0.0,0.0,0.0,0.0,0.0,-1.6441,-1.8056,-1.9232,-1.9795,-1.9487,-1.9799,-1.9965,-1.9862,-1.9823,-1.9949,-2.0473,-2.059,-2.0862,-2.1288,-2.1274,-2.1221,-2.1155,-2.1021,-2.0841,-2.0524,-2.0976,-2.134,-2.1327,-2.1221,-2.1204,-2.1447,-2.139,-2.1327,-2.1486,-2.1688,-2.1773,-2.1613,-2.1369,-2.1027,-2.0449,-1.9738,-1.9066,-1.8585,-1.7819,-1.7007,-1.6326,-1.5921,-1.5572,-1.5458,-1.5704,-1.6218,-1.6703,-1.6981,-1.7211,-2.2197,-2.2168,-2.1915,-2.1738,-2.1589,-2.1087,-2.0662,-2.0304,-1.9778,-1.933,-1.8862,-1.7786,-1.7228,-1.7102,-1.6545,-1.641,-1.6647,-1.6713,-1.6752,-1.679,-1.6258,-1.5916,-1.5656,-1.5061,-1.4606,-1.4327,-1.4702,-1.4847,-1.4805,-1.5757,-1.631,-1.6481,-1.7036,-1.7274,-1.7246,-1.7693,-1.792,-1.7959,-1.7651,-1.7491,-1.7477,-1.6797,-1.6034,-1.5234,-1.4814,-1.414,-1.3138,-1.2947,-1.2595,-1.1907,-1.1306,-1.0577,-0.9711,-0.9529,-0.9296,0.0,-0.9256,0.0,0.0,0.0,0.0,0.0,0.0,0.0,0.0,-1.5611,-1.6793,-1.8125,-1.9072,-1.9586,-1.9586,-1.9832,-1.9965,-1.9914,-1.9826,-1.9813,-1.9864,-1.9978,-2.0004,-1.9926,-1.9811,-1.9656,-1.955,-1.942,-1.9368,-1.9393,-1.9522,-1.9768,-1.9849,-1.9886,-2.0062,-2.0501,-2.0498,-2.0619,-2.0927,-2.1089,-2.0945,-2.0718,-2.0363,-2.0052,-1.9576,-1.8654,-1.7857,-1.735,-1.6437,-1.5508,-1.4796,-1.4478,-1.4189,-1.4003,-1.4183,-1.4805,-1.5928,-1.6412,-1.6615,-2.2197,-2.2185,-2.1974,-2.1811,-2.1664,-2.134,-2.0925,-2.0395,-1.9364,-1.8223,-1.7093,-1.6816,-1.6545,-1.6295,-1.584,-1.5688,-1.5786,-1.5403,-1.5255,-1.5304,-1.5191,-1.5071,-1.4977,-1.4802,-1.4588,-1.43,-1.4193,-1.4283,-1.453,-1.4715,-1.5247,-1.6059,-1.6228,-1.6279,-1.6279,0.0,0.0,0.0,-1.6139,-1.585,-1.585,-1.5505,-1.4904,-1.4138,-1.4009,0.0,-1.2541,-1.2722,-1.2558,-1.1805,-1.1501,0.0,0.0,0.0,0.0,0.0,0.0,0.0,0.0,0.0,0.0,0.0,-1.2729,-1.3402,-1.4495,-1.5932,-1.6961,-1.7389,-1.8084,-1.8507,-1.8507,-1.8561,-1.8576,-1.8576,-1.8553,-1.8668,-1.9108,-1.9121,-1.9158,-1.9475,-1.9408,-1.9239,-1.8999,-1.8999,-1.9052,-1.8893,-1.9052,-1.9158,-1.9146,-1.946,-1.9641,-1.9753,-1.9645,-1.9658,-2.0019,-2.0024,-1.9801,-1.9545,-1.9125,-1.8509,-1.7652,-1.6963,-1.6352,-1.5761,-1.5029,-1.4332,-1.3726,-1.3208,-1.2879,-1.285,-1.307,-1.3726,-1.499,-1.5396,-1.5555,-2.2254,-2.2225,-2.2123,-2.1974,0.0,-2.1193,-2.0744,-2.0321,-1.9395,-1.828,-1.7021,-1.655,-1.6287,-1.6123,-1.5539,-1.5386,-1.5501,-1.5184,-1.5086,-1.5133,-1.5131,-1.4994,-1.4825,-1.4763,-1.4543,-1.4144,-1.3974,-1.3945,-1.4033,-1.4246,-1.4596,-1.5095,-1.5376,-1.5476,-1.5464,-1.5132,-1.5248,-1.5776,-1.5261,-1.4993,-1.4942,-1.4359,-1.3823,-1.3343,-1.3087,0.0,0.0,0.0,0.0,0.0,0.0,0.0,0.0,0.0,0.0,-0.9278,-0.9647,-1.0078,-1.0549,-1.1167,-1.1778,-1.2372,-1.2939,-1.3645,-1.4547,-1.5568,-1.6279,-1.6402,-1.7014,-1.7474,-1.7508,-1.7708,-1.7881,-1.7941,-1.7894,-1.7969,-1.824,-1.84,-1.8505,-1.8618,-1.8713,-1.8655,-1.8398,-1.8333,-1.8333,-1.829,-1.8441,-1.8525,-1.8602,-1.8987,-1.9303,-1.921,-1.904,-1.8899,-1.892,-1.8924,-1.8588,-1.8054,-1.7768,-1.7242,-1.6221,-1.5713,-1.5332,-1.4805,-1.4163,-1.352,-1.2854,-1.235,-1.1994,-1.1921,-1.2222,-1.2804,-1.3835,-1.4517,-1.4944,-2.231,-2.231,-2.2254,-2.2051,-2.1747,-2.0981,-2.034,-1.9864,0.0,0.0,0.0,-1.6415,-1.6085,-1.6053,-1.55,-1.5284,-1.5418,-1.5358,-1.5358,-1.5389,-1.5358,-1.5178,-1.4918,-1.4839,-1.4574,-1.4065,-1.396,-1.3795,-1.3586,-1.3989,-1.42,-1.4256,-1.4651,-1.479,-1.4689,-1.3951,-1.3889,-1.4475,-1.4323,-1.4181,-1.4092,-1.3262,-1.2747,-1.2544,-1.2129,-1.1765,-1.1527,-1.1464,-1.1272,-1.0791,-1.0275,-0.9765,-0.9259,-0.9036,-0.9024,-0.9238,-0.9552,-1.0011,-1.0706,-1.1338,-1.1953,-1.2569,-1.319,-1.3836,-1.4571,-1.504,-1.5334,-1.5457,-1.6028,-1.6358,-1.6414,-1.6834,-1.7123,-1.7231,-1.7183,-1.7195,-1.7267,-1.7591,-1.7704,-1.7615,-1.7722,-1.7787,-1.7495,-1.7353,-1.73,-1.7289,-1.7427,-1.7668,-1.7744,-1.8289,-1.8715,-1.8395,-1.8189,-1.8093,-1.7733,-1.758,-1.723,-1.6556,-1.633,-1.5974,-1.5195,-1.4696,-1.4378,-1.3866,-1.3356,-1.2636,-1.1996,-1.1521,-1.1195,-1.0932,-1.138,-1.199,-1.2638,-1.3607,-1.4322,-2.2377,-2.2394,-2.231,-2.1821,-2.1126,-2.0877,-1.9866,-1.8383,-1.7893,-1.7041,-1.6023,-1.5802,-1.5654,-1.558,-1.5447,-1.5418,-1.5477,-1.5418,-1.5389,-1.5403,-1.5389,-1.5239,-1.4982,-1.4918,-1.4669,-1.4287,-1.4078,-1.3927,-1.3754,-1.3705,-1.3908,-1.4226,-1.4306,-1.4222,-1.3951,-1.2834,-1.2256,-1.2261,-1.2603,-1.2722,-1.2529,-1.2045,-1.1715,-1.1491,-1.1227,-1.0981,-1.076,-1.0883,-1.0797,-1.0334,-1.0303,-1.0075,-0.9498,-0.9398,-0.9345,-0.9166,-0.9578,-0.9964,-1.0216,-1.1136,-1.2101,-1.2929,-1.3296,-1.3647,-1.4212,-1.4455,-1.464,-1.4801,-1.4925,-1.4983,-1.4994,-1.5292,-1.5476,-1.5487,-1.5646,-1.5948,-1.6385,-1.6349,-1.6376,-1.6596,-1.6396,-1.6188,-1.6005,-1.5868,-1.5879,-1.5731,-1.5944,-1.5929,-1.6197,-1.7235,-1.7744,-1.7151,-1.688,-1.6585,-1.6134,-1.5803,-1.5658,-1.5353,-1.493,-1.4582,-1.4067,-1.3552,-1.3061,-1.2569,-1.2004,-1.1375,-1.089,-1.0422,-1.0214,-1.0143,-1.0537,-1.1054,-1.1672,-1.2487,-1.3282,-2.2432,-2.2343,-2.1898,-2.1498,-2.1039,-2.0133,-1.8932,-1.7671,-1.7337,-1.6811,-1.6176,-1.5938,-1.5854,-1.5784,-1.5668,-1.5639,-1.5668,-1.5639,-1.561,-1.561,-1.5639,-1.5477,-1.5181,-1.4744,-1.4318,-1.3926,-1.3459,-1.3142,-1.2927,-1.2883,-1.2888,-1.2974,-1.2804,-1.2651,-1.2493,-1.1895,-1.1511,-1.1295,-1.1369,-1.1296,-1.1058,-1.0727,-1.0484,-1.033,-1.0143,-0.9975,-0.9904,-0.9959,-0.9943,-0.9924,-0.9907,-0.9867,-0.9767,-0.9724,-0.9641,-0.9584,-0.9873,-1.0189,-1.0454,-1.1343,-1.2081,-1.2567,-1.2926,-1.3248,-1.3583,-1.381,-1.3988,-1.4071,-1.4118,-1.4118,-1.4222,-1.4326,-1.4408,-1.4501,-1.4628,-1.4764,-1.5034,-1.523,-1.5306,-1.5378,-1.5477,-1.5382,-1.5154,-1.5029,-1.4976,-1.4924,-1.5029,-1.5112,-1.5112,-1.5775,-1.6212,-1.5976,-1.587,-1.5626,-1.5206,-1.5091,-1.4842,-1.4419,-1.4205,-1.3792,-1.3252,-1.2698,-1.2355,-1.1991,-1.1318,-1.0733,-1.0319,-0.9939,-0.9659,-0.9453,-0.9841,-1.035,-1.0934,-1.1701,-1.2662,-2.1958,-2.1827,-2.123,-2.0822,-2.0525,-1.9126,-1.8044,-1.7322,-1.7084,-1.6815,-1.6501,-1.6234,-1.6067,-1.6011,-1.587,-1.5799,-1.5799,-1.5827,-1.5827,-1.5841,-1.5677,-1.546,-1.5169,-1.4398,-1.3813,-1.3427,-1.2898,-1.2551,-1.2339,-1.2268,-1.2124,-1.1873,-1.163,-1.1449,-1.1345,-1.1119,-1.0894,-1.0668,-1.0317,-1.0082,-1.0026,-0.9743,-0.9588,-0.9432,-0.9274,-0.9147,-0.918,-0.9157,-0.9275,-0.9472,-0.9511,-0.9622,-0.9993,-0.9925,-0.9911,-1.0091,-1.0229,-1.0456,-1.0841,-1.1426,-1.1837,-1.2034,-1.2383,-1.2626,-1.2778,-1.3094,-1.3375,-1.3494,-1.3563,-1.3563,-1.3658,-1.3716,-1.3752,-1.3836,-1.3884,-1.3894,-1.3915,-1.4104,-1.4216,-1.4159,-1.4348,-1.4399,-1.4274,-1.4108,-1.4017,-1.4059,-1.4222,-1.4316,-1.4316,-1.4316,-1.4471,-1.4646,-1.4707,-1.4646,-1.4418,-1.4296,-1.4042,-1.35,-1.3397,-1.3096,-1.2541,-1.2121,-1.1772,-1.1374,-1.0783,-1.0181,-0.9781,-0.9521,-0.9275,-0.9071,-0.9388,-0.9879,-1.0425,-1.1125,-1.2044,-2.0489,-2.0372,-2.0213,-1.9647,-1.89,-1.8088,-1.7572,-1.7281,-1.7084,-1.6841,-1.657,-1.6316,-1.6123,-1.5996,-1.587,-1.5827,-1.5885,-1.59,-1.5898,-1.5892,-1.5279,-1.4887,-1.4621,-1.3799,-1.3229,-1.2983,-1.2858,-1.2664,-1.247,-1.2427,-1.2168,-1.1767,-1.1558,-1.1357,-1.118,-1.0658,-1.0283,-1.0091,-0.9329,-0.9252,-0.9777,-0.9555,-0.9389,-0.9322,-0.8894,-0.8724,-0.8849,-0.8901,-0.8953,-0.8984,-0.9324,-0.9668,-0.997,-0.9985,-1.0086,-1.0312,-1.0478,-1.0716,-1.101,-1.1006,-1.123,-1.1616,-1.1724,-1.1773,-1.1783,-1.2116,-1.2592,-1.306,-1.3246,-1.3256,-1.3266,-1.3372,-1.342,-1.3409,-1.3409,-1.3457,-1.3372,-1.3142,-1.2968,-1.2978,-1.282,-1.2544,-1.2679,-1.2588,-1.2501,-1.2767,-1.3005,-1.3135,-1.3135,-1.3234,-1.3224,-1.3184,-1.3461,-1.354,-1.3174,-1.29,-1.2908,-1.2683,-1.2317,-1.2173,-1.1939,-1.1353,-1.0633,-1.0704,-1.0008,-0.9457,-0.927,-0.9049,-0.8911,-0.8831,-0.9102,-0.9477,-1.0096,-1.0585,-1.1258,-2.0291,-2.0142,-1.9602,-1.8863,-1.8101,-1.7799,-1.7542,-1.7329,-1.7191,-1.6968,-1.6712,-1.649,-1.6262,-1.6067,-1.6011,-1.5998,-1.6026,-1.6055,-1.5854,-1.5541,-1.5198,-1.4758,-1.4139,-1.3421,-1.2952,-1.2672,-1.2291,-1.1971,-1.1757,-1.1516,-1.119,-1.0855,-1.0706,-1.0583,-1.0433,-1.0183,-0.9976,-0.9742,-0.9353,-0.9169,-0.9171,-0.8927,-0.8725,-0.8664,-0.8539,-0.8534,-0.8632,-0.8825,-0.9109,-0.9425,-0.9666,-0.9956,-1.0266,-1.0298,-1.0239,-1.0141,-1.0231,-1.0467,-1.0784,-1.0934,-1.1069,-1.1162,-1.1459,-1.1596,-1.1606,-1.1728,-1.2057,-1.2516,-1.2849,-1.3007,-1.2949,-1.2949,-1.291,-1.2803,-1.2754,-1.2706,-1.2501,-1.2403,-1.2246,-1.2147,-1.2017,-1.1927,-1.1977,-1.2026,-1.2126,-1.2274,-1.2539,-1.2676,-1.2735,-1.2832,-1.2832,-1.2754,-1.2889,-1.28,-1.2508,-1.248,-1.2372,-1.2274,-1.2076,-1.1877,-1.1578,-1.1124,-1.0573,-1.0257,-0.9577,-0.9106,-0.8976,-0.8745,-0.8586,-0.8639,-0.8857,-0.9263,-0.9777,-1.0095,-1.0605,-1.9611,-1.9464,-1.885,-1.8262,-1.7726,-1.7687,-1.7579,-1.7392,-1.7272,-1.7076,-1.6857,-1.6675,-1.6474,-1.6301,-1.6207,-1.6179,-1.6203,-1.6076,-1.5774,-1.5304,-1.4962,-1.436,-1.3709,-1.3,-1.2569,-1.2348,-1.1873,-1.1481,-1.1224,-1.0897,-1.0597,-1.0361,-1.0286,-1.0083,-0.9805,-0.9767,-0.9679,-0.9463,-0.9323,-0.9162,-0.8969,-0.8717,-0.8477,-0.8347,-0.8421,-0.8533,-0.8695,-0.896,-0.9274,-0.9689,-0.9821,-1.0056,-1.0425,-1.0429,-1.0298,-1.0059,-1.0038,-1.019,-1.0494,-1.0664,-1.0775,-1.0742,-1.1087,-1.1253,-1.1273,-1.1361,-1.1523,-1.1836,-1.2326,-1.2619,-1.2725,-1.2676,-1.2529,-1.2274,-1.2175,-1.1977,-1.1778,-1.1628,-1.141,-1.136,-1.1259,-1.1318,-1.1418,-1.1628,-1.1778,-1.1977,-1.2274,-1.2529,-1.2627,-1.2725,-1.2783,-1.2676,-1.2529,-1.2332,-1.2184,-1.2076,-1.2026,-1.1828,-1.1678,-1.1528,-1.1326,-1.0922,-1.0522,-1.0051,-0.9375,-0.8956,-0.8857,-0.8639,-0.8421,-0.8533,-0.8745,-0.9061,-0.9517,-0.9732,-0.9978,-1.8046,-1.8019,-1.7901,-1.78,-1.7687,-1.771,-1.7585,-1.7412,-1.7311,-1.7216,-1.7066,-1.6882,-1.6789,-1.6738,-1.6474,-1.6394,-1.6475,-1.5908,-1.5611,-1.5471,-1.4275,-1.3502,-1.3293,-1.2522,-1.2094,-1.2042,-1.1886,-1.1652,-1.1384,-1.1146,-1.0873,-1.0705,-1.0632,-1.0254,-0.9685,-0.9537,-0.9349,-0.9225,-0.8997,-0.9045,-0.9389,-0.9289,-0.8992,-0.8612,-0.8673,-0.8839,-0.9124,-0.9259,-0.9363,-0.9506,-0.953,-0.9785,-1.0212,-1.0155,-1.0147,-1.0271,-1.007,-0.9997,-1.0138,-1.0092,-1.0089,-1.0273,-1.04,-1.0371,-1.0488,-1.0721,-1.0945,-1.1006,-1.1589,-1.2166,-1.2474,-1.2482,-1.2323,-1.2026,-1.1728,-1.1469,-1.1326,-1.0863,-1.0506,-1.0506,-1.0506,-1.0608,-1.0769,-1.0871,-1.1167,-1.1418,-1.1728,-1.2085,-1.2382,-1.2578,-1.2627,-1.2529,-1.2332,-1.2026,-1.1778,-1.1678,-1.1469,-1.1318,-1.1276,-1.1074,-1.082,-1.0565,-1.0257,-0.9844,-0.9271,-0.891,-0.8752,-0.8646,-0.8533,-0.8586,-0.8646,-0.8956,-0.9309,-0.9413,-0.962,-1.7917,-1.7833,-1.7811,-1.7772,-1.7789,-1.7749,-1.7687,-1.7585,-1.7486,-1.7344,-1.7232,-1.71,-1.7075,-1.7101,-1.6986,-1.6952,-1.6928,-1.6313,-1.5792,-1.531,-1.4302,-1.3505,-1.2895,-1.2553,-1.2318,-1.2164,-1.2081,-1.194,-1.1747,-1.1571,-1.146,-1.1333,-1.1219,-1.0801,-1.0185,-0.9922,-0.9716,-0.9495,-0.9241,-0.9292,-0.9558,-0.9499,-0.9145,-0.8584,-0.8897,-0.9166,-0.9328,-0.9354,-0.942,-0.9497,-0.9497,-0.9569,-0.9682,-0.954,-0.9574,-0.9772,-0.958,-0.9531,-0.9661,-0.9768,-0.9797,-0.9789,-0.9916,-0.9991,-1.0117,-1.0162,-1.0333,-1.066,-1.0856,-1.1186,-1.1435,-1.1746,-1.1828,-1.1377,-1.1015,-1.0702,-1.0506,-1.0249,-1.0205,-1.0316,-1.0411,-1.0616,-1.0769,-1.1023,-1.1276,-1.1528,-1.1819,-1.2126,-1.2382,-1.2588,-1.2637,-1.2529,-1.2274,-1.1927,-1.1368,-1.1276,-1.1175,-1.1074,-1.1023,-1.1023,-1.0863,-1.0616,-1.0308,-0.9836,-0.9211,-0.8798,-0.8646,-0.8434,-0.8374,-0.8527,-0.8586,-0.8798,-0.9204,-0.9256,-0.9413,-1.7839,-1.7811,-1.7789,-1.7789,-1.7789,-1.7789,-1.7789,-1.7726,-1.7602,-1.7486,-1.7408,-1.7321,-1.7345,-1.7432,-1.7455,-1.7313,-1.704,-1.6365,-1.5645,-1.4898,-1.4087,-1.3364,-1.284,-1.2659,-1.2538,-1.2403,-1.2323,-1.221,-1.2092,-1.2003,-1.1918,-1.1839,-1.1747,-1.1201,-1.0386,-1.004,-0.9786,-0.9503,-0.9161,-0.9234,-0.9626,-0.9435,-0.9028,-0.8642,-0.8698,-0.89,-0.9108,-0.9105,-0.9227,-0.9396,-0.9432,-0.9366,-0.9235,-0.9069,-0.8968,-0.9036,-0.8852,-0.8839,-0.896,-0.9131,-0.9207,-0.9173,-0.9282,-0.9488,-0.9705,-0.9656,-0.9902,-1.0252,-1.0433,-1.0441,-1.048,-1.0757,-1.0893,-1.0648,-1.0338,-1.0089,-0.9984,-0.9947,-1.0102,-1.0308,-1.0462,-1.0667,-1.0913,-1.1074,-1.1276,-1.1569,-1.1778,-1.2026,-1.2372,-1.2539,-1.2637,-1.2529,-1.2323,-1.1877,-1.1418,-1.1276,-1.1032,-1.0871,-1.0922,-1.0922,-1.0913,-1.0667,-1.0308,-0.9777,-0.9309,-0.8844,-0.848,-0.8221,-0.8268,-0.8421,-0.8527,-0.8738,-0.8995,-0.9204,-0.9361,-1.7794,-1.7789,-1.7789,-1.7789,-1.7789,-1.7789,-1.7789,-1.7789,-1.7726,-1.7664,-1.7595,-1.7526,-1.7572,-1.7687,-1.7726,-1.7449,-1.6731,-1.5967,-1.5213,-1.4454,-1.359,-1.3099,-1.2906,-1.2722,-1.2639,-1.2593,-1.2554,-1.2518,-1.2506,-1.2368,-1.2302,-1.2205,-1.2117,-1.1404,-0.9965,-0.9853,-0.9494,-0.9131,-0.8777,-0.8968,-0.9667,-0.9181,-0.8681,-0.8453,-0.7982,-0.79,-0.8391,-0.8472,-0.8718,-0.9153,-0.9235,-0.9155,-0.8887,-0.869,-0.8488,-0.8254,-0.7996,-0.793,-0.8061,-0.8098,-0.8266,-0.8431,-0.8523,-0.8782,-0.9133,-0.9282,-0.9498,-0.9855,-1.0067,-1.0116,-0.9769,-0.9712,-0.9812,-0.9995,-0.9792,-0.9669,-0.984,-0.9843,-0.9953,-1.0273,-1.0386,-1.0576,-1.0947,-1.1057,-1.1199,-1.1501,-1.1678,-1.1877,-1.2274,-1.248,-1.2578,-1.2578,-1.2382,-1.1968,-1.1628,-1.1276,-1.093,-1.0675,-1.082,-1.0871,-1.0913,-1.0769,-1.0514,-1.0043,-0.9368,-0.8903,-0.8527,-0.8321,-0.8368,-0.8521,-0.8573,-0.8685,-0.8995,-0.9204,-0.9361,-1.7789,-1.7789,-1.7789,-1.7789,-1.7789,-1.7789,-1.7833,-1.7861,-1.7794,-1.7789,-1.7794,-1.7749,-1.7749,-1.7816,-1.7861,-1.7207,-1.6094,-1.5729,-1.5231,-1.4465,-1.3683,-1.3208,-1.3031,-1.2885,-1.2811,-1.2808,-1.2792,-1.2794,-1.2794,-1.2754,-1.2662,-1.2585,-1.2403,-1.1757,-1.0727,-1.0387,-1.0007,-0.9546,-0.9139,-0.9153,-0.9471,-0.8845,-0.8188,-0.7573,-0.6969,-0.6717,-0.6812,-0.7609,-0.8156,-0.8346,-0.8567,-0.854,-0.8305,-0.8127,-0.7937,-0.7734,-0.7549,-0.7401,-0.7436,-0.7589,-0.7714,-0.7843,-0.7955,-0.8193,-0.854,-0.8812,-0.904,-0.9261,-0.9433,-0.9474,-0.9213,-0.9023,-0.912,-0.9315,-0.9156,-0.9194,-0.946,-0.9755,-0.9953,-1.015,-1.0347,-1.0694,-1.1055,-1.1173,-1.1416,-1.1828,-1.1972,-1.212,-1.2461,-1.253,-1.2627,-1.2676,-1.2372,-1.2067,-1.1678,-1.1326,-1.0972,-1.0777,-1.082,-1.0922,-1.0972,-1.0913,-1.0659,-1.0146,-0.9472,-0.9008,-0.8685,-0.8527,-0.8527,-0.8573,-0.8633,-0.8837,-0.9099,-0.9256,-0.9361,-1.7856,-1.7833,-1.7794,-1.7789,-1.7749,-1.7743,-1.7772,-1.7839,-1.7816,-1.7861,-1.7922,-1.7961,-1.7983,-1.7988,-1.8009,-1.7154,-1.5837,-1.5718,-1.5169,-1.4229,-1.365,-1.3277,-1.3119,-1.3012,-1.2922,-1.2922,-1.2959,-1.2961,-1.2942,-1.2885,-1.2792,-1.2604,-1.2388,-1.1769,-1.0941,-1.0561,-1.0179,-0.972,-0.9298,-0.9194,-0.9145,-0.8431,-0.7637,-0.7004,-0.6221,-0.5786,-0.5722,-0.6626,-0.7315,-0.7717,-0.8028,-0.806,-0.7859,-0.7608,-0.7353,-0.7145,-0.6948,-0.6798,-0.6772,-0.6947,-0.7124,-0.7158,-0.7346,-0.7678,-0.797,-0.829,-0.8495,-0.8776,-0.9065,-0.9076,-0.8779,-0.8795,-0.8815,-0.8865,-0.8919,-0.9073,-0.9426,-0.9947,-1.0282,-1.0452,-1.0642,-1.0877,-1.1122,-1.1214,-1.1435,-1.1827,-1.1874,-1.2025,-1.2273,-1.2388,-1.2436,-1.2483,-1.2372,-1.2067,-1.1719,-1.1377,-1.0972,-1.0871,-1.0871,-1.0922,-1.0972,-1.1023,-1.0871,-1.0249,-0.9584,-0.9159,-0.8844,-0.8692,-0.8639,-0.8633,-0.8685,-0.8896,-0.9106,-0.9152,-0.9309,-1.7983,-1.7883,-1.7833,-1.7772,-1.7687,-1.7658,-1.7658,-1.7749,-1.7839,-1.7927,-1.8027,-1.8151,-1.8142,-1.8125,-1.7983,-1.7119,-1.5929,-1.5618,-1.4863,-1.3803,-1.3362,-1.3277,-1.3172,-1.3066,-1.2995,-1.2961,-1.3066,-1.3031,-1.2906,-1.2813,-1.2642,-1.2347,-1.2056,-1.1512,-1.0754,-1.0335,-1.0065,-0.9636,-0.9236,-0.918,-0.9177,-0.8051,-0.7158,-0.6756,-0.5853,-0.5244,-0.5203,-0.5726,-0.6448,-0.7333,-0.7677,-0.7734,-0.753,-0.7116,-0.6786,-0.6551,-0.626,-0.6199,-0.6168,-0.6361,-0.6486,-0.6679,-0.6867,-0.7033,-0.763,-0.7931,-0.8191,-0.8527,-0.8838,-0.8874,-0.8671,-0.8811,-0.8973,-0.8888,-0.903,-0.9354,-1.0019,-1.033,-1.048,-1.0745,-1.0925,-1.0997,-1.112,-1.106,-1.1151,-1.128,-1.1318,-1.1588,-1.1796,-1.1995,-1.2101,-1.212,-1.2052,-1.1804,-1.1407,-1.1099,-1.0702,-1.0454,-1.0506,-1.0608,-1.082,-1.0922,-1.0879,-1.0257,-0.9681,-0.9316,-0.9054,-0.885,-0.8745,-0.8798,-0.885,-0.8962,-0.9113,-0.9204,-0.9309,-1.8087,-1.7966,-1.7856,-1.7749,-1.7687,-1.7635,-1.7658,-1.7789,-1.79,-1.8014,-1.8125,-1.8284,-1.7974,-1.75,-1.7391,-1.6503,-1.5328,-1.4983,-1.4452,-1.3582,-1.3396,-1.3311,-1.3207,-1.3172,-1.3136,-1.3118,-1.3119,-1.3066,-1.2836,-1.2649,-1.2396,-1.2014,-1.1738,-1.1395,-1.0892,-1.0597,-1.027,-0.9904,-0.9578,-0.9229,-0.8844,-0.8042,-0.7181,-0.6497,-0.5777,-0.5251,-0.5036,-0.5545,-0.6271,-0.7111,-0.7386,-0.7392,-0.7235,-0.6807,-0.6482,-0.6337,-0.6122,-0.6036,-0.616,-0.6307,-0.6474,-0.6725,-0.6966,-0.7251,-0.7592,-0.8019,-0.8242,-0.8464,-0.8704,-0.8925,-0.8931,-0.9142,-0.9402,-0.9797,-0.9564,-0.9559,-0.9862,-1.0099,-1.0262,-1.0343,-1.0462,-1.0656,-1.0849,-1.0935,-1.1031,-1.133,-1.1364,-1.1421,-1.1591,-1.1525,-1.1595,-1.1554,-1.1473,-1.1271,-1.1037,-1.0772,-1.0431,-1.0079,-0.9984,-1.0087,-1.0352,-1.0565,-1.0522,-1.0265,-0.9681,-0.9256,-0.9106,-0.8949,-0.8956,-0.8903,-0.8956,-0.9061,-0.9263,-0.9458,-0.9524,-1.8239,-1.8074,-1.7922,-1.7794,-1.7704,-1.7606,-1.7606,-1.7698,-1.7878,-1.7808,-1.7748,-1.7857,-1.7514,-1.6796,-1.6743,-1.6009,-1.4882,-1.471,-1.428,-1.3613,-1.3429,-1.3312,-1.3208,-1.3208,-1.319,-1.3136,-1.3085,-1.2887,-1.2626,-1.238,-1.202,-1.1666,-1.1378,-1.1118,-1.0821,-1.0621,-1.0386,-1.0085,-0.9814,-0.9461,-0.8973,-0.8189,-0.7544,-0.6905,-0.6307,-0.583,-0.5602,-0.5856,-0.6364,-0.695,-0.7158,-0.7156,-0.7098,-0.6656,-0.636,-0.6237,-0.6021,-0.5998,-0.6222,-0.6421,-0.6678,-0.6978,-0.7285,-0.7559,-0.7842,-0.8169,-0.8319,-0.8339,-0.8668,-0.8865,-0.8944,-0.9288,-0.9805,-1.0253,-1.0108,-0.9922,-1.0019,-1.0117,-1.0166,-1.0205,-1.0254,-1.0391,-1.0665,-1.0685,-1.0853,-1.1041,-1.102,-1.1158,-1.1283,-1.1142,-1.1012,-1.1022,-1.0849,-1.0641,-1.0485,-1.0269,-1.0061,-0.9681,-0.9465,-0.9517,-0.9829,-1.0146,-1.0095,-0.9947,-0.9577,-0.9309,-0.9106,-0.9001,-0.8903,-0.8903,-0.9008,-0.9211,-0.9465,-0.9569,-0.9629,-1.8408,-1.8225,-1.7992,-1.7839,-1.7704,-1.7576,-1.7529,-1.7566,-1.7659,-1.7458,-1.7084,-1.7108,-1.6729,-1.608,-1.6028,-1.5591,-1.4757,-1.4586,-1.4224,-1.3728,-1.3494,-1.3329,-1.3244,-1.3208,-1.3156,-1.3049,-1.2942,-1.2665,-1.2352,-1.1993,-1.1666,-1.1324,-1.1038,-1.0839,-1.0656,-1.0485,-1.0349,-1.0199,-0.9957,-0.9646,-0.9215,-0.8526,-0.7947,-0.7502,-0.7017,-0.6676,-0.649,-0.649,-0.6727,-0.7332,-0.7017,-0.7036,-0.7132,-0.6747,-0.6413,-0.6252,-0.6168,-0.6168,-0.6421,-0.6738,-0.702,-0.7413,-0.7753,-0.8004,-0.8283,-0.8467,-0.8535,-0.8489,-0.8727,-0.8889,-0.9003,-0.9508,-1.0144,-1.0634,-1.0568,-1.0495,-1.039,-1.0351,-1.0322,-1.0322,-1.0312,-1.0351,-1.039,-1.0418,-1.0497,-1.0845,-1.0765,-1.0785,-1.0791,-1.0634,-1.0517,-1.049,-1.0259,-0.9985,-0.9881,-0.9768,-0.9575,-0.9341,-0.9033,-0.9001,-0.9302,-0.9569,-0.9621,-0.9569,-0.9361,-0.9211,-0.9106,-0.9001,-0.8956,-0.9054,-0.9256,-0.9413,-0.9614,-0.9621,-0.9681,-1.8585,-1.8345,-1.8155,-1.7944,-1.7789,-1.7629,-1.7595,-1.758,-1.7173,-1.6963,-1.6866,-1.6514,-1.5923,-1.5255,-1.5221,-1.4837,-1.4241,-1.4108,-1.387,-1.3723,-1.3543,-1.3412,-1.3295,-1.3208,-1.3085,-1.2942,-1.2759,-1.2435,-1.2035,-1.1732,-1.14,-1.1038,-1.092,-1.0753,-1.0632,-1.0608,-1.0485,-1.0324,-1.011,-0.9816,-0.9475,-0.8947,-0.8405,-0.794,-0.7473,-0.7326,-0.7383,-0.7393,-0.7622,-0.7846,-0.7556,-0.7311,-0.7357,-0.7056,-0.6786,-0.6695,-0.6617,-0.6669,-0.6978,-0.7355,-0.7734,-0.807,-0.8372,-0.869,-0.8889,-0.8987,-0.9015,-0.8971,-0.9018,-0.9169,-0.95,-1.0267,-1.0703,-1.0908,-1.1009,-1.1035,-1.0964,-1.0582,-1.039,-1.039,-1.0428,-1.0457,-1.0611,-1.0582,-1.0621,-1.0649,-1.0592,-1.0478,-1.0351,-1.0191,-1.0049,-1.0002,-0.9615,-0.9375,-0.9392,-0.9317,-0.9184,-0.8926,-0.8659,-0.8474,-0.8784,-0.904,-0.9145,-0.9204,-0.9211,-0.9106,-0.9054,-0.9054,-0.9008,-0.9256,-0.951,-0.9725,-0.9888,-0.9836,-0.9792,-1.8789,-1.8581,-1.8287,-1.7893,-1.7433,-1.7204,-1.6953,-1.666,-1.6373,-1.6067,-1.5824,-1.5539,-1.5087,-1.442,-1.4418,-1.4222,-1.4018,-1.3894,-1.3851,-1.3761,-1.3606,-1.3446,-1.3244,-1.3051,-1.2869,-1.2759,-1.253,-1.2195,-1.1839,-1.1549,-1.1256,-1.0968,-1.092,-1.092,-1.0873,-1.0873,-1.0825,-1.0705,-1.0436,-1.0122,-0.9803,-0.9463,-0.9153,-0.8702,-0.8333,-0.818,-0.8388,-0.8142,-0.8292,-0.8442,-0.8225,-0.7893,-0.7808,-0.753,-0.7294,-0.7225,-0.7266,-0.7394,-0.7724,-0.8096,-0.8434,-0.8756,-0.8981,-0.9128,-0.9271,-0.9351,-0.9351,-0.9298,-0.9317,-0.9482,-0.9974,-1.0202,-1.069,-1.1138,-1.1142,-1.1133,-1.1191,-1.0888,-1.0582,-1.0649,-1.0649,-1.0764,-1.084,-1.0812,-1.0899,-1.1023,-1.0687,-1.0564,-1.0332,-1.0165,-0.9621,-0.9374,-0.8956,-0.8763,-0.892,-0.8897,-0.8772,-0.8528,-0.8249,-0.8103,-0.815,-0.8408,-0.8626,-0.8784,-0.8949,-0.9001,-0.8949,-0.9001,-0.9263,-0.9517,-0.9769,-1.0043,-1.0154,-1.0154,-1.0102,-1.8838,-1.8592,-1.8169,-1.7539,-1.6866,-1.6591,-1.6184,-1.5657,-1.546,-1.5197,-1.462,-1.4624,-1.4276,-1.3837,-1.3813,-1.39,-1.3984,-1.4026,-1.398,-1.3848,-1.3622,-1.3429,-1.3192,-1.2852,-1.2607,-1.2604,-1.2312,-1.1997,-1.1681,-1.1452,-1.127,-1.1085,-1.1099,-1.1132,-1.1224,-1.1224,-1.1178,-1.1062,-1.0777,-1.0472,-1.021,-0.9944,-0.9765,-0.9589,-0.9367,-0.9214,-0.9269,-0.9085,-0.8947,-0.9189,-0.9094,-0.8878,-0.8574,-0.8184,-0.7956,-0.7897,-0.8058,-0.8273,-0.8535,-0.8876,-0.9185,-0.9408,-0.9502,-0.9581,-0.9617,-0.9591,-0.9579,-0.9564,-0.9586,-0.9668,-1.0153,-1.0261,-1.0591,-1.1072,-1.1081,-1.1188,-1.1446,-1.1292,-1.1105,-1.0926,-1.0916,-1.0992,-1.1078,-1.1088,-1.1223,-1.1271,-1.0926,-1.0611,-1.038,-0.9991,-0.9478,-0.8926,-0.8577,-0.816,-0.8179,-0.8126,-0.8069,-0.7936,-0.7688,-0.757,-0.7528,-0.7777,-0.8043,-0.8521,-0.8685,-0.8791,-0.9047,-0.9256,-0.951,-0.9821,-1.0138,-1.0403,-1.0462,-1.047,-1.0419,-1.813,-1.7802,-1.6975,-1.6449,-1.6184,-1.6055,-1.5877,-1.5651,-1.5069,-1.4795,-1.4572,-1.4007,-1.3764,-1.3686,-1.3698,-1.3851,-1.4026,-1.4114,-1.4054,-1.3891,-1.3619,-1.3378,-1.3121,-1.2719,-1.2443,-1.2257,-1.2075,-1.1826,-1.1586,-1.1421,-1.1339,-1.1293,-1.1376,-1.1452,-1.1482,-1.1468,-1.1415,-1.1293,-1.1038,-1.0753,-1.0485,-1.0298,-1.0185,-1.016,-1.0102,-1.0149,-1.0251,-1.0246,-1.0259,-1.0241,-1.0117,-0.9957,-0.9688,-0.9174,-0.8892,-0.881,-0.8946,-0.9135,-0.9413,-0.9661,-0.9855,-0.9944,-0.9995,-0.9983,-0.997,-0.9919,-0.9854,-0.9776,-0.9736,-0.9745,-0.986,-1.0119,-1.0651,-1.1142,-1.1429,-1.1652,-1.1976,-1.1884,-1.1516,-1.1228,-1.118,-1.1191,-1.1239,-1.125,-1.126,-1.1185,-1.0888,-1.0572,-1.0273,-0.9834,-0.9279,-0.8765,-0.825,-0.7781,-0.7475,-0.7273,-0.7191,-0.7127,-0.6976,-0.6929,-0.6913,-0.7106,-0.7456,-0.8096,-0.858,-0.8896,-0.9152,-0.9406,-0.9821,-1.0198,-1.0506,-1.082,-1.0718,-1.0667,-1.0616,-1.8053,-1.7817,-1.6819,-1.6104,-1.567,-1.5504,-1.5193,-1.4794,-1.4364,-1.4158,-1.4022,-1.3682,-1.3578,-1.3641,-1.3686,-1.3851,-1.405,-1.4181,-1.4109,-1.3902,-1.3601,-1.3328,-1.3069,-1.2659,-1.2379,-1.2195,-1.2012,-1.182,-1.1623,-1.1586,-1.1541,-1.1541,-1.1652,-1.1755,-1.1783,-1.1747,-1.1615,-1.1497,-1.1285,-1.1029,-1.0791,-1.0629,-1.0653,-1.075,-1.0774,-1.0835,-1.0849,-1.0873,-1.0835,-1.0763,-1.0702,-1.0653,-1.0483,-1.0272,-0.9919,-0.9662,-0.9727,-0.9919,-1.0135,-1.0323,-1.0398,-1.0398,-1.0411,-1.0361,-1.0273,-1.0186,-1.011,-0.9957,-0.988,-0.9828,-0.9865,-1.0049,-1.0529,-1.1161,-1.139,-1.1688,-1.2119,-1.2056,-1.1774,-1.1452,-1.1351,-1.1314,-1.1373,-1.1373,-1.1271,-1.1099,-1.0888,-1.0544,-1.0196,-0.9646,-0.9088,-0.8422,-0.7832,-0.7294,-0.6886,-0.6666,-0.6464,-0.6383,-0.6406,-0.6354,-0.6581,-0.6881,-0.7368,-0.7937,-0.8362,-0.885,-0.9211,-0.9517,-1.0043,-1.0514,-1.082,-1.0972,-1.0922,-1.0871,-1.0769,-1.7854,-1.7544,-1.6501,-1.5695,-1.5117,-1.492,-1.4526,-1.4018,-1.3859,-1.3798,-1.3684,-1.3591,-1.3593,-1.3641,-1.3748,-1.3941,-1.4132,-1.4203,-1.415,-1.3934,-1.3619,-1.3312,-1.3018,-1.2681,-1.2359,-1.2179,-1.2091,-1.1869,-1.174,-1.174,-1.1747,-1.1762,-1.1869,-1.1949,-1.197,-1.1826,-1.1747,-1.1608,-1.1452,-1.1285,-1.1178,-1.1155,-1.1224,-1.1384,-1.1339,-1.1316,-1.1279,-1.1316,-1.127,-1.1187,-1.1164,-1.1164,-1.1118,-1.1141,-1.0916,-1.0508,-1.0483,-1.0581,-1.0715,-1.0825,-1.0859,-1.0849,-1.0801,-1.0681,-1.0534,-1.0386,-1.0186,-1.0021,-0.9919,-0.988,-0.9854,-0.984,-1.0358,-1.1001,-1.1228,-1.1327,-1.2024,-1.2138,-1.1785,-1.1575,-1.1474,-1.1362,-1.1298,-1.1212,-1.1088,-1.0937,-1.0725,-1.038,-0.9991,-0.9448,-0.8822,-0.804,-0.7426,-0.6793,-0.641,-0.6095,-0.594,-0.5783,-0.5923,-0.6025,-0.6369,-0.6776,-0.7312,-0.7871,-0.8368,-0.885,-0.9211,-0.9629,-1.0154,-1.0616,-1.0972,-1.1124,-1.0972,-1.0871,-1.0769,-1.6836,-1.5999,-1.505,-1.455,-1.4446,-1.4373,-1.4266,-1.4168,-1.4068,-1.4012,-1.3927,-1.3759,-1.3682,-1.3746,-1.3941,-1.4109,-1.4234,-1.426,-1.4195,-1.3984,-1.3667,-1.3345,-1.3069,-1.2681,-1.2407,-1.2246,-1.2174,-1.2012,-1.1869,-1.1848,-1.1891,-1.1949,-1.1891,-1.1912,-1.1949,-1.1762,-1.1608,-1.1511,-1.1444,-1.1466,-1.1512,-1.1564,-1.1593,-1.1725,-1.1665,-1.1637,-1.163,-1.1659,-1.1674,-1.1615,-1.1615,-1.1571,-1.1468,-1.1445,-1.146,-1.1384,-1.1293,-1.1201,-1.1262,-1.1285,-1.127,-1.1224,-1.1132,-1.1015,-1.0801,-1.0498,-1.0211,-0.9995,-0.988,-0.9802,-0.9814,-0.9787,-1.0312,-1.0814,-1.119,-1.1545,-1.2107,-1.1957,-1.1627,-1.1367,-1.1153,-1.1115,-1.105,-1.0964,-1.0878,-1.0725,-1.0524,-1.0176,-0.9707,-0.9079,-0.8349,-0.7517,-0.6904,-0.6308,-0.5991,-0.5694,-0.5576,-0.5357,-0.5587,-0.5878,-0.6294,-0.681,-0.7317,-0.7913,-0.8408,-0.885,-0.9211,-0.9681,-1.0205,-1.0565,-1.082,-1.0913,-1.0913,-1.082,-1.0718,-1.6309,-1.5774,-1.4853,-1.4453,-1.4411,-1.4344,-1.4312,-1.4286,-1.4203,-1.4123,-1.404,-1.3894,-1.3833,-1.3909,-1.405,-1.4177,-1.4286,-1.4304,-1.4226,-1.4012,-1.3713,-1.3445,-1.3158,-1.2815,-1.251,-1.2363,-1.2241,-1.2112,-1.197,-1.1949,-1.2012,-1.197,-1.1891,-1.1826,-1.1826,-1.163,-1.1541,-1.1511,-1.1541,-1.1725,-1.1828,-1.1678,-1.1658,-1.2118,-1.1698,-1.1683,-1.1896,-1.2003,-1.1997,-1.1933,-1.1933,-1.1869,-1.1768,-1.1747,-1.1783,-1.1725,-1.1718,-1.163,-1.1541,-1.1519,-1.1519,-1.1511,-1.1399,-1.127,-1.1005,-1.0621,-1.0299,-1.011,-0.9905,-0.9802,-0.9823,-0.9978,-1.0473,-1.0919,-1.1141,-1.1556,-1.1849,-1.1603,-1.1394,-1.1132,-1.0867,-1.0764,-1.0697,-1.0621,-1.0534,-1.0428,-1.0186,-0.9834,-0.9231,-0.8513,-0.7724,-0.6852,-0.6319,-0.5831,-0.5581,-0.5345,-0.5404,-0.533,-0.5626,-0.5927,-0.6334,-0.6873,-0.7448,-0.7935,-0.8468,-0.8844,-0.9159,-0.9569,-0.9984,-1.03,-1.0557,-1.0557,-1.0506,-1.0608,-1.0565,-1.5941,-1.5586,-1.484,-1.4522,-1.4529,-1.4447,-1.4435,-1.4417,-1.4337,-1.4229,-1.4136,-1.4009,-1.398,-1.405,-1.4132,-1.4224,-1.4324,-1.433,-1.4208,-1.3995,-1.3743,-1.3461,-1.3175,-1.2871,-1.2604,-1.2419,-1.2236,-1.2054,-1.197,-1.1912,-1.1869,-1.1869,-1.1711,-1.1652,-1.1564,-1.1452,-1.1376,-1.1541,-1.1703,-1.1875,-1.1924,-1.1593,-1.1637,-1.1722,-1.1653,-1.1546,-1.1987,-1.232,-1.2327,-1.2287,-1.2282,-1.2205,-1.2081,-1.2039,-1.2018,-1.1997,-1.1976,-1.1955,-1.1811,-1.1747,-1.1696,-1.1645,-1.1534,-1.1376,-1.0991,-1.0632,-1.0336,-1.0161,-0.988,-0.9736,-0.9741,-0.9984,-1.0327,-1.0743,-1.1106,-1.1469,-1.1701,-1.1339,-1.1057,-1.0753,-1.0495,-1.0312,-1.0244,-1.0196,-1.0118,-1.0088,-0.9853,-0.9487,-0.8797,-0.7979,-0.7314,-0.652,-0.6099,-0.5723,-0.5545,-0.5366,-0.5275,-0.5407,-0.575,-0.6097,-0.6563,-0.7037,-0.7611,-0.8126,-0.8528,-0.8745,-0.9008,-0.9361,-0.971,-0.9873,-1.0035,-1.0043,-1.0102,-1.0198,-1.0308,-1.5713,-1.4926,-1.4695,-1.4592,-1.4589,-1.4511,-1.4494,-1.4483,-1.4471,-1.4387,-1.4273,-1.4168,-1.4105,-1.419,-1.4255,-1.4324,-1.438,-1.4324,-1.419,-1.398,-1.3713,-1.3428,-1.3141,-1.2836,-1.2514,-1.2266,-1.2096,-1.1912,-1.1747,-1.1593,-1.1593,-1.1593,-1.1429,-1.1362,-1.1316,-1.127,-1.1384,-1.1608,-1.1828,-1.1792,-1.1711,-1.1455,-1.1333,-1.1042,-1.1298,-1.1633,-1.1768,-1.2383,-1.2719,-1.27,-1.2642,-1.2506,-1.2347,-1.2287,-1.2246,-1.2205,-1.219,-1.2169,-1.2128,-1.1961,-1.1869,-1.1805,-1.163,-1.1376,-1.1005,-1.0656,-1.0386,-1.0122,-0.9828,-0.9617,-0.9575,-0.9711,-1.0137,-1.0371,-1.0732,-1.1031,-1.1126,-1.0939,-1.0639,-1.039,-1.0205,-1.0098,-0.9892,-0.9843,-0.9725,-0.9704,-0.9279,-0.8918,-0.83,-0.7565,-0.7034,-0.6447,-0.6019,-0.5766,-0.5717,-0.5669,-0.5707,-0.5874,-0.6135,-0.6478,-0.6814,-0.7319,-0.7779,-0.8127,-0.8469,-0.8672,-0.8864,-0.9159,-0.9361,-0.9465,-0.9517,-0.9681,-0.9732,-0.9777,-0.994,-1.5285,-1.4883,-1.4776,-1.4666,-1.4589,-1.4522,-1.4488,-1.4488,-1.4483,-1.4453,-1.4367,-1.4255,-1.426,-1.4312,-1.4344,-1.4368,-1.4399,-1.4331,-1.419,-1.3995,-1.3743,-1.3461,-1.3141,-1.2746,-1.2416,-1.2128,-1.1933,-1.1696,-1.1437,-1.1279,-1.1118,-1.1085,-1.1085,-1.1108,-1.1085,-1.1256,-1.1527,-1.1704,-1.1788,-1.1701,-1.1642,-1.0909,-1.0687,-1.1013,-1.0986,-1.1514,-1.1959,-1.2654,-1.2916,-1.2977,-1.2887,-1.2738,-1.2604,-1.253,-1.2487,-1.2407,-1.2431,-1.2435,-1.2412,-1.2226,-1.2012,-1.1805,-1.1608,-1.1353,-1.1005,-1.0656,-1.0361,-1.0085,-0.9776,-0.9538,-0.9368,-0.9681,-1.0067,-1.0123,-1.0281,-1.0567,-1.0575,-1.0417,-1.0341,-1.0157,-1.0049,-0.998,-0.9774,-0.9567,-0.9417,-0.9266,-0.8805,-0.83,-0.7731,-0.7273,-0.6816,-0.6483,-0.6099,-0.5976,-0.5933,-0.6013,-0.6136,-0.6318,-0.6557,-0.6737,-0.6995,-0.7363,-0.7798,-0.811,-0.8454,-0.8665,-0.8857,-0.8956,-0.9061,-0.9159,-0.9263,-0.9368,-0.9413,-0.9413,-0.9569,-1.5061,-1.4938,-1.4831,-1.4717,-1.4611,-1.4533,-1.4499,-1.4488,-1.4494,-1.4477,-1.4435,-1.4374,-1.4374,-1.4417,-1.4393,-1.4393,-1.4387,-1.4293,-1.415,-1.3938,-1.3684,-1.3379,-1.3,-1.2594,-1.2195,-1.1903,-1.1637,-1.1384,-1.1094,-1.0968,-1.0825,-1.0729,-1.0767,-1.0863,-1.1038,-1.1378,-1.1753,-1.1964,-1.1806,-1.1563,-1.1527,-1.0695,-1.022,-1.0832,-1.0994,-1.1567,-1.2228,-1.2905,-1.3244,-1.3244,-1.3123,-1.298,-1.2855,-1.2781,-1.2741,-1.2719,-1.2719,-1.2743,-1.2665,-1.2407,-1.2096,-1.1805,-1.1578,-1.1293,-1.0968,-1.0559,-1.0248,-0.9957,-0.9684,-0.9378,-0.9138,-0.9393,-0.9539,-0.9531,-0.9903,-1.0157,-1.0128,-1.0021,-0.9991,-0.9932,-0.9862,-0.9753,-0.9496,-0.9248,-0.8975,-0.8781,-0.8365,-0.7946,-0.753,-0.7112,-0.681,-0.652,-0.6264,-0.6221,-0.6227,-0.6349,-0.6477,-0.6575,-0.6759,-0.6841,-0.7095,-0.7478,-0.778,-0.8032,-0.8346,-0.8645,-0.8804,-0.8857,-0.891,-0.8956,-0.9061,-0.9113,-0.9211,-0.9211,-0.9368,-1.5133,-1.498,-1.4854,-1.4729,-1.4595,-1.4537,-1.4492,-1.4499,-1.4488,-1.4494,-1.4501,-1.4441,-1.4441,-1.4471,-1.4434,-1.4326,-1.4217,-1.4183,-1.3993,-1.3649,-1.3442,-1.3107,-1.2706,-1.2296,-1.1882,-1.149,-1.1233,-1.1015,-1.0729,-1.067,-1.0548,-1.0534,-1.0645,-1.0777,-1.091,-1.1482,-1.1988,-1.2289,-1.1982,-1.1576,-1.1228,-1.0514,-1.0226,-1.0551,-1.1045,-1.1702,-1.2505,-1.3223,-1.3539,-1.3526,-1.3412,-1.3312,-1.3227,-1.3123,-1.3071,-1.3037,-1.3051,-1.3049,-1.303,-1.2581,-1.2164,-1.1783,-1.1541,-1.1164,-1.0715,-1.0348,-1.0034,-0.9724,-0.942,-0.9092,-0.8974,-0.8953,-0.8974,-0.9066,-0.9421,-0.9549,-0.9509,-0.9549,-0.9527,-0.9655,-0.9585,-0.9435,-0.9177,-0.8886,-0.8537,-0.8258,-0.7927,-0.7587,-0.7293,-0.7118,-0.6943,-0.6774,-0.6562,-0.6605,-0.6653,-0.6738,-0.6823,-0.6907,-0.694,-0.6993,-0.722,-0.7557,-0.7815,-0.7961,-0.83,-0.8758,-0.8804,-0.8804,-0.8752,-0.8752,-0.8804,-0.891,-0.8956,-0.9061,-0.9218,-1.5231,-1.5127,-1.4989,-1.4857,-1.4726,-1.4571,-1.4492,-1.4499,-1.4511,-1.4515,-1.4567,-1.4537,-1.4549,-1.4537,-1.4393,-1.4153,-1.372,-1.4069,-1.386,-1.2946,-1.2974,-1.2757,-1.2368,-1.193,-1.1534,-1.121,-1.0944,-1.0729,-1.051,-1.0424,-1.0388,-1.0399,-1.0845,-1.1103,-1.1341,-1.1803,-1.2325,-1.2482,-1.1975,-1.1358,-1.1252,-1.0371,-0.995,-1.0508,-1.1194,-1.1935,-1.2816,-1.3556,-1.3798,-1.3791,-1.3652,-1.3556,-1.3477,-1.3362,-1.3329,-1.3261,-1.3226,-1.3121,-1.294,-1.2565,-1.2246,-1.1833,-1.1437,-1.1034,-1.0532,-1.0135,-0.9802,-0.9458,-0.9127,-0.8849,-0.8744,-0.8646,-0.8602,-0.851,-0.8677,-0.8778,-0.8814,-0.8926,-0.9047,-0.9297,-0.9355,-0.9386,-0.9217,-0.8935,-0.8578,-0.825,-0.7961,-0.7628,-0.7335,-0.7335,-0.7202,-0.7125,-0.6999,-0.7034,-0.7034,-0.7034,-0.695,-0.6907,-0.6996,-0.7105,-0.7381,-0.7616,-0.7943,-0.817,-0.8497,-0.8804,-0.8745,-0.8639,-0.8586,-0.854,-0.8646,-0.8752,-0.8903,-0.9008,-0.9113,-1.5263,-1.5182,-1.5061,-1.4925,-1.4785,-1.4614,-1.4515,-1.4492,-1.4526,-1.4563,-1.4616,-1.4656,-1.4656,-1.4542,-1.4222,-1.3875,-1.3186,-1.3093,-1.3208,-1.2286,-1.2323,-1.2237,-1.1969,-1.1586,-1.121,-1.0897,-1.0608,-1.0374,-1.0261,-1.0186,-1.0348,-1.0736,-1.1253,-1.17,-1.1994,-1.2395,-1.2753,-1.2807,-1.2393,-1.1829,-1.1429,-1.0787,-1.0356,-1.0995,-1.165,-1.2268,-1.3214,-1.3787,-1.4078,-1.3995,-1.3891,-1.3768,-1.3696,-1.362,-1.3559,-1.3477,-1.3312,-1.3139,-1.2832,-1.2514,-1.2133,-1.1637,-1.1287,-1.0845,-1.031,-0.9893,-0.959,-0.9264,-0.8893,-0.8683,-0.8538,-0.8406,-0.8243,-0.8136,-0.8182,-0.8269,-0.8414,-0.857,-0.8886,-0.9136,-0.9417,-0.9377,-0.9337,-0.8984,-0.8708,-0.8365,-0.807,-0.7787,-0.7545,-0.7579,-0.7663,-0.7587,-0.7461,-0.7496,-0.737,-0.7202,-0.7118,-0.6907,-0.7016,-0.7138,-0.737,-0.7649,-0.8009,-0.8323,-0.8591,-0.8732,-0.8573,-0.8527,-0.8427,-0.8434,-0.8487,-0.8646,-0.885,-0.8903,-0.8956,-1.5334,-1.5182,-1.5063,-1.4927,-1.4804,-1.4668,-1.4592,-1.4508,-1.4574,-1.4629,-1.4624,-1.4644,-1.4504,-1.4335,-1.3709,-1.3135,-1.2796,-1.2086,-1.1909,-1.1853,-1.1706,-1.1676,-1.1589,-1.1279,-1.0897,-1.0572,-1.0338,-1.0224,-1.0059,-1.0298,-1.0626,-1.1156,-1.1761,-1.2313,-1.2708,-1.3059,-1.3293,-1.33,-1.2984,-1.2472,-1.2035,-1.1241,-1.115,-1.1589,-1.2008,-1.272,-1.3566,-1.4229,-1.4277,-1.4201,-1.4118,-1.4042,-1.3995,-1.3947,-1.3824,-1.3653,-1.3412,-1.307,-1.2703,-1.2376,-1.1915,-1.1423,-1.1034,-1.0532,-1.0059,-0.969,-0.9424,-0.9131,-0.8818,-0.8594,-0.8415,-0.8172,-0.7929,-0.789,-0.7868,-0.8016,-0.8234,-0.8488,-0.8805,-0.9128,-0.9478,-0.9597,-0.9607,-0.9337,-0.9136,-0.8935,-0.8716,-0.8513,-0.8267,-0.8152,-0.8193,-0.816,-0.8077,-0.7953,-0.7787,-0.7412,-0.7125,-0.6872,-0.7026,-0.7174,-0.7405,-0.7736,-0.8185,-0.8545,-0.8696,-0.8712,-0.862,-0.8421,-0.8268,-0.8268,-0.8215,-0.8421,-0.8633,-0.8692,-0.8745,-1.5345,-1.5255,-1.5126,-1.5011,-1.4867,-1.4776,-1.469,-1.465,-1.4691,-1.4511,-1.3982,-1.4065,-1.3777,-1.3055,-1.2689,-1.2105,-1.1691,-1.1382,-1.1172,-1.1058,-1.1037,-1.1167,-1.1123,-1.092,-1.0559,-1.0374,-1.0224,-1.0186,-1.0286,-1.0508,-1.1125,-1.1755,-1.2342,-1.2941,-1.3413,-1.3789,-1.389,-1.3841,-1.3472,-1.3146,-1.2566,-1.1706,-1.178,-1.1928,-1.2141,-1.2844,-1.3545,-1.4327,-1.4407,-1.435,-1.4289,-1.4201,-1.4145,-1.4023,-1.3862,-1.351,-1.3244,-1.2959,-1.2526,-1.2169,-1.1732,-1.1196,-1.075,-1.0285,-0.985,-0.9521,-0.9262,-0.892,-0.8723,-0.8515,-0.8281,-0.8048,-0.7858,-0.7797,-0.7837,-0.8072,-0.8316,-0.8716,-0.907,-0.9549,-0.9903,-1.0099,-1.0069,-0.9913,-0.9716,-0.9567,-0.9368,-0.9191,-0.899,-0.8837,-0.8683,-0.8602,-0.8488,-0.8357,-0.787,-0.7454,-0.7125,-0.6898,-0.7022,-0.7255,-0.7649,-0.8044,-0.8459,-0.8799,-0.8978,-0.8823,-0.8626,-0.8474,-0.8321,-0.7996,-0.7937,-0.8203,-0.8415,-0.8474,-0.848,-1.5365,-1.5283,-1.5149,-1.5028,-1.4887,-1.4522,-1.436,-1.4354,-1.4388,-1.3975,-1.3334,-1.3286,-1.2995,-1.249,-1.2008,-1.1407,-1.0821,-1.0392,-1.0273,-1.064,-1.0455,-1.0764,-1.0799,-1.0743,-1.0498,-1.0336,-1.0336,-1.0411,-1.0629,-1.117,-1.1776,-1.2399,-1.2958,-1.3514,-1.3969,-1.4293,-1.4426,-1.4346,-1.4109,-1.3794,-1.3102,-1.2293,-1.2151,-1.2151,-1.2304,-1.2755,-1.343,-1.4231,-1.4571,-1.453,-1.4456,-1.4356,-1.4224,-1.4005,-1.3741,-1.3395,-1.307,-1.2703,-1.2271,-1.1854,-1.1437,-1.1001,-1.0483,-1.0008,-0.9656,-0.9313,-0.8974,-0.8643,-0.8522,-0.8388,-0.8185,-0.796,-0.7855,-0.7743,-0.7964,-0.8226,-0.8626,-0.9062,-0.9531,-1.004,-1.0399,-1.0639,-1.0649,-1.0457,-1.0302,-1.0147,-1.0,-0.9834,-0.9597,-0.9417,-0.9168,-0.8999,-0.8805,-0.8643,-0.807,-0.7496,-0.7125,-0.6901,-0.6988,-0.7296,-0.7815,-0.8345,-0.8762,-0.9059,-0.9287,-0.9152,-0.904,-0.8679,-0.8421,-0.809,-0.7824,-0.7877,-0.8096,-0.815,-0.8203,-1.5358,-1.5291,-1.516,-1.5005,-1.4794,-1.4073,-1.3679,-1.3597,-1.3518,-1.3195,-1.2579,-1.251,-1.2385,-1.1843,-1.127,-1.0822,-1.0241,-0.968,-0.9812,-1.0302,-1.0013,-1.0291,-1.085,-1.0815,-1.0656,-1.0559,-1.0653,-1.0922,-1.1216,-1.1794,-1.248,-1.3075,-1.3538,-1.4034,-1.446,-1.4701,-1.4833,-1.4848,-1.4722,-1.4486,-1.3796,-1.3083,-1.2489,-1.2418,-1.2532,-1.2816,-1.3516,-1.4208,-1.4859,-1.4727,-1.4614,-1.4499,-1.4224,-1.3934,-1.3603,-1.3261,-1.2928,-1.2514,-1.2066,-1.163,-1.121,-1.0777,-1.0261,-0.9893,-0.955,-0.9271,-0.8942,-0.864,-0.8517,-0.8379,-0.8181,-0.8252,-0.8181,-0.8285,-0.8529,-0.8933,-0.9433,-0.9973,-1.0616,-1.1052,-1.1297,-1.1494,-1.1431,-1.1271,-1.1046,-1.0829,-1.0582,-1.0418,-1.0196,-0.9971,-0.9616,-0.9319,-0.9047,-0.8724,-0.8062,-0.7489,-0.7083,-0.6927,-0.7045,-0.7406,-0.8017,-0.8525,-0.9041,-0.9468,-0.988,-0.9718,-0.9555,-0.9197,-0.883,-0.8461,-0.8143,-0.7777,-0.7777,-0.783,-0.7777,-1.5355,-1.528,-1.5166,-1.4718,-1.4088,-1.3878,-1.3003,-1.1944,-1.1952,-1.1889,-1.1716,-1.169,-1.139,-1.0803,-1.0462,-1.0082,-0.9672,-0.9342,-0.9551,-0.9876,-0.9811,-1.0079,-1.0954,-1.0893,-1.0847,-1.0973,-1.1185,-1.161,-1.2058,-1.2633,-1.3168,-1.3712,-1.413,-1.4522,-1.4828,-1.5016,-1.5108,-1.5171,-1.5006,-1.4941,-1.4596,-1.3415,-1.2566,-1.2588,-1.2672,-1.2655,-1.3339,-1.4213,-1.4669,-1.4785,-1.4656,-1.4446,-1.415,-1.3848,-1.354,-1.321,-1.2783,-1.234,-1.1924,-1.1474,-1.1062,-1.0691,-1.0273,-0.9893,-0.9557,-0.9306,-0.9021,-0.8696,-0.8505,-0.8369,-0.8354,-0.8467,-0.8691,-0.8893,-0.9204,-0.9748,-1.0282,-1.1031,-1.1743,-1.202,-1.2223,-1.2234,-1.2198,-1.2018,-1.1825,-1.1542,-1.1217,-1.0916,-1.0649,-1.0428,-0.9941,-0.9616,-0.9177,-0.8724,-0.8062,-0.7614,-0.7251,-0.7228,-0.7379,-0.7781,-0.82,-0.9014,-0.9753,-1.0167,-1.0498,-1.0399,-1.023,-0.9865,-0.9451,-0.9079,-0.8514,-0.8143,-0.7557,-0.745,-0.7295,-1.4762,-1.4707,-1.4613,-1.429,-1.3755,-1.3019,-1.209,-1.1305,-1.0903,-1.0756,-1.0786,-1.082,-1.0592,-1.0053,-0.9882,-0.9659,-0.9386,-0.9078,-0.9351,-0.9637,-0.9755,-0.9931,-1.0351,-1.0871,-1.0992,-1.1162,-1.1952,-1.2495,-1.27,-1.3359,-1.3865,-1.3935,-1.4341,-1.4851,-1.5074,-1.5187,-1.5255,-1.5276,-1.4988,-1.4939,-1.4902,-1.3689,-1.2997,-1.2998,-1.2905,-1.2854,-1.3462,-1.433,-1.4711,-1.4776,-1.4606,-1.4368,-1.4074,-1.3789,-1.3476,-1.3123,-1.2706,-1.2235,-1.1811,-1.1347,-1.092,-1.0583,-1.0186,-0.9764,-0.9449,-0.9176,-0.8732,-0.843,-0.8656,-0.8594,-0.862,-0.8689,-0.9238,-0.96,-1.0195,-1.0805,-1.1465,-1.2165,-1.2625,-1.2824,-1.2953,-1.2871,-1.2779,-1.2508,-1.2282,-1.1993,-1.17,-1.1303,-1.1078,-1.0649,-1.0244,-0.9823,-0.9337,-0.8846,-0.8226,-0.7821,-0.7545,-0.7579,-0.7736,-0.8357,-0.8915,-0.9784,-1.0466,-1.0789,-1.1071,-1.1195,-1.0947,-1.0738,-1.0364,-1.0049,-0.928,-0.8508,-0.7925,-0.7337,-0.7128,-1.3848,-1.3831,-1.3765,-1.3651,-1.3348,-1.1927,-1.1111,-1.0865,-1.0235,-0.9958,-1.0067,-1.017,-1.0095,-1.0006,-0.9853,-0.962,-0.9385,-0.9099,-0.9267,-0.9468,-0.9416,-0.984,-1.0233,-1.0599,-1.0903,-1.1447,-1.2166,-1.2435,-1.2585,-1.3225,-1.3579,-1.3686,-1.4277,-1.4989,-1.5171,-1.5232,-1.526,-1.4922,-1.4678,-1.4625,-1.4223,-1.369,-1.3473,-1.3356,-1.3354,-1.3242,-1.3888,-1.4492,-1.4885,-1.4776,-1.4545,-1.4252,-1.3991,-1.3713,-1.3378,-1.3035,-1.2553,-1.2113,-1.1681,-1.1155,-1.0801,-1.0436,-1.0034,-0.9698,-0.9408,-0.9031,-0.8572,-0.857,-0.879,-0.89,-0.8908,-0.9291,-0.982,-1.0436,-1.1153,-1.1913,-1.2601,-1.3259,-1.3441,-1.3648,-1.3581,-1.3547,-1.3276,-1.3,-1.2697,-1.2437,-1.2077,-1.1723,-1.1276,-1.0736,-1.0244,-0.9853,-0.9426,-0.8886,-0.8316,-0.8028,-0.7795,-0.8012,-0.8236,-0.8941,-0.961,-1.0359,-1.0928,-1.1241,-1.1477,-1.1777,-1.1962,-1.1855,-1.1466,-1.1048,-1.0254,-0.9429,-0.8652,-0.8072,-0.7337,-1.3027,-1.3005,-1.2948,-1.2518,-1.1815,-1.1283,-1.0693,-1.0038,-0.9838,-0.9806,-0.9915,-0.9994,-1.0019,-1.0011,-0.9811,-0.9576,-0.935,-0.9116,-0.936,-0.9663,-0.9474,-0.988,-1.0284,-1.0535,-1.098,-1.1529,-1.2012,-1.2095,-1.2298,-1.2664,-1.3187,-1.3734,-1.3915,-1.4584,-1.528,-1.5236,-1.4931,-1.4448,-1.4117,-1.4021,-1.3898,-1.357,-1.3506,-1.3591,-1.3895,-1.3822,-1.4084,-1.4632,-1.4847,-1.4813,-1.4523,-1.4188,-1.3891,-1.3622,-1.3278,-1.2875,-1.2396,-1.1967,-1.1512,-1.1001,-1.0656,-1.0399,-1.0008,-0.9724,-0.9434,-0.919,-0.8934,-0.8995,-0.9179,-0.9234,-0.9372,-1.013,-1.0771,-1.1424,-1.2128,-1.296,-1.3709,-1.4006,-1.4214,-1.4259,-1.4241,-1.4078,-1.3802,-1.3467,-1.3069,-1.2756,-1.2294,-1.1895,-1.1292,-1.0774,-1.0283,-0.9853,-0.9466,-0.8984,-0.8455,-0.8275,-0.8089,-0.8359,-0.8781,-0.9512,-1.0216,-1.088,-1.1349,-1.1648,-1.2076,-1.2464,-1.2614,-1.2938,-1.255,-1.2083,-1.1258,-1.0458,-0.9681,-0.896,-0.833]},{"header":{"parameterUnit":"m.s-1","parameterCategory":1,"la1":31.0,"la2":29.5877,"lo1":-88.7671,"lo2":-86.6584,"dy":0.0162,"dx":0.0185,"nx":115,"ny":88,"refTime":"2023-02-24T18:00:00:Z","depth":0,"parameterNumber":3,"parameterNumberName":"V-component_of_WINDS"},"data":[0.0,0.0,0.0,0.0,0.0,0.0,0.0,0.0,0.0,0.0,0.0,0.0,0.0,0.0,0.0,0.0,0.0,0.0,0.0,0.0,0.0,0.0,0.0,0.0,0.0,0.0,0.0,0.0,0.0,0.0,0.0,0.0,0.0,0.0,0.0,0.0,0.0,0.0,0.0,0.0,0.0,0.0,0.0,0.0,0.0,0.0,0.0,0.0,0.0,0.0,0.0,0.0,0.0,0.0,0.0,0.0,0.0,0.0,0.0,0.0,0.0,0.0,0.0,0.0,0.0,0.0,0.0,0.0,0.0,0.0,0.0,0.0,0.0,0.0,0.0,0.0,0.0,0.0,0.0,0.0,0.0,0.0,0.0,0.0,0.0,0.0,0.0,0.0,0.0,0.0,0.0,0.0,0.0,0.0,0.0,0.0,0.0,0.0,0.0,0.0,0.0,0.0,0.0,0.0,0.0,0.0,0.0,0.0,0.0,0.0,0.0,0.0,0.0,0.0,0.0,0.0,0.0,0.0,0.0,0.0,0.0,0.0,0.0,0.0,0.0,0.0,0.0,0.0,0.0,0.0,0.0,0.0,0.0,0.0,0.0,0.0,0.0,0.0,0.0,0.0,0.0,0.0,0.0,0.0,0.0,0.0,0.0,0.0,0.0,0.0,0.0,0.0,0.0,0.0,0.0,0.0,0.0,0.0,0.0,0.0,0.0,0.0,0.0,0.0,0.0,0.0,0.0,0.0,0.0,0.0,0.0,0.0,0.0,0.0,0.0,0.0,0.0,0.0,0.0,0.0,0.0,0.0,0.0,0.0,0.0,0.0,0.0,0.0,0.0,0.0,0.0,0.0,0.0,0.0,0.0,0.0,0.0,0.0,0.0,0.0,0.0,0.0,0.0,0.0,0.0,0.0,0.0,0.0,0.0,0.0,0.0,0.0,0.0,0.0,0.0,0.0,0.0,0.0,0.0,0.0,0.0,0.0,0.0,0.0,0.0,0.0,0.0,0.0,0.0,0.0,0.0,0.0,0.0,0.0,0.0,0.0,0.0,0.0,0.0,0.0,0.0,0.0,0.0,0.0,0.0,0.0,0.0,0.0,0.0,0.0,0.0,0.0,0.0,0.0,0.0,0.0,0.0,0.0,0.0,0.0,0.0,0.0,0.0,0.0,0.0,0.0,0.0,0.0,0.0,0.0,0.0,0.0,0.0,0.0,0.0,0.0,0.0,0.0,0.0,0.0,0.0,0.0,0.0,0.0,0.0,0.0,0.0,0.0,0.0,0.0,0.0,0.0,0.0,0.0,0.0,0.0,0.0,0.0,0.0,0.0,0.0,0.0,0.0,0.0,0.0,0.0,0.0,0.0,0.0,0.0,0.0,0.0,0.0,0.0,0.0,0.0,0.0,0.0,0.0,0.0,0.0,0.0,0.0,0.0,0.0,0.0,0.0,0.0,0.0,0.0,0.0,0.0,0.0,0.0,0.0,0.0,0.0,0.0,0.0,0.0,0.0,0.0,0.0,0.0,0.0,0.0,0.0,0.0,0.0,0.0,0.0,0.0,0.0,0.0,0.0,0.0,0.0,0.0,0.0,0.0,0.0,0.0,0.0,0.0,0.0,0.0,0.0,0.0,0.0,0.0,0.0,0.0,0.0,0.0,0.0,0.0,0.0,0.0,0.0,0.0,0.0,0.0,0.0,0.0,0.0,0.0,0.0,0.0,0.0,0.0,0.0,0.0,0.0,0.0,0.0,0.0,0.0,0.0,0.0,0.0,0.0,0.0,0.0,0.0,0.0,0.0,0.0,0.0,0.0,0.0,0.0,0.0,0.0,0.0,0.0,0.0,0.0,0.0,0.0,0.0,0.0,0.0,0.0,0.0,0.0,0.0,0.0,0.0,0.0,0.0,0.0,0.0,0.0,0.0,0.0,0.0,0.0,0.0,0.0,0.0,0.0,0.0,0.0,0.0,0.0,0.0,0.0,0.0,0.0,0.0,0.0,0.0,0.0,0.0,0.0,0.0,0.0,0.0,0.0,0.0,0.0,0.0,0.0,0.0,0.0,0.0,0.0,0.0,0.0,0.0,0.0,0.0,0.0,0.0,0.0,0.0,0.0,0.0,0.0,0.0,0.0,0.0,0.0,0.0,0.0,0.0,0.0,0.0,0.0,0.0,0.0,0.0,0.0,0.0,0.0,0.0,0.0,0.0,0.0,0.0,0.0,0.0,0.0,0.0,0.0,0.0,0.0,0.0,0.0,0.0,0.0,0.0,0.0,0.0,0.0,0.0,0.0,0.0,0.0,0.0,0.0,0.0,0.0,0.0,0.0,0.0,0.0,0.0,0.0,0.0,0.0,0.0,0.0,0.0,0.0,0.0,0.0,0.0,0.0,0.0,0.0,0.0,0.0,0.0,0.0,0.0,0.0,0.0,0.0,0.0,0.0,0.0,0.0,0.0,0.0,0.0,0.0,0.0,0.0,0.0,0.0,0.0,0.0,0.0,0.0,0.0,0.0,0.0,0.0,0.0,0.0,0.0,0.0,0.0,0.0,0.0,0.0,0.0,0.0,0.0,0.0,0.0,0.0,0.0,0.0,0.0,0.0,0.0,0.0,0.0,0.0,0.0,0.0,0.0,0.0,0.0,0.0,0.0,0.0,0.0,0.0,0.0,0.0,0.0,0.0,0.0,0.0,0.0,0.0,0.0,0.0,0.0,0.0,0.0,0.0,0.0,0.0,0.0,0.0,0.0,0.0,0.0,0.0,0.0,0.0,0.0,0.0,0.0,0.0,0.0,0.0,0.0,0.0,0.0,0.0,0.0,0.0,0.0,0.0,0.0,0.0,0.0,0.0,0.0,0.0,0.0,0.0,0.0,0.0,0.0,0.0,0.0,0.0,0.0,0.0,0.0,0.0,0.0,0.0,0.0,0.0,0.0,0.0,0.0,0.0,0.0,0.0,0.0,0.0,0.0,0.0,0.0,0.0,0.0,0.0,0.0,0.0,0.0,0.0,0.0,0.0,0.0,0.0,0.0,0.0,0.0,0.0,0.0,0.0,0.0,0.0,0.0,0.0,0.0,0.0,0.0,0.0,0.0,0.0,0.0,0.0,0.0,0.0,0.0,0.0,0.0,0.0,0.0,0.0,0.0,0.0,0.0,0.0,0.0,0.0,0.0,0.0,0.0,0.0,0.0,0.0,0.0,0.0,0.0,0.0,0.0,0.0,0.0,0.0,0.0,0.0,0.0,0.0,0.0,0.0,0.0,0.0,0.0,0.0,0.0,0.0,0.0,0.0,0.0,0.0,0.0,0.0,0.0,0.0,0.0,0.0,0.0,0.0,0.0,0.0,0.0,0.0,0.0,0.0,0.0,0.0,0.0,0.0,0.0,0.0,0.0,0.0,0.0,0.0,0.0,0.0,0.0,0.0,0.0,0.0,0.0,0.0,0.0,0.0,0.0,0.0,0.0,0.0,0.0,0.0,0.0,0.0,0.0,0.0,0.0,0.0,0.0,0.0,0.0,0.0,0.0,0.0,0.0,0.0,0.0,0.0,0.0,0.0,0.0,0.0,0.0,0.0,0.0,0.0,0.0,0.0,0.0,0.0,0.0,0.0,0.0,0.0,0.0,0.0,0.0,0.0,0.0,0.0,0.0,0.0,0.0,0.0,0.0,0.0,0.0,0.0,0.0,0.0,0.0,0.0,0.0,0.0,0.0,0.0,0.0,0.0,0.0,0.0,0.0,0.0,0.0,0.0,0.0,0.0,0.0,0.0,0.0,0.0,0.0,0.0,0.0,0.0,0.0,0.0,0.0,0.0,0.0,0.0,0.0,0.0,0.0,0.0,0.0,0.0,0.0,0.0,0.0,0.0,0.0,0.0,0.0,0.0,0.0,0.0,0.0,0.0,0.0,0.0,0.0,0.0,0.0,0.0,0.0,0.0,0.0,0.0,0.0,0.0,0.0,0.0,0.0,0.0,0.0,0.0,0.0,0.0,0.0,0.0,0.0,0.0,0.0,0.0,0.0,0.0,0.0,0.0,0.0,0.0,0.0,0.0,0.0,0.0,0.0,0.0,0.0,0.0,0.0,0.0,0.0,0.0,0.0,0.0,0.0,0.0,0.0,0.0,0.0,0.0,0.0,0.0,0.0,0.0,0.0,0.0,0.0,0.0,0.0,0.0,0.0,0.0,0.0,0.0,0.0,0.0,0.0,0.0,0.0,0.0,0.0,0.0,0.0,0.0,0.0,0.0,0.0,0.0,0.0,0.0,0.0,0.0,0.0,-2.3973,0.0,0.0,0.0,0.0,0.0,0.0,0.0,0.0,0.0,0.0,0.0,0.0,0.0,0.0,0.0,0.0,0.0,0.0,0.0,0.0,0.0,0.0,0.0,0.0,0.0,0.0,0.0,0.0,0.0,0.0,0.0,0.0,0.0,0.0,0.0,0.0,0.0,0.0,0.0,0.0,0.0,0.0,0.0,0.0,0.0,0.0,0.0,0.0,0.0,0.0,0.0,0.0,0.0,0.0,0.0,0.0,0.0,0.0,0.0,0.0,0.0,0.0,0.0,0.0,0.0,0.0,0.0,0.0,0.0,0.0,0.0,0.0,0.0,0.0,0.0,0.0,0.0,0.0,0.0,0.0,0.0,0.0,0.0,0.0,0.0,0.0,0.0,0.0,0.0,0.0,0.0,0.0,0.0,0.0,0.0,0.0,0.0,0.0,0.0,0.0,0.0,0.0,0.0,0.0,0.0,0.0,0.0,0.0,0.0,0.0,-2.4558,-2.4461,-2.4004,-2.3835,-2.394,0.0,0.0,0.0,0.0,0.0,0.0,0.0,0.0,0.0,0.0,0.0,0.0,0.0,0.0,0.0,0.0,0.0,0.0,0.0,0.0,0.0,0.0,0.0,0.0,0.0,0.0,0.0,0.0,0.0,0.0,0.0,0.0,0.0,0.0,0.0,0.0,0.0,0.0,0.0,0.0,0.0,0.0,0.0,0.0,0.0,0.0,0.0,0.0,0.0,0.0,0.0,0.0,0.0,0.0,0.0,0.0,0.0,0.0,0.0,0.0,0.0,0.0,0.0,0.0,0.0,0.0,0.0,0.0,0.0,0.0,0.0,0.0,0.0,0.0,0.0,0.0,0.0,0.0,0.0,0.0,0.0,0.0,0.0,0.0,0.0,0.0,0.0,0.0,0.0,0.0,0.0,0.0,0.0,0.0,0.0,0.0,0.0,0.0,0.0,0.0,0.0,0.0,0.0,0.0,0.0,0.0,0.0,0.0,0.0,0.0,0.0,0.0,-2.3629,-2.3718,-2.3904,0.0,0.0,0.0,0.0,0.0,0.0,0.0,0.0,0.0,0.0,0.0,0.0,0.0,0.0,0.0,0.0,0.0,0.0,0.0,0.0,0.0,0.0,0.0,0.0,0.0,0.0,0.0,0.0,0.0,0.0,0.0,0.0,0.0,0.0,0.0,0.0,0.0,0.0,0.0,0.0,0.0,0.0,0.0,0.0,0.0,0.0,0.0,0.0,0.0,0.0,0.0,0.0,0.0,0.0,0.0,0.0,0.0,0.0,0.0,0.0,0.0,0.0,0.0,0.0,0.0,0.0,0.0,0.0,0.0,0.0,0.0,0.0,0.0,0.0,0.0,0.0,0.0,0.0,0.0,0.0,0.0,0.0,0.0,0.0,0.0,0.0,0.0,0.0,0.0,0.0,0.0,0.0,0.0,0.0,0.0,0.0,0.0,0.0,0.0,0.0,0.0,0.0,0.0,0.0,0.0,0.0,0.0,0.0,0.0,0.0,-2.3107,-2.2818,-2.3314,0.0,-2.4025,0.0,0.0,0.0,0.0,0.0,0.0,0.0,0.0,0.0,0.0,0.0,0.0,0.0,0.0,0.0,0.0,0.0,0.0,0.0,0.0,0.0,0.0,0.0,0.0,0.0,0.0,0.0,0.0,0.0,0.0,0.0,0.0,0.0,0.0,0.0,0.0,0.0,0.0,0.0,0.0,0.0,0.0,0.0,0.0,0.0,0.0,0.0,0.0,0.0,0.0,0.0,0.0,0.0,0.0,0.0,0.0,0.0,0.0,0.0,0.0,0.0,0.0,0.0,0.0,0.0,0.0,0.0,0.0,0.0,0.0,0.0,0.0,0.0,0.0,0.0,0.0,0.0,0.0,0.0,0.0,0.0,0.0,0.0,0.0,0.0,0.0,0.0,0.0,0.0,0.0,0.0,0.0,0.0,0.0,0.0,0.0,0.0,0.0,0.0,0.0,0.0,0.0,0.0,0.0,0.0,0.0,0.0,0.0,0.0,0.0,-2.183,-2.1355,-2.1811,-2.1965,0.0,0.0,0.0,0.0,0.0,0.0,0.0,0.0,0.0,0.0,0.0,0.0,0.0,0.0,0.0,0.0,0.0,0.0,0.0,0.0,0.0,0.0,0.0,0.0,0.0,0.0,0.0,0.0,0.0,0.0,0.0,0.0,0.0,0.0,0.0,0.0,0.0,0.0,0.0,0.0,0.0,0.0,0.0,0.0,0.0,0.0,0.0,0.0,0.0,0.0,0.0,0.0,0.0,0.0,0.0,0.0,0.0,0.0,0.0,0.0,0.0,0.0,0.0,0.0,0.0,0.0,0.0,0.0,0.0,0.0,0.0,0.0,0.0,0.0,0.0,0.0,0.0,0.0,0.0,0.0,0.0,0.0,0.0,0.0,0.0,0.0,0.0,0.0,0.0,0.0,0.0,0.0,0.0,0.0,0.0,0.0,0.0,0.0,0.0,0.0,0.0,0.0,0.0,0.0,0.0,0.0,0.0,0.0,0.0,0.0,-2.0771,-2.0409,-2.0001,-2.0324,-2.0357,-2.0096,0.0,0.0,0.0,0.0,0.0,0.0,0.0,0.0,0.0,0.0,0.0,0.0,0.0,0.0,0.0,0.0,0.0,0.0,0.0,0.0,0.0,0.0,0.0,0.0,0.0,0.0,0.0,0.0,0.0,0.0,0.0,0.0,0.0,0.0,0.0,0.0,0.0,0.0,0.0,0.0,0.0,0.0,0.0,0.0,0.0,0.0,0.0,0.0,0.0,0.0,0.0,0.0,0.0,0.0,0.0,0.0,0.0,0.0,0.0,0.0,0.0,0.0,0.0,0.0,0.0,0.0,0.0,0.0,0.0,0.0,0.0,0.0,0.0,0.0,0.0,0.0,0.0,0.0,0.0,0.0,0.0,0.0,0.0,0.0,0.0,0.0,0.0,0.0,0.0,0.0,0.0,0.0,0.0,0.0,0.0,0.0,0.0,0.0,0.0,0.0,0.0,0.0,0.0,0.0,0.0,0.0,0.0,0.0,-1.9571,-1.9291,-1.9081,-1.8938,-1.9104,-1.935,0.0,0.0,0.0,0.0,0.0,0.0,0.0,0.0,0.0,0.0,0.0,0.0,0.0,0.0,0.0,0.0,0.0,0.0,0.0,0.0,0.0,0.0,0.0,0.0,0.0,0.0,0.0,0.0,0.0,0.0,0.0,0.0,0.0,0.0,0.0,0.0,0.0,0.0,0.0,0.0,0.0,0.0,0.0,0.0,0.0,0.0,0.0,0.0,0.0,0.0,0.0,0.0,0.0,0.0,0.0,0.0,0.0,0.0,0.0,0.0,0.0,0.0,0.0,0.0,0.0,0.0,0.0,0.0,0.0,0.0,0.0,0.0,0.0,0.0,0.0,0.0,0.0,0.0,0.0,0.0,0.0,0.0,0.0,0.0,0.0,0.0,0.0,0.0,0.0,0.0,0.0,0.0,0.0,0.0,0.0,0.0,0.0,0.0,0.0,0.0,0.0,0.0,0.0,0.0,0.0,0.0,0.0,0.0,0.0,-1.8093,-1.6827,-1.616,-1.6249,-1.7069,-1.7481,0.0,0.0,0.0,0.0,0.0,0.0,0.0,0.0,0.0,0.0,0.0,0.0,0.0,0.0,0.0,0.0,0.0,0.0,0.0,0.0,0.0,0.0,0.0,0.0,0.0,0.0,0.0,0.0,0.0,0.0,0.0,0.0,0.0,0.0,0.0,0.0,0.0,0.0,0.0,0.0,0.0,0.0,0.0,0.0,0.0,0.0,0.0,0.0,0.0,0.0,0.0,0.0,0.0,0.0,0.0,0.0,0.0,0.0,0.0,0.0,0.0,0.0,0.0,0.0,0.0,0.0,0.0,0.0,0.0,0.0,0.0,0.0,0.0,0.0,0.0,0.0,0.0,0.0,0.0,0.0,0.0,0.0,0.0,0.0,0.0,0.0,0.0,0.0,0.0,0.0,0.0,0.0,0.0,0.0,0.0,0.0,0.0,0.0,0.0,0.0,0.0,0.0,0.0,0.0,0.0,0.0,0.0,0.0,0.0,-1.6065,0.0,-1.3603,-1.3973,-1.5165,-1.5869,0.0,0.0,0.0,0.0,0.0,0.0,0.0,0.0,0.0,0.0,0.0,0.0,0.0,0.0,0.0,0.0,0.0,0.0,0.0,0.0,0.0,0.0,0.0,0.0,0.0,0.0,0.0,0.0,0.0,0.0,0.0,0.0,0.0,0.0,0.0,0.0,0.0,0.0,0.0,0.0,0.0,0.0,0.0,0.0,0.0,0.0,0.0,0.0,0.0,0.0,0.0,0.0,0.0,0.0,0.0,0.0,0.0,0.0,0.0,0.0,0.0,0.0,0.0,0.0,0.0,0.0,0.0,0.0,0.0,0.0,0.0,0.0,0.0,0.0,0.0,0.0,0.0,0.0,0.0,0.0,0.0,0.0,0.0,0.0,0.0,0.0,0.0,0.0,0.0,0.0,0.0,0.0,0.0,0.0,0.0,0.0,0.0,0.0,0.0,0.0,0.0,0.0,0.0,0.0,0.0,0.0,0.0,0.0,-1.722,-1.3344,-1.1838,-1.1523,-1.2424,-1.3455,-1.4702,0.0,0.0,0.0,0.0,0.0,0.0,0.0,0.0,0.0,0.0,0.0,0.0,0.0,0.0,0.0,0.0,0.0,0.0,0.0,0.0,0.0,0.0,0.0,0.0,0.0,0.0,0.0,0.0,0.0,0.0,0.0,0.0,0.0,0.0,0.0,0.0,0.0,0.0,0.0,0.0,0.0,0.0,0.0,0.0,0.0,0.0,0.0,0.0,0.0,0.0,0.0,0.0,0.0,0.0,0.0,0.0,0.0,0.0,0.0,0.0,0.0,0.0,0.0,0.0,0.0,0.0,0.0,0.0,0.0,0.0,0.0,0.0,0.0,0.0,0.0,0.0,0.0,0.0,0.0,0.0,0.0,0.0,0.0,0.0,0.0,0.0,0.0,0.0,0.0,0.0,0.0,0.0,0.0,0.0,0.0,0.0,0.0,0.0,0.0,0.0,0.0,0.0,0.0,0.0,0.0,0.0,0.0,0.0,0.0,-1.0827,-0.9662,-0.9437,-1.0277,-1.1813,-1.3539,0.0,0.0,0.0,0.0,0.0,0.0,0.0,0.0,0.0,0.0,0.0,0.0,0.0,0.0,0.0,0.0,0.0,0.0,0.0,0.0,0.0,0.0,0.0,0.0,0.0,0.0,0.0,0.0,0.0,0.0,0.0,0.0,0.0,0.0,0.0,0.0,0.0,0.0,0.0,0.0,0.0,0.0,0.0,0.0,0.0,0.0,0.0,0.0,0.0,0.0,0.0,0.0,0.0,0.0,0.0,0.0,0.0,0.0,0.0,0.0,0.0,0.0,0.0,0.0,0.0,0.0,0.0,0.0,0.0,0.0,0.0,0.0,0.0,0.0,0.0,0.0,0.0,0.0,0.0,0.0,0.0,0.0,0.0,0.0,0.0,0.0,0.0,0.0,0.0,0.0,0.0,0.0,0.0,0.0,0.0,0.0,0.0,0.0,0.0,0.0,0.0,0.0,0.0,0.0,0.0,0.0,0.0,0.0,0.0,-0.8219,-0.759,-0.7877,-0.898,-1.0615,-1.2726,-1.5238,0.0,0.0,0.0,0.0,0.0,0.0,0.0,0.0,0.0,0.0,0.0,0.0,0.0,0.0,0.0,0.0,0.0,0.0,0.0,0.0,0.0,0.0,0.0,0.0,0.0,0.0,0.0,0.0,0.0,0.0,0.0,0.0,0.0,0.0,0.0,0.0,0.0,0.0,0.0,0.0,0.0,0.0,0.0,0.0,0.0,0.0,0.0,0.0,0.0,0.0,0.0,0.0,0.0,0.0,0.0,0.0,0.0,0.0,0.0,0.0,0.0,0.0,0.0,0.0,0.0,0.0,0.0,0.0,0.0,0.0,0.0,0.0,0.0,0.0,0.0,0.0,0.0,0.0,0.0,0.0,0.0,0.0,0.0,0.0,0.0,0.0,0.0,0.0,0.0,0.0,0.0,0.0,0.0,0.0,0.0,0.0,0.0,0.0,0.0,0.0,0.0,0.0,0.0,0.0,0.0,0.0,0.0,0.0,-0.5487,-0.5641,-0.6532,-0.8188,-0.9701,-1.2159,0.0,0.0,0.0,0.0,0.0,0.0,0.0,0.0,0.0,0.0,0.0,0.0,0.0,0.0,0.0,0.0,0.0,0.0,0.0,0.0,0.0,0.0,0.0,0.0,0.0,0.0,0.0,0.0,0.0,0.0,0.0,0.0,0.0,0.0,0.0,0.0,0.0,0.0,0.0,0.0,0.0,0.0,0.0,0.0,0.0,0.0,0.0,0.0,0.0,0.0,0.0,0.0,0.0,0.0,0.0,0.0,0.0,0.0,0.0,0.0,0.0,0.0,0.0,0.0,0.0,0.0,0.0,0.0,0.0,0.0,0.0,0.0,0.0,0.0,0.0,0.0,0.0,0.0,0.0,0.0,0.0,0.0,0.0,0.0,0.0,0.0,0.0,0.0,0.0,0.0,0.0,0.0,0.0,0.0,0.0,0.0,0.0,0.0,0.0,0.0,0.0,0.0,0.0,0.0,0.0,0.0,0.0,0.0,0.0,-0.4842,-0.4166,-0.4807,-0.6732,-0.8551,-1.1276,0.0,0.0,0.0,0.0,0.0,0.0,0.0,0.0,0.0,0.0,0.0,0.0,0.0,0.0,0.0,0.0,0.0,0.0,0.0,0.0,0.0,0.0,0.0,0.0,0.0,0.0,0.0,0.0,0.0,0.0,0.0,0.0,0.0,0.0,0.0,0.0,0.0,0.0,0.0,0.0,0.0,0.0,0.0,0.0,0.0,0.0,0.0,0.0,0.0,0.0,0.0,0.0,0.0,0.0,0.0,0.0,0.0,0.0,0.0,0.0,0.0,0.0,0.0,0.0,0.0,0.0,0.0,0.0,0.0,0.0,0.0,0.0,0.0,0.0,0.0,0.0,0.0,0.0,0.0,0.0,0.0,0.0,0.0,0.0,0.0,0.0,0.0,0.0,0.0,0.0,0.0,0.0,0.0,0.0,0.0,0.0,0.0,0.0,0.0,0.0,0.0,0.0,0.0,0.0,0.0,0.0,0.0,0.0,-0.6602,-0.3989,-0.316,-0.3625,-0.5518,-0.7646,-1.0583,0.0,0.0,0.0,0.0,0.0,0.0,0.0,0.0,0.0,0.0,0.0,0.0,0.0,0.0,0.0,0.0,0.0,0.0,0.0,0.0,0.0,0.0,0.0,0.0,0.0,0.0,0.0,0.0,0.0,0.0,0.0,0.0,0.0,0.0,0.0,0.0,0.0,0.0,0.0,0.0,0.0,0.0,0.0,0.0,0.0,0.0,0.0,0.0,0.0,0.0,0.0,0.0,0.0,0.0,0.0,0.0,0.0,0.0,0.0,0.0,0.0,0.0,0.0,0.0,0.0,0.0,0.0,0.0,0.0,0.0,0.0,0.0,0.0,0.0,0.0,0.0,0.0,0.0,0.0,0.0,0.0,0.0,0.0,0.0,0.0,0.0,0.0,0.0,0.0,0.0,0.0,0.0,0.0,0.0,0.0,0.0,0.0,0.0,0.0,0.0,0.0,0.0,0.0,0.0,0.0,0.0,0.0,0.0,-0.5651,-0.3285,-0.2573,-0.2936,-0.4494,-0.6936,-1.0036,0.0,0.0,0.0,0.0,0.0,0.0,0.0,0.0,0.0,0.0,0.0,0.0,0.0,0.0,0.0,0.0,0.0,0.0,0.0,0.0,0.0,0.0,0.0,0.0,0.0,0.0,0.0,0.0,0.0,0.0,0.0,0.0,0.0,0.0,0.0,0.0,0.0,0.0,0.0,0.0,0.0,0.0,0.0,0.0,0.0,0.0,0.0,0.0,0.0,0.0,0.0,0.0,0.0,0.0,0.0,0.0,0.0,0.0,0.0,0.0,0.0,0.0,0.0,0.0,0.0,0.0,0.0,0.0,0.0,0.0,0.0,0.0,0.0,0.0,0.0,0.0,0.0,0.0,0.0,0.0,0.0,0.0,0.0,0.0,0.0,0.0,0.0,0.0,0.0,0.0,0.0,0.0,0.0,0.0,0.0,0.0,0.0,0.0,0.0,0.0,0.0,0.0,0.0,0.0,0.0,0.0,0.0,0.0,-0.5183,-0.2931,-0.2453,-0.2785,-0.3873,-0.6518,-0.969,0.0,0.0,0.0,0.0,0.0,0.0,0.0,0.0,0.0,0.0,0.0,0.0,0.0,0.0,0.0,0.0,0.0,0.0,0.0,0.0,0.0,0.0,0.0,0.0,0.0,0.0,0.0,0.0,0.0,0.0,0.0,0.0,0.0,0.0,0.0,0.0,0.0,0.0,0.0,0.0,0.0,0.0,0.0,0.0,0.0,0.0,0.0,0.0,-2.474,0.0,0.0,0.0,0.0,0.0,0.0,0.0,0.0,0.0,0.0,0.0,0.0,0.0,0.0,0.0,0.0,0.0,0.0,0.0,0.0,0.0,0.0,0.0,0.0,0.0,0.0,0.0,0.0,0.0,0.0,0.0,0.0,0.0,0.0,0.0,0.0,0.0,0.0,0.0,0.0,0.0,0.0,0.0,0.0,0.0,0.0,0.0,0.0,0.0,0.0,0.0,0.0,0.0,0.0,0.0,0.0,0.0,0.0,0.0,-0.4349,-0.2539,-0.2115,-0.257,-0.4055,-0.646,-0.9399,0.0,0.0,0.0,0.0,0.0,0.0,0.0,0.0,0.0,0.0,0.0,0.0,0.0,0.0,0.0,0.0,0.0,0.0,0.0,0.0,0.0,0.0,0.0,0.0,0.0,0.0,0.0,0.0,0.0,0.0,0.0,0.0,0.0,0.0,0.0,0.0,0.0,0.0,0.0,0.0,0.0,0.0,0.0,0.0,0.0,0.0,0.0,0.0,0.0,0.0,0.0,0.0,0.0,0.0,0.0,0.0,0.0,0.0,0.0,0.0,0.0,0.0,0.0,0.0,0.0,0.0,0.0,0.0,0.0,0.0,0.0,0.0,0.0,0.0,0.0,0.0,0.0,0.0,0.0,0.0,0.0,0.0,0.0,0.0,0.0,0.0,0.0,0.0,0.0,0.0,0.0,0.0,0.0,0.0,0.0,0.0,0.0,0.0,0.0,0.0,0.0,0.0,0.0,0.0,0.0,0.0,0.0,-0.5837,-0.3465,-0.2154,-0.1721,-0.2499,-0.4428,-0.6642,-0.9367,-1.2695,0.0,0.0,0.0,0.0,0.0,0.0,0.0,0.0,0.0,0.0,0.0,0.0,0.0,0.0,0.0,0.0,0.0,0.0,0.0,0.0,0.0,0.0,0.0,0.0,0.0,0.0,0.0,0.0,0.0,0.0,0.0,0.0,0.0,0.0,0.0,0.0,0.0,0.0,-2.322,-2.1838,0.0,0.0,0.0,0.0,0.0,0.0,0.0,0.0,-2.4066,0.0,0.0,0.0,0.0,0.0,0.0,0.0,0.0,0.0,0.0,0.0,0.0,0.0,0.0,0.0,0.0,0.0,0.0,0.0,0.0,0.0,0.0,0.0,0.0,0.0,0.0,0.0,0.0,0.0,0.0,0.0,0.0,0.0,0.0,0.0,0.0,0.0,0.0,0.0,0.0,0.0,0.0,0.0,0.0,0.0,0.0,0.0,0.0,0.0,0.0,0.0,0.0,0.0,0.0,0.0,0.0,-0.8692,-0.5452,-0.3072,-0.1748,-0.1956,-0.2764,-0.43,-0.6785,-0.9566,-1.2731,0.0,0.0,0.0,0.0,0.0,0.0,0.0,0.0,0.0,0.0,0.0,0.0,0.0,0.0,0.0,0.0,0.0,0.0,0.0,0.0,0.0,0.0,0.0,0.0,0.0,0.0,0.0,0.0,0.0,0.0,0.0,0.0,0.0,0.0,0.0,0.0,0.0,0.0,0.0,-2.0246,-1.9841,0.0,0.0,0.0,0.0,0.0,0.0,0.0,0.0,-2.3949,0.0,0.0,0.0,0.0,0.0,0.0,0.0,0.0,0.0,0.0,0.0,0.0,0.0,0.0,0.0,0.0,0.0,0.0,0.0,0.0,0.0,0.0,0.0,0.0,0.0,0.0,0.0,0.0,0.0,0.0,0.0,0.0,0.0,0.0,0.0,0.0,0.0,0.0,0.0,0.0,0.0,0.0,0.0,0.0,0.0,0.0,0.0,0.0,0.0,0.0,0.0,0.0,0.0,0.0,0.0,-0.7949,-0.4879,-0.2744,-0.1613,-0.1947,-0.3013,-0.4806,-0.7196,-0.9881,0.0,0.0,0.0,0.0,0.0,0.0,0.0,0.0,0.0,0.0,0.0,0.0,0.0,0.0,0.0,0.0,0.0,0.0,0.0,0.0,0.0,0.0,0.0,0.0,0.0,0.0,0.0,0.0,0.0,0.0,0.0,0.0,0.0,0.0,0.0,0.0,0.0,0.0,0.0,0.0,-1.9962,-1.9641,-1.8966,0.0,0.0,0.0,0.0,0.0,0.0,-2.2613,-2.3002,0.0,0.0,0.0,0.0,0.0,0.0,0.0,0.0,0.0,0.0,0.0,0.0,0.0,0.0,0.0,0.0,0.0,0.0,0.0,0.0,0.0,0.0,0.0,0.0,0.0,0.0,0.0,0.0,0.0,0.0,0.0,0.0,0.0,0.0,0.0,0.0,0.0,0.0,0.0,0.0,0.0,0.0,0.0,0.0,0.0,0.0,0.0,0.0,0.0,0.0,0.0,0.0,0.0,0.0,0.0,-0.7463,-0.4566,-0.2681,-0.1748,-0.2214,-0.3345,-0.5408,-0.7723,-1.0332,0.0,0.0,0.0,0.0,0.0,0.0,0.0,0.0,0.0,0.0,0.0,0.0,0.0,0.0,0.0,0.0,0.0,0.0,0.0,0.0,0.0,0.0,0.0,0.0,0.0,0.0,0.0,0.0,0.0,0.0,0.0,0.0,0.0,0.0,0.0,0.0,0.0,0.0,0.0,0.0,0.0,-1.9594,-1.8795,-1.9438,0.0,0.0,0.0,0.0,-2.1631,-2.1865,0.0,0.0,0.0,0.0,0.0,0.0,0.0,0.0,0.0,0.0,0.0,0.0,0.0,0.0,0.0,0.0,0.0,0.0,0.0,0.0,0.0,0.0,0.0,0.0,0.0,0.0,0.0,0.0,0.0,0.0,0.0,0.0,0.0,0.0,0.0,0.0,0.0,0.0,0.0,0.0,0.0,0.0,0.0,0.0,0.0,0.0,0.0,0.0,0.0,0.0,0.0,0.0,0.0,0.0,0.0,0.0,-0.7833,-0.5222,-0.3351,-0.222,-0.3015,-0.4276,-0.5804,-0.8238,-1.0905,0.0,0.0,0.0,0.0,0.0,0.0,0.0,0.0,0.0,0.0,0.0,0.0,0.0,0.0,0.0,0.0,0.0,0.0,0.0,0.0,0.0,0.0,0.0,0.0,0.0,0.0,0.0,0.0,0.0,0.0,0.0,0.0,0.0,0.0,0.0,0.0,0.0,0.0,0.0,0.0,0.0,-1.893,-1.8636,-1.9062,-1.9719,0.0,0.0,-2.0928,-2.1019,-2.1376,0.0,0.0,0.0,0.0,0.0,0.0,0.0,0.0,0.0,0.0,0.0,0.0,0.0,0.0,0.0,0.0,0.0,0.0,0.0,0.0,0.0,0.0,0.0,0.0,0.0,0.0,0.0,0.0,0.0,0.0,0.0,0.0,0.0,0.0,0.0,0.0,0.0,0.0,0.0,0.0,0.0,0.0,0.0,0.0,0.0,0.0,0.0,0.0,0.0,0.0,0.0,0.0,0.0,0.0,0.0,-1.1978,-0.8321,-0.5704,-0.3921,-0.3013,-0.3858,-0.512,-0.6715,-0.8948,-1.1414,0.0,0.0,0.0,0.0,0.0,0.0,0.0,0.0,0.0,0.0,0.0,0.0,0.0,0.0,0.0,0.0,0.0,0.0,0.0,0.0,0.0,0.0,0.0,0.0,0.0,0.0,0.0,0.0,0.0,0.0,0.0,0.0,0.0,0.0,0.0,0.0,0.0,0.0,0.0,0.0,0.0,0.0,-1.8703,-1.8951,0.0,0.0,0.0,-1.9977,-2.0248,0.0,0.0,0.0,0.0,0.0,0.0,0.0,0.0,0.0,0.0,0.0,0.0,0.0,0.0,0.0,0.0,0.0,0.0,0.0,0.0,0.0,0.0,0.0,0.0,0.0,0.0,0.0,0.0,0.0,0.0,0.0,0.0,0.0,0.0,0.0,0.0,0.0,0.0,0.0,0.0,0.0,0.0,0.0,0.0,0.0,0.0,0.0,0.0,0.0,0.0,0.0,0.0,0.0,0.0,0.0,0.0,0.0,-0.9141,-0.6661,-0.4917,-0.3993,-0.4813,-0.5998,-0.7453,-0.9451,0.0,0.0,0.0,0.0,0.0,0.0,0.0,0.0,0.0,0.0,0.0,0.0,0.0,0.0,0.0,0.0,0.0,0.0,0.0,0.0,0.0,0.0,0.0,0.0,0.0,0.0,0.0,-2.3786,0.0,0.0,0.0,0.0,0.0,0.0,0.0,0.0,0.0,0.0,0.0,0.0,0.0,0.0,-2.0042,-1.8793,-1.8753,-1.8913,0.0,0.0,-1.933,-1.9802,-2.0537,-2.1444,0.0,0.0,0.0,0.0,0.0,0.0,0.0,0.0,0.0,0.0,0.0,0.0,0.0,0.0,0.0,0.0,0.0,0.0,0.0,0.0,0.0,0.0,0.0,0.0,0.0,0.0,0.0,0.0,0.0,0.0,0.0,0.0,0.0,0.0,0.0,0.0,0.0,0.0,0.0,0.0,0.0,0.0,0.0,0.0,0.0,0.0,0.0,0.0,0.0,0.0,0.0,0.0,0.0,0.0,0.0,-1.047,-0.8393,-0.663,-0.5157,-0.5884,-0.6782,-0.7795,-0.9659,-1.1688,0.0,0.0,0.0,0.0,0.0,0.0,0.0,0.0,0.0,0.0,0.0,0.0,0.0,0.0,0.0,0.0,0.0,0.0,0.0,0.0,0.0,0.0,0.0,0.0,0.0,0.0,0.0,0.0,0.0,0.0,0.0,0.0,0.0,0.0,0.0,0.0,0.0,0.0,0.0,0.0,0.0,-1.9266,-1.8714,-1.845,-1.8399,0.0,0.0,-1.9407,-1.9878,-2.0805,-2.1916,-2.3122,0.0,0.0,0.0,0.0,0.0,0.0,0.0,0.0,0.0,0.0,0.0,0.0,0.0,0.0,0.0,0.0,0.0,0.0,0.0,0.0,0.0,0.0,0.0,0.0,0.0,0.0,0.0,0.0,0.0,0.0,0.0,0.0,0.0,0.0,0.0,0.0,0.0,0.0,0.0,0.0,0.0,0.0,0.0,0.0,0.0,0.0,0.0,0.0,0.0,0.0,0.0,0.0,0.0,-1.4844,-1.1799,-0.9761,-0.8074,-0.6841,-0.7313,-0.8017,-0.8976,-1.0528,-1.2303,0.0,0.0,0.0,0.0,0.0,0.0,0.0,0.0,0.0,0.0,0.0,0.0,0.0,0.0,0.0,0.0,0.0,0.0,0.0,0.0,0.0,0.0,0.0,0.0,0.0,0.0,0.0,0.0,-2.2834,-2.2986,-2.3867,0.0,0.0,0.0,0.0,0.0,0.0,0.0,0.0,0.0,0.0,-2.021,-1.9499,-1.9193,0.0,0.0,-1.9276,-1.9518,-2.0107,-2.1049,-2.2151,-2.3323,-2.4925,0.0,0.0,0.0,0.0,0.0,0.0,0.0,0.0,0.0,0.0,0.0,0.0,0.0,0.0,0.0,0.0,0.0,0.0,0.0,0.0,0.0,0.0,0.0,0.0,0.0,0.0,0.0,0.0,0.0,0.0,0.0,0.0,0.0,0.0,0.0,0.0,0.0,0.0,0.0,0.0,0.0,0.0,0.0,0.0,0.0,0.0,0.0,0.0,0.0,0.0,0.0,0.0,-1.587,-1.3129,-1.1138,-0.9494,-0.8227,-0.8465,-0.8993,-0.9855,-1.1075,-1.2617,0.0,0.0,0.0,0.0,0.0,0.0,0.0,0.0,0.0,0.0,0.0,0.0,0.0,0.0,0.0,0.0,0.0,0.0,0.0,0.0,0.0,0.0,0.0,0.0,0.0,0.0,0.0,0.0,-2.3465,-2.3574,-2.4612,0.0,0.0,0.0,0.0,0.0,0.0,0.0,0.0,0.0,0.0,-2.072,-1.9948,-1.9667,-1.9588,-1.9735,-1.9775,-2.002,-2.0677,-2.1604,-2.2628,-2.3735,0.0,0.0,0.0,0.0,0.0,0.0,0.0,0.0,0.0,0.0,0.0,0.0,0.0,0.0,0.0,0.0,0.0,0.0,0.0,0.0,0.0,0.0,0.0,0.0,0.0,0.0,0.0,-1.8012,0.0,0.0,-1.7054,0.0,0.0,0.0,0.0,0.0,0.0,0.0,0.0,0.0,0.0,0.0,0.0,0.0,0.0,0.0,0.0,0.0,0.0,0.0,0.0,0.0,0.0,-1.6927,-1.43,-1.2597,-1.0997,-0.9413,-0.9406,-0.9688,-1.0198,-1.1141,-1.2414,-1.4143,0.0,0.0,0.0,0.0,0.0,0.0,0.0,0.0,0.0,0.0,0.0,0.0,0.0,0.0,0.0,0.0,0.0,0.0,0.0,0.0,0.0,0.0,0.0,0.0,0.0,0.0,-2.3903,-2.4089,-2.439,0.0,0.0,0.0,0.0,0.0,0.0,0.0,0.0,0.0,0.0,-2.0751,-2.0259,-1.9692,-1.9736,-1.9878,-1.9868,-2.056,-2.1187,-2.1553,-2.2518,-2.3551,0.0,0.0,0.0,0.0,0.0,0.0,0.0,0.0,0.0,0.0,0.0,0.0,0.0,0.0,0.0,0.0,0.0,0.0,0.0,0.0,0.0,0.0,0.0,0.0,0.0,0.0,0.0,-1.7761,-1.7451,0.0,0.0,0.0,0.0,0.0,0.0,0.0,0.0,0.0,0.0,0.0,-1.4903,-1.5277,0.0,0.0,0.0,0.0,0.0,0.0,0.0,0.0,0.0,0.0,0.0,0.0,-1.7564,-1.5531,-1.3864,-1.2398,-1.1166,-1.1107,-1.1266,-1.1507,-1.2346,-1.3778,-1.5886,0.0,0.0,0.0,0.0,0.0,0.0,0.0,0.0,0.0,0.0,0.0,0.0,0.0,0.0,0.0,0.0,0.0,0.0,0.0,0.0,0.0,0.0,0.0,0.0,0.0,-2.4879,0.0,0.0,0.0,0.0,0.0,0.0,0.0,0.0,0.0,0.0,0.0,-2.249,-2.1898,-2.1448,-2.1135,-2.0828,-2.0996,-2.1239,0.0,0.0,0.0,0.0,0.0,0.0,0.0,0.0,0.0,0.0,0.0,0.0,0.0,0.0,-3.1177,-3.0721,-3.0552,-3.0211,-2.9477,0.0,0.0,0.0,0.0,0.0,0.0,0.0,0.0,0.0,0.0,0.0,0.0,0.0,0.0,-1.7154,0.0,-1.6773,0.0,0.0,0.0,0.0,0.0,0.0,0.0,0.0,-1.5096,-1.4994,-1.504,-1.5277,-1.6007,0.0,-1.7656,-1.8639,0.0,0.0,0.0,0.0,0.0,0.0,0.0,0.0,-1.7971,-1.6143,-1.4687,-1.3482,-1.254,-1.2463,-1.2463,-1.2618,-1.3622,-1.4979,-1.6617,-1.7525,-1.8455,0.0,0.0,0.0,0.0,0.0,0.0,0.0,0.0,0.0,0.0,0.0,0.0,0.0,0.0,0.0,0.0,0.0,0.0,0.0,0.0,0.0,0.0,0.0,-2.4587,0.0,0.0,0.0,0.0,0.0,0.0,0.0,0.0,0.0,-2.4348,-2.3329,-2.2564,-2.2237,-2.2075,-2.2013,-2.1951,0.0,0.0,0.0,0.0,0.0,0.0,0.0,-2.5063,-2.5742,-2.6351,-2.7047,-2.7698,-2.8599,-2.9514,-3.0128,0.0,0.0,-3.1329,-3.1329,-3.1211,-3.0753,-3.0668,-3.0538,-3.0256,-2.9379,-2.8547,0.0,0.0,0.0,0.0,0.0,0.0,0.0,0.0,-1.6693,-1.6652,0.0,-1.6617,0.0,0.0,0.0,0.0,0.0,-1.6514,0.0,0.0,-1.5244,-1.5198,-1.5311,-1.5546,-1.6044,-1.6812,-1.7194,-1.771,-1.8276,-2.0311,0.0,0.0,0.0,0.0,0.0,0.0,-1.8163,-1.6162,-1.5174,-1.4268,-1.3478,-1.3314,-1.3362,-1.3494,-1.4937,-1.5897,-1.6363,-1.7348,-1.7959,-1.8065,-1.9278,0.0,0.0,0.0,0.0,0.0,0.0,0.0,0.0,0.0,0.0,0.0,0.0,0.0,0.0,0.0,0.0,0.0,0.0,0.0,0.0,-2.3616,0.0,0.0,0.0,0.0,0.0,0.0,0.0,0.0,0.0,0.0,-2.3823,-2.3015,-2.2439,-2.247,0.0,0.0,0.0,0.0,-2.3433,-2.3623,-2.3943,-2.4292,-2.4681,-2.5133,-2.5673,-2.6229,0.0,0.0,-2.8405,-2.8577,-2.8884,-2.9621,-2.9902,-3.0357,-3.1688,-3.2048,-3.2083,-3.1678,-3.1597,-3.1509,-3.0783,-2.9913,-2.9149,-1.4511,0.0,0.0,0.0,0.0,-1.6945,-1.682,-1.6669,-1.6479,-1.6402,-1.6421,-1.6579,0.0,0.0,0.0,0.0,0.0,0.0,-1.638,-1.5969,-1.5703,-1.5614,-1.5647,-1.5913,-1.6337,-1.6929,-1.7293,-1.7529,-1.7776,-1.8995,-1.9733,-1.9962,0.0,0.0,0.0,0.0,-1.7796,-1.6871,-1.5845,-1.5085,-1.464,-1.4593,-1.4755,-1.5107,-1.5624,-1.6215,-1.6853,-1.6907,-1.7593,-1.8949,-1.9286,0.0,0.0,0.0,0.0,0.0,0.0,0.0,0.0,0.0,0.0,0.0,0.0,0.0,0.0,0.0,0.0,0.0,0.0,0.0,-2.3483,-2.3475,-2.3873,0.0,0.0,0.0,0.0,0.0,0.0,0.0,0.0,0.0,-2.4469,-2.3958,-2.356,0.0,0.0,-2.3754,-2.3872,-2.4221,-2.4523,-2.4593,-2.5048,0.0,-2.566,-2.6014,-2.6457,-2.6893,-2.7218,-2.7548,-2.7829,-2.8351,-2.8845,-2.9161,-2.9852,-3.0541,-3.1176,-3.1353,-3.1428,-3.1607,-3.1609,-3.1611,-3.1501,-3.0655,-2.9779,-1.3671,-1.4668,-1.5274,-1.5736,-1.6026,-1.6086,-1.6091,-1.6123,-1.6202,-1.6235,-1.6318,-1.6663,-1.7002,-1.7323,-1.7638,0.0,0.0,0.0,-1.665,-1.6362,-1.588,-1.574,-1.5856,-1.5803,-1.6003,-1.6401,-1.6871,-1.7115,-1.714,-1.7957,-1.8481,-1.8782,0.0,0.0,-1.9206,-1.8381,-1.7655,-1.7011,-1.6235,-1.5756,-1.5579,-1.5635,-1.5748,-1.6001,-1.6213,-1.6409,-1.6611,-1.6619,-1.7136,-1.8204,-1.8603,-1.9448,0.0,0.0,0.0,0.0,0.0,0.0,0.0,0.0,0.0,0.0,0.0,-2.8219,0.0,0.0,0.0,0.0,-2.4286,-2.3365,-2.3046,-2.3127,0.0,0.0,0.0,0.0,0.0,0.0,0.0,-2.5027,-2.4948,-2.4815,-2.4545,-2.4313,-2.4064,-2.3839,-2.4093,-2.4252,-2.4176,0.0,-2.4844,-2.5148,-2.55,-2.5934,-2.6351,-2.6659,-2.6922,-2.7233,-2.7488,-2.7675,-2.769,-2.7976,-2.8187,-2.84,-2.8771,-2.9233,-2.964,-2.9733,-3.0302,-3.1627,-3.1947,-3.201,-3.2087,-3.1241,-3.0401,-1.2949,-1.3266,-1.4046,-1.4477,-1.4697,-1.4971,-1.5345,-1.5715,-1.5957,-1.6207,-1.6509,-1.6863,-1.724,-1.7598,-1.7774,0.0,-1.745,-1.7053,-1.6735,-1.6566,-1.5853,-1.5655,-1.59,-1.5428,-1.5272,-1.5535,-1.6164,-1.6532,-1.669,-1.7237,-1.7585,-1.7747,-1.8825,-1.9078,-1.8481,-1.82,-1.7622,-1.6808,-1.6527,-1.6398,-1.6355,-1.6509,-1.651,-1.6362,-1.6648,-1.6564,-1.5976,-1.6557,-1.68,-1.6763,-1.7807,-1.8692,-1.9378,0.0,0.0,0.0,0.0,0.0,0.0,0.0,0.0,0.0,0.0,0.0,0.0,0.0,0.0,0.0,-2.3534,0.0,-2.2596,-2.2765,0.0,0.0,0.0,-2.482,-2.4672,-2.4734,-2.4684,-2.4461,0.0,0.0,-2.4255,-2.4291,-2.4207,-2.3865,-2.4283,-2.4448,-2.403,-2.4204,-2.4626,-2.5314,-2.5502,-2.5806,-2.6557,-2.6865,-2.7012,-2.7268,-2.7565,-2.764,-2.7584,-2.737,-2.7225,-2.7504,-2.7274,-2.727,-2.7623,-2.815,-2.8975,-3.1506,-3.2072,-3.2194,-3.1907,-3.1254,-3.0619,-1.3007,-1.3104,-1.3821,-1.4291,-1.4662,-1.4983,-1.5345,-1.5715,-1.6076,-1.6367,-1.668,-1.7186,-1.772,-1.824,-1.773,-1.747,-1.7328,-1.6512,-1.6045,-1.5853,-1.5569,-1.5479,-1.5543,-1.5552,-1.561,-1.5745,-1.6039,-1.6512,-1.7047,-1.7211,-1.7564,-1.8055,-1.8357,-1.8344,-1.8058,-1.7853,-1.7691,-1.7475,-1.7297,-1.7173,-1.7063,-1.7201,-1.7115,-1.6844,-1.6853,-1.6713,-1.6463,-1.7029,-1.7723,-1.8522,-1.9591,-2.0682,-2.184,-2.2503,0.0,0.0,0.0,0.0,0.0,0.0,0.0,0.0,0.0,-2.6884,-2.6124,0.0,-2.411,0.0,-2.3455,-2.3063,-2.2587,-2.3044,0.0,0.0,-2.3975,-2.419,-2.4447,-2.4412,-2.4458,-2.4679,-2.4702,-2.4638,-2.4653,-2.4737,-2.4592,-2.4066,-2.4305,-2.4612,-2.4603,-2.4722,-2.4892,-2.5072,-2.5297,-2.5501,-2.5819,-2.6317,-2.6743,-2.6939,-2.7022,-2.7033,-2.6719,-2.6794,-2.6983,-2.7288,-2.757,-2.7818,-2.8163,-2.8557,-2.8982,-2.9724,-2.9738,-2.9582,-2.9605,-2.9387,-2.9112,-1.3065,-1.3065,-1.3583,-1.401,-1.4337,-1.488,-1.5345,-1.5748,-1.6207,-1.6552,-1.6837,-1.7196,-1.7566,-1.7915,-1.7251,-1.6849,-1.6637,-1.6066,-1.5748,-1.5586,-1.5262,-1.5157,-1.5303,-1.5132,-1.516,-1.5367,-1.5765,-1.6208,-1.6712,-1.7295,-1.7731,-1.8134,-1.8363,-1.8411,-1.8333,-1.8055,-1.7935,-1.7935,-1.7948,-1.7908,-1.7841,-1.7728,-1.7509,-1.7169,-1.7228,-1.7196,-1.697,-1.7775,-1.8591,-1.9378,-2.0166,-2.1011,-2.1943,-2.2574,-2.2998,0.0,0.0,0.0,0.0,0.0,0.0,0.0,0.0,0.0,0.0,0.0,-2.3155,-2.2598,-2.2718,-2.2672,-2.2319,-2.2978,-2.348,-2.3566,-2.3625,-2.3774,-2.3971,-2.3896,-2.3893,-2.4168,-2.4259,-2.4305,-2.4336,-2.4504,-2.4401,-2.403,-2.413,-2.4227,-2.4212,-2.4305,-2.4501,-2.4781,-2.4934,-2.5193,-2.5493,-2.5961,-2.6296,-2.6453,-2.6626,-2.6673,-2.653,-2.6553,-2.6729,-2.7042,-2.7179,-2.735,-2.7717,-2.7997,-2.8237,-2.8322,-2.8186,-2.8232,-2.8786,-2.8827,-2.8645,-1.3075,-1.3123,-1.343,-1.3716,-1.402,-1.4697,-1.5289,-1.5792,-1.6232,-1.6583,-1.6909,-1.6952,-1.7078,-1.7176,-1.6545,-1.6126,-1.5797,-1.5585,-1.5485,-1.5385,-1.4897,-1.4777,-1.5053,-1.4544,-1.4479,-1.4836,-1.5425,-1.5852,-1.6157,-1.7271,-1.7877,-1.8065,-1.851,-1.8769,-1.8821,-1.8401,-1.8235,-1.8196,-1.8278,-1.8351,-1.8337,-1.8012,-1.7652,-1.7294,-1.7655,-1.7777,-1.7514,-1.8664,-1.9487,-1.9915,-2.0396,-2.0871,-2.1309,-2.218,-2.2723,0.0,-2.3497,0.0,0.0,0.0,0.0,0.0,0.0,0.0,0.0,-2.3254,-2.2488,-2.1505,-2.1748,-2.1945,-2.1945,-2.2614,-2.3068,-2.3112,-2.3213,-2.3301,-2.336,-2.3288,-2.3318,-2.3538,-2.361,-2.3739,-2.3927,-2.3982,-2.4024,-2.4055,-2.4,-2.3874,-2.3655,-2.3699,-2.3909,-2.4433,-2.4537,-2.4792,-2.55,-2.5696,-2.5864,-2.6046,-2.63,-2.6489,-2.6576,-2.6518,-2.6474,-2.6716,-2.6692,-2.6725,-2.697,-2.723,-2.7404,-2.7631,-2.7539,-2.7698,-2.8441,-2.8571,-2.8634,-1.3075,-1.3133,-1.3334,-1.3563,-1.3868,-1.4326,-1.4926,-1.5579,-1.5751,-1.5981,-1.6292,-1.6382,-1.6545,-1.6655,-1.5979,-1.5552,-1.5311,-1.4809,-1.454,-1.446,-1.4352,-1.4365,-1.4463,-1.4419,-1.4525,-1.4808,-1.5153,-1.5655,-1.6352,-1.6632,-1.7309,-1.8311,-1.8423,-1.8481,-1.8481,0.0,0.0,0.0,-1.769,-1.745,-1.745,-1.7602,-1.7451,-1.6999,-1.793,0.0,-1.7994,-1.9498,-2.0594,-2.108,-2.1977,0.0,0.0,0.0,0.0,0.0,0.0,0.0,0.0,0.0,0.0,0.0,-2.2846,-2.2752,-2.2862,-2.203,-2.1323,-2.1001,-2.1362,-2.1669,-2.1669,-2.1828,-2.1943,-2.1943,-2.2013,-2.2248,-2.2772,-2.2888,-2.3137,-2.3837,-2.3967,-2.4078,-2.4317,-2.4317,-2.4276,-2.44,-2.4276,-2.4193,-2.4177,-2.3925,-2.3827,-2.3963,-2.4152,-2.4493,-2.528,-2.54,-2.5574,-2.5819,-2.6083,-2.619,-2.6047,-2.6245,-2.6424,-2.6758,-2.6975,-2.7241,-2.753,-2.7847,-2.7936,-2.8035,-2.7869,-2.7682,-2.7465,-2.7351,-2.7216,-1.2978,-1.3027,-1.3162,-1.3334,0.0,-1.3697,-1.4058,-1.4562,-1.5085,-1.5407,-1.5597,-1.5501,-1.5524,-1.5638,-1.5006,-1.4601,-1.4392,-1.4159,-1.4007,-1.3927,-1.3987,-1.4105,-1.4254,-1.4319,-1.4543,-1.4904,-1.5117,-1.5487,-1.5931,-1.6316,-1.6865,-1.7519,-1.7844,-1.8041,-1.8026,-1.7796,-1.7696,-1.7832,-1.7633,-1.7555,-1.7572,-1.7575,-1.7455,-1.731,-1.8013,0.0,0.0,0.0,0.0,0.0,0.0,0.0,0.0,0.0,0.0,-2.3256,-2.3148,-2.3177,-2.3417,-2.3151,-2.2868,-2.2552,-2.2186,-2.1943,-2.1874,-2.1232,-2.0742,-2.062,-2.1105,-2.1386,-2.1333,-2.1674,-2.1886,-2.1862,-2.1901,-2.2091,-2.2425,-2.2823,-2.3264,-2.3723,-2.4168,-2.4533,-2.4751,-2.4775,-2.4775,-2.4831,-2.4695,-2.4583,-2.4574,-2.4302,-2.4051,-2.4151,-2.4261,-2.4519,-2.4994,-2.5113,-2.512,-2.5195,-2.5612,-2.5805,-2.5584,-2.615,-2.6691,-2.6987,-2.7352,-2.7566,-2.7409,-2.7576,-2.7583,-2.7253,-2.729,-2.7303,-2.6861,-2.6877,-2.6821,-1.2881,-1.2881,-1.2978,-1.3054,-1.3067,-1.3047,-1.3146,-1.3336,0.0,0.0,0.0,-1.4459,-1.4419,-1.4454,-1.4018,-1.3762,-1.3581,-1.3708,-1.3708,-1.3615,-1.3708,-1.3908,-1.4157,-1.4268,-1.4511,-1.4951,-1.5102,-1.5254,-1.5492,-1.6022,-1.6408,-1.6618,-1.7154,-1.7471,-1.7505,-1.6924,-1.6774,-1.7174,-1.7453,-1.7669,-1.7716,-1.7519,-1.7464,-1.7586,-1.7898,-1.8117,-1.8269,-1.9269,-1.9923,-2.0188,-2.0608,-2.0941,-2.1169,-2.1287,-2.1652,-2.2303,-2.2234,-2.2353,-2.2829,-2.274,-2.26,-2.2443,-2.2061,-2.1615,-2.1103,-2.0795,-2.0628,-2.0512,-2.0887,-2.1126,-2.1008,-2.1547,-2.1916,-2.1857,-2.1894,-2.191,-2.2101,-2.2617,-2.3072,-2.3483,-2.406,-2.4594,-2.4754,-2.4782,-2.4938,-2.4922,-2.4659,-2.4655,-2.4648,-2.4491,-2.4389,-2.4411,-2.4469,-2.4563,-2.4632,-2.4646,-2.4607,-2.443,-2.5026,-2.544,-2.5413,-2.5975,-2.6619,-2.6779,-2.7233,-2.7252,-2.6942,-2.6979,-2.6862,-2.6231,-2.6487,-2.6774,-2.6496,-2.6561,-2.6516,-1.2725,-1.2735,-1.2881,-1.279,-1.2507,-1.2731,-1.2656,-1.2458,-1.312,-1.3434,-1.3386,-1.3437,-1.3548,-1.3663,-1.3667,-1.3581,-1.3514,-1.3581,-1.3615,-1.3628,-1.3615,-1.3782,-1.4032,-1.4157,-1.4415,-1.4794,-1.4966,-1.5133,-1.5343,-1.5491,-1.5859,-1.6437,-1.6677,-1.68,-1.6924,-1.592,-1.5408,-1.5553,-1.6203,-1.658,-1.6702,-1.6886,-1.7046,-1.7198,-1.7371,-1.7574,-1.7733,-1.8569,-1.9182,-1.9435,-2.0222,-2.0771,-2.1084,-2.1108,-2.1238,-2.1464,-2.1263,-2.1127,-2.118,-2.1507,-2.1831,-2.2169,-2.202,-2.1735,-2.137,-2.123,-2.1103,-2.0942,-2.1021,-2.1005,-2.1021,-2.1047,-2.1106,-2.1025,-2.0858,-2.0973,-2.1548,-2.1894,-2.2335,-2.2948,-2.3307,-2.3665,-2.3953,-2.3974,-2.399,-2.3994,-2.4088,-2.384,-2.4013,-2.4388,-2.4648,-2.4495,-2.4446,-2.4245,-2.4032,-2.3876,-2.3996,-2.3983,-2.4363,-2.4755,-2.4737,-2.5222,-2.5634,-2.577,-2.6189,-2.6319,-2.6291,-2.6459,-2.6435,-2.6253,-2.6245,-2.6201,-2.591,-2.5745,-2.5652,-1.2627,-1.2706,-1.2579,-1.2412,-1.227,-1.2037,-1.183,-1.1696,-1.2083,-1.2383,-1.2638,-1.2906,-1.3069,-1.3185,-1.3323,-1.3357,-1.3323,-1.3357,-1.3391,-1.3391,-1.3357,-1.3514,-1.3729,-1.3629,-1.3767,-1.4109,-1.3937,-1.397,-1.4169,-1.4183,-1.444,-1.486,-1.5058,-1.5212,-1.5291,-1.4821,-1.4602,-1.472,-1.5155,-1.5476,-1.5647,-1.5829,-1.5991,-1.6137,-1.6232,-1.6358,-1.6402,-1.6824,-1.7308,-1.7812,-1.8246,-1.8754,-1.9377,-1.9398,-1.9658,-2.0206,-2.0131,-2.0214,-2.0627,-2.111,-2.1462,-2.1657,-2.1945,-2.2049,-2.1844,-2.1678,-2.154,-2.1462,-2.1432,-2.1432,-2.1386,-2.134,-2.1261,-2.1198,-2.1087,-2.1183,-2.1471,-2.1953,-2.2375,-2.2798,-2.3273,-2.3686,-2.3902,-2.3935,-2.3967,-2.4,-2.3935,-2.3836,-2.3836,-2.4176,-2.4379,-2.4137,-2.409,-2.4063,-2.3869,-2.3918,-2.3867,-2.3646,-2.4115,-2.4377,-2.4408,-2.4788,-2.5331,-2.557,-2.5875,-2.5912,-2.5701,-2.5725,-2.5664,-2.5283,-2.547,-2.5457,-2.5297,-2.4951,-2.4851,-1.2234,-1.2349,-1.2134,-1.2021,-1.191,-1.1323,-1.1112,-1.1195,-1.1415,-1.1774,-1.221,-1.2627,-1.2838,-1.2908,-1.3082,-1.3198,-1.3198,-1.3163,-1.3163,-1.3116,-1.3039,-1.3146,-1.3303,-1.2964,-1.2994,-1.331,-1.3011,-1.294,-1.3116,-1.3156,-1.3289,-1.3539,-1.3799,-1.395,-1.401,-1.3916,-1.3944,-1.4093,-1.4135,-1.4399,-1.4935,-1.5075,-1.5197,-1.5317,-1.5208,-1.5148,-1.5128,-1.5165,-1.5436,-1.6,-1.6227,-1.6749,-1.7572,-1.7633,-1.8065,-1.8879,-1.8937,-1.9258,-2.0072,-2.0508,-2.0815,-2.095,-2.1448,-2.1758,-2.1692,-2.1685,-2.172,-2.1807,-2.1811,-2.1811,-2.1751,-2.1738,-2.1691,-2.1615,-2.1584,-2.1601,-2.1634,-2.2139,-2.2531,-2.2659,-2.3185,-2.3612,-2.3756,-2.3832,-2.3796,-2.3748,-2.3787,-2.3708,-2.3708,-2.3708,-2.3614,-2.3552,-2.3652,-2.3667,-2.376,-2.3675,-2.3486,-2.3148,-2.368,-2.387,-2.3836,-2.4445,-2.4961,-2.5102,-2.5404,-2.5357,-2.499,-2.4965,-2.4807,-2.4424,-2.4618,-2.4762,-2.4559,-2.4271,-2.4156,-1.1299,-1.135,-1.1553,-1.1516,-1.1244,-1.0815,-1.0874,-1.1223,-1.1415,-1.1737,-1.215,-1.252,-1.2768,-1.2896,-1.3082,-1.3163,-1.3094,-1.3107,-1.3047,-1.2869,-1.2539,-1.2492,-1.2654,-1.2316,-1.239,-1.2647,-1.258,-1.2609,-1.2801,-1.2925,-1.3221,-1.3657,-1.3835,-1.39,-1.3992,-1.3459,-1.3281,-1.3452,-1.3018,-1.3525,-1.4983,-1.5218,-1.5321,-1.5362,-1.473,-1.4377,-1.43,-1.4245,-1.4258,-1.4377,-1.4994,-1.5699,-1.643,-1.6536,-1.6953,-1.7772,-1.7788,-1.8101,-1.8879,-1.9063,-1.9452,-2.0018,-2.0204,-2.0289,-2.0306,-2.088,-2.1484,-2.1843,-2.1936,-2.1953,-2.1969,-2.1928,-2.1899,-2.1882,-2.1882,-2.1853,-2.1928,-2.2089,-2.2237,-2.2254,-2.266,-2.2747,-2.2873,-2.2946,-2.2904,-2.2914,-2.2869,-2.275,-2.275,-2.2693,-2.2676,-2.2721,-2.2967,-2.3102,-2.2818,-2.257,-2.27,-2.2647,-2.2804,-2.3014,-2.318,-2.3407,-2.3743,-2.4182,-2.4162,-2.432,-2.4308,-2.4203,-2.4317,-2.4263,-2.4184,-2.406,-2.3786,-2.3636,-2.3735,-1.1132,-1.128,-1.1204,-1.1,-1.0716,-1.0537,-1.0697,-1.104,-1.1217,-1.1553,-1.192,-1.2258,-1.2591,-1.2838,-1.2908,-1.2955,-1.292,-1.2885,-1.2667,-1.2307,-1.2143,-1.2004,-1.1864,-1.1412,-1.1358,-1.1612,-1.1362,-1.1361,-1.1554,-1.1822,-1.2105,-1.2432,-1.2535,-1.2613,-1.2712,-1.2463,-1.2429,-1.2638,-1.2468,-1.2796,-1.3533,-1.3812,-1.3963,-1.4001,-1.3665,-1.346,-1.342,-1.3271,-1.3315,-1.3714,-1.3999,-1.4487,-1.5292,-1.534,-1.5544,-1.6072,-1.6614,-1.7248,-1.8037,-1.8562,-1.8981,-1.9333,-1.9748,-1.9985,-2.0002,-2.0314,-2.0779,-2.1461,-2.1922,-2.2192,-2.2203,-2.2203,-2.2248,-2.2287,-2.2315,-2.2343,-2.2436,-2.249,-2.2554,-2.2607,-2.2721,-2.279,-2.2764,-2.2738,-2.2685,-2.2605,-2.2504,-2.2405,-2.2394,-2.2338,-2.2338,-2.2428,-2.2666,-2.2739,-2.2566,-2.2515,-2.2552,-2.2605,-2.2712,-2.2816,-2.297,-2.3193,-2.3471,-2.3589,-2.3852,-2.4036,-2.4168,-2.419,-2.4247,-2.4228,-2.417,-2.3976,-2.375,-2.3638,-2.382,-1.087,-1.1012,-1.0828,-1.0596,-1.039,-1.0418,-1.0562,-1.0867,-1.1057,-1.1356,-1.1748,-1.2004,-1.2246,-1.2508,-1.2662,-1.2697,-1.2603,-1.2448,-1.2104,-1.169,-1.1429,-1.1219,-1.1003,-1.0574,-1.0453,-1.0593,-1.0367,-1.0338,-1.0559,-1.0897,-1.1215,-1.1407,-1.1474,-1.1446,-1.1429,-1.1436,-1.1536,-1.1739,-1.1826,-1.2049,-1.2459,-1.2684,-1.2869,-1.2977,-1.2906,-1.2832,-1.277,-1.2562,-1.2648,-1.3094,-1.3093,-1.3405,-1.4153,-1.4223,-1.4438,-1.4913,-1.5605,-1.6387,-1.7209,-1.7836,-1.8293,-1.8606,-1.9106,-1.9393,-1.9427,-1.9579,-1.9959,-2.05,-2.1458,-2.2078,-2.2377,-2.2405,-2.2487,-2.2605,-2.2659,-2.2764,-2.2868,-2.2944,-2.301,-2.3035,-2.3084,-2.3077,-2.3028,-2.2944,-2.2868,-2.2764,-2.2605,-2.2487,-2.2432,-2.2377,-2.2366,-2.2405,-2.2487,-2.2596,-2.2676,-2.2712,-2.2738,-2.2842,-2.2919,-2.2995,-2.3095,-2.3289,-2.3494,-2.3678,-2.3953,-2.4113,-2.417,-2.4228,-2.4284,-2.4266,-2.419,-2.4074,-2.3855,-2.3789,-2.3941,-1.0106,-1.0195,-1.0283,-1.038,-1.0418,-1.038,-1.0514,-1.0723,-1.0922,-1.118,-1.1511,-1.1712,-1.1811,-1.1884,-1.2246,-1.2354,-1.208,-1.1664,-1.1342,-1.1036,-1.0324,-0.9991,-1.0108,-0.9827,-0.9707,-0.9926,-0.993,-1.0085,-1.0386,-1.067,-1.092,-1.1085,-1.1155,-1.0948,-1.057,-1.0546,-1.0661,-1.0897,-1.1061,-1.1423,-1.2072,-1.2271,-1.2491,-1.2708,-1.2738,-1.2623,-1.2443,-1.2343,-1.2313,-1.2277,-1.2308,-1.258,-1.3188,-1.3355,-1.3776,-1.4601,-1.4929,-1.5468,-1.6304,-1.6631,-1.7042,-1.7704,-1.8014,-1.7963,-1.8166,-1.8663,-1.9053,-1.9063,-2.0484,-2.1504,-2.216,-2.2402,-2.2579,-2.2738,-2.2893,-2.3003,-2.3095,-2.3295,-2.3458,-2.3458,-2.3458,-2.3412,-2.336,-2.3313,-2.3151,-2.3028,-2.2893,-2.2729,-2.2569,-2.246,-2.2432,-2.2487,-2.2596,-2.2738,-2.2868,-2.2919,-2.3003,-2.3077,-2.3119,-2.3217,-2.3336,-2.3453,-2.3589,-2.3765,-2.3994,-2.4151,-2.4209,-2.4247,-2.4266,-2.4247,-2.4247,-2.4113,-2.3937,-2.3896,-2.3961,-1.0137,-1.0244,-1.0283,-1.0312,-1.0322,-1.0351,-1.0418,-1.0514,-1.0715,-1.0943,-1.1191,-1.1426,-1.1463,-1.1319,-1.1457,-1.1542,-1.1472,-1.0952,-1.0502,-1.0133,-0.9602,-0.9282,-0.9198,-0.9205,-0.9324,-0.9461,-0.9567,-0.9712,-0.9944,-1.0148,-1.0273,-1.0385,-1.0508,-1.0295,-0.9922,-0.9965,-1.0194,-1.0453,-1.0677,-1.1172,-1.1963,-1.2159,-1.2135,-1.187,-1.2246,-1.2388,-1.2266,-1.2246,-1.2221,-1.221,-1.221,-1.2303,-1.2561,-1.2718,-1.3178,-1.402,-1.427,-1.4747,-1.5612,-1.6256,-1.6715,-1.7127,-1.7705,-1.7932,-1.7973,-1.8239,-1.8546,-1.9035,-1.9484,-2.0284,-2.1171,-2.2091,-2.2842,-2.307,-2.3223,-2.3348,-2.3458,-2.3571,-2.3611,-2.3585,-2.3522,-2.343,-2.336,-2.3241,-2.3119,-2.2995,-2.2825,-2.2685,-2.2569,-2.2477,-2.2449,-2.2487,-2.2605,-2.279,-2.3052,-2.3119,-2.3168,-2.3217,-2.3241,-2.3241,-2.3295,-2.343,-2.3567,-2.3747,-2.3996,-2.4171,-2.4247,-2.4321,-2.4321,-2.4247,-2.4247,-2.4171,-2.3978,-2.3958,-2.3896,-1.0196,-1.0283,-1.0322,-1.0322,-1.0322,-1.0322,-1.0322,-1.039,-1.0524,-1.0715,-1.0878,-1.1088,-1.105,-1.084,-1.0802,-1.0661,-1.0545,-1.0077,-0.9681,-0.9219,-0.8931,-0.872,-0.8661,-0.8822,-0.9026,-0.9178,-0.9286,-0.9369,-0.949,-0.9633,-0.9738,-0.9803,-0.9944,-0.9651,-0.9189,-0.928,-0.9575,-0.9884,-1.0175,-1.0812,-1.1782,-1.1861,-1.166,-1.1365,-1.1543,-1.1757,-1.1869,-1.192,-1.2024,-1.219,-1.2236,-1.2262,-1.2312,-1.2483,-1.2867,-1.3459,-1.3697,-1.4145,-1.4986,-1.5657,-1.6109,-1.6465,-1.7007,-1.7384,-1.7599,-1.7693,-1.8048,-1.8591,-1.9116,-1.9533,-2.024,-2.1458,-2.2459,-2.2835,-2.3084,-2.3343,-2.3664,-2.3721,-2.3656,-2.3567,-2.3499,-2.3407,-2.3271,-2.3217,-2.3119,-2.2952,-2.2868,-2.2738,-2.2552,-2.2504,-2.2449,-2.2487,-2.2579,-2.2816,-2.3028,-2.3119,-2.3259,-2.3313,-2.3289,-2.3289,-2.3271,-2.3407,-2.3567,-2.375,-2.3937,-2.4134,-2.4284,-2.4394,-2.4358,-2.4284,-2.4247,-2.4172,-2.4057,-2.3978,-2.3917,-1.0273,-1.0322,-1.0322,-1.0322,-1.0322,-1.0322,-1.0322,-1.0322,-1.039,-1.0457,-1.0572,-1.0687,-1.0611,-1.0418,-1.039,-0.9973,-0.9418,-0.9219,-0.8961,-0.8557,-0.8287,-0.8265,-0.8421,-0.8662,-0.885,-0.8983,-0.9038,-0.9054,-0.9003,-0.9193,-0.9313,-0.9408,-0.9552,-0.9194,-0.8178,-0.8641,-0.8892,-0.9292,-0.9706,-1.05,-1.1572,-1.1439,-1.1212,-1.1116,-1.0689,-1.0676,-1.1236,-1.1346,-1.1674,-1.2202,-1.2312,-1.2372,-1.2517,-1.2703,-1.2885,-1.3082,-1.3242,-1.3735,-1.4468,-1.476,-1.5225,-1.5691,-1.5863,-1.6345,-1.6821,-1.7007,-1.7312,-1.7963,-1.8736,-1.9329,-1.9594,-2.0361,-2.1285,-2.206,-2.2386,-2.2779,-2.3322,-2.3617,-2.3592,-2.3348,-2.3191,-2.3341,-2.3212,-2.3052,-2.2961,-2.2943,-2.2919,-2.2816,-2.2605,-2.2515,-2.246,-2.246,-2.2569,-2.2747,-2.2944,-2.3119,-2.3307,-2.3424,-2.3336,-2.3313,-2.3271,-2.336,-2.3476,-2.366,-2.3935,-2.4133,-2.4247,-2.4339,-2.4303,-2.4229,-2.421,-2.4191,-2.4057,-2.3978,-2.3917,-1.0322,-1.0322,-1.0322,-1.0322,-1.0322,-1.0322,-1.0244,-1.0157,-1.0273,-1.0322,-1.0273,-1.0351,-1.0351,-1.0235,-1.0157,-0.9686,-0.8875,-0.8809,-0.8617,-0.8226,-0.794,-0.7976,-0.8262,-0.8488,-0.86,-0.8639,-0.8628,-0.8589,-0.8589,-0.8684,-0.8784,-0.8894,-0.9178,-0.9062,-0.8571,-0.895,-0.9373,-0.9842,-1.0195,-1.0957,-1.1907,-1.1579,-1.1167,-1.0815,-1.0235,-1.0052,-1.0341,-1.1123,-1.1647,-1.1919,-1.2408,-1.2781,-1.2911,-1.307,-1.3209,-1.3329,-1.3412,-1.3561,-1.3986,-1.4501,-1.4899,-1.5228,-1.5697,-1.608,-1.6318,-1.6749,-1.7092,-1.7417,-1.8121,-1.8694,-1.8889,-1.9131,-2.0012,-2.1422,-2.1702,-2.1792,-2.2019,-2.1911,-2.1714,-2.1644,-2.1572,-2.1686,-2.2052,-2.2167,-2.2285,-2.26,-2.2634,-2.2556,-2.248,-2.2375,-2.2432,-2.2405,-2.2552,-2.2694,-2.2919,-2.3095,-2.3265,-2.3378,-2.3336,-2.3289,-2.3265,-2.3271,-2.3389,-2.3616,-2.3894,-2.4094,-2.4191,-2.4247,-2.4247,-2.421,-2.421,-2.4115,-2.4018,-2.3958,-2.3917,-1.0205,-1.0244,-1.0273,-1.0322,-1.0351,-1.04,-1.0312,-1.0196,-1.0235,-1.0157,-1.0088,-1.0059,-1.0019,-0.9971,-0.9932,-0.946,-0.8734,-0.8668,-0.8408,-0.7969,-0.7802,-0.7899,-0.8158,-0.8329,-0.8432,-0.8432,-0.8375,-0.8336,-0.8365,-0.8488,-0.8628,-0.8866,-0.9166,-0.9237,-0.9019,-0.9344,-0.9787,-1.0243,-1.0602,-1.1253,-1.1865,-1.1498,-1.1009,-1.0682,-0.9908,-0.9488,-0.9618,-1.0553,-1.1318,-1.1826,-1.2601,-1.3088,-1.321,-1.3379,-1.3543,-1.3653,-1.3711,-1.3786,-1.3886,-1.4322,-1.4605,-1.4676,-1.5062,-1.5399,-1.5558,-1.6096,-1.632,-1.668,-1.7322,-1.791,-1.81,-1.8439,-1.9121,-2.0148,-2.0635,-2.0867,-2.0924,-2.0855,-2.0735,-2.0737,-2.0663,-2.0783,-2.1029,-2.1201,-2.1282,-2.167,-2.1756,-2.1918,-2.1915,-2.2007,-2.2092,-2.2289,-2.2552,-2.2694,-2.2876,-2.307,-2.3265,-2.3313,-2.3313,-2.3289,-2.3265,-2.3241,-2.3313,-2.3571,-2.3871,-2.4016,-2.4134,-2.4209,-2.4228,-2.421,-2.4191,-2.4114,-2.4036,-2.3998,-2.3937,-1.0019,-1.0118,-1.0244,-1.0312,-1.0418,-1.0505,-1.0505,-1.0351,-1.0196,-1.004,-0.9941,-0.9753,-0.9646,-0.9637,-0.9612,-0.9198,-0.8648,-0.8524,-0.8196,-0.781,-0.7715,-0.7899,-0.8111,-0.8244,-0.8319,-0.8336,-0.8244,-0.8262,-0.8421,-0.8561,-0.8811,-0.922,-0.9504,-0.9617,-0.9598,-0.9765,-1.0153,-1.0562,-1.0862,-1.149,-1.2234,-1.1339,-1.0814,-1.0864,-0.979,-0.9128,-0.9197,-0.9819,-1.0731,-1.1908,-1.2841,-1.3329,-1.3445,-1.3669,-1.3836,-1.397,-1.406,-1.4087,-1.4101,-1.4122,-1.4151,-1.4082,-1.4079,-1.4106,-1.4656,-1.4917,-1.5244,-1.5705,-1.6448,-1.7047,-1.7392,-1.7867,-1.8397,-1.8633,-1.9365,-1.9947,-2.0429,-2.0383,-2.0131,-2.0102,-2.0226,-2.0254,-2.0164,-2.0264,-2.0326,-2.0455,-2.0524,-2.0798,-2.1063,-2.1309,-2.1608,-2.1865,-2.2081,-2.2436,-2.2509,-2.314,-2.3348,-2.3481,-2.3458,-2.3412,-2.3336,-2.3289,-2.333,-2.3589,-2.381,-2.3955,-2.4056,-2.4152,-2.419,-2.4171,-2.4152,-2.4132,-2.4054,-2.3978,-2.3937,-0.9872,-1.001,-1.0205,-1.0351,-1.0418,-1.0544,-1.0505,-1.0322,-1.0127,-0.9883,-0.9637,-0.9417,-0.9208,-0.9062,-0.9102,-0.8775,-0.8322,-0.822,-0.8011,-0.7606,-0.7656,-0.788,-0.8054,-0.8111,-0.8169,-0.8197,-0.8158,-0.8244,-0.8456,-0.8734,-0.9089,-0.9557,-0.9893,-1.017,-1.0427,-1.0644,-1.1013,-1.1343,-1.162,-1.1973,-1.2285,-1.1867,-1.1381,-1.0975,-1.0263,-0.9572,-0.9133,-0.9653,-1.07,-1.2132,-1.3055,-1.3544,-1.3606,-1.3803,-1.398,-1.4068,-1.4163,-1.4221,-1.4168,-1.4082,-1.3963,-1.3865,-1.3746,-1.3708,-1.3768,-1.4246,-1.4568,-1.4959,-1.5541,-1.6267,-1.6885,-1.7193,-1.7497,-1.795,-1.8471,-1.876,-1.8845,-1.8697,-1.8608,-1.8563,-1.8586,-1.8835,-1.9175,-1.9328,-1.9498,-1.9823,-1.9983,-2.0085,-2.0281,-2.0475,-2.0705,-2.0951,-2.124,-2.1767,-2.2258,-2.2971,-2.3427,-2.3602,-2.3664,-2.362,-2.3526,-2.3453,-2.3494,-2.3607,-2.381,-2.3958,-2.4036,-2.4095,-2.4113,-2.4133,-2.4113,-2.4074,-2.3976,-2.3858,-2.3873,-0.9545,-0.9813,-1.0088,-1.0273,-1.0428,-1.0631,-1.0631,-1.0477,-1.0166,-0.977,-0.9387,-0.905,-0.8732,-0.8466,-0.8439,-0.8245,-0.7872,-0.7904,-0.7713,-0.7468,-0.7559,-0.7802,-0.7976,-0.8015,-0.8043,-0.8169,-0.8176,-0.8449,-0.88,-0.9078,-0.9518,-1.0008,-1.0335,-1.0643,-1.0916,-1.1192,-1.1384,-1.1652,-1.1906,-1.2164,-1.2408,-1.2027,-1.1729,-1.1323,-1.0815,-1.0098,-0.9462,-0.9697,-1.0645,-1.1977,-1.2781,-1.3249,-1.3634,-1.3877,-1.4037,-1.4091,-1.4185,-1.4216,-1.4141,-1.4009,-1.3845,-1.3696,-1.3557,-1.3429,-1.3379,-1.3662,-1.3845,-1.3947,-1.457,-1.5201,-1.5809,-1.6333,-1.6982,-1.758,-1.7866,-1.7992,-1.7983,-1.7973,-1.7878,-1.7856,-1.785,-1.7907,-1.838,-1.8414,-1.861,-1.8839,-1.8896,-1.9133,-1.9444,-1.9593,-1.9867,-2.0196,-2.0731,-2.1342,-2.1983,-2.2665,-2.3418,-2.3663,-2.3876,-2.3855,-2.3728,-2.3616,-2.3638,-2.3721,-2.3852,-2.3937,-2.4036,-2.4075,-2.4133,-2.4133,-2.4094,-2.3996,-2.3876,-2.3834,-2.3831,-0.9128,-0.9487,-0.9922,-1.0196,-1.0428,-1.0718,-1.0794,-1.0659,-1.0195,-0.9677,-0.918,-0.867,-0.825,-0.7843,-0.7904,-0.7731,-0.7519,-0.7553,-0.7444,-0.7338,-0.7442,-0.7695,-0.7879,-0.7976,-0.8062,-0.8233,-0.8365,-0.8745,-0.9182,-0.9583,-1.0008,-1.0422,-1.0753,-1.0982,-1.1132,-1.1293,-1.1444,-1.1578,-1.1762,-1.2018,-1.2229,-1.2008,-1.1838,-1.1663,-1.1068,-1.0429,-0.9898,-0.9898,-1.0559,-1.2023,-1.2277,-1.2826,-1.3484,-1.3833,-1.3991,-1.4042,-1.4101,-1.4101,-1.4009,-1.3815,-1.363,-1.3443,-1.3295,-1.3191,-1.3064,-1.3039,-1.3018,-1.3071,-1.3568,-1.4021,-1.4549,-1.5591,-1.6553,-1.71,-1.7415,-1.7641,-1.7726,-1.7749,-1.7789,-1.7789,-1.7772,-1.7749,-1.7726,-1.7687,-1.7731,-1.8138,-1.8185,-1.84,-1.8691,-1.8892,-1.927,-1.9728,-2.0354,-2.1053,-2.1683,-2.2332,-2.3115,-2.3715,-2.4001,-2.4075,-2.3919,-2.3834,-2.3813,-2.3834,-2.3917,-2.3996,-2.4036,-2.4075,-2.4113,-2.4056,-2.3958,-2.3896,-2.3795,-2.3813,-2.381,-0.8716,-0.9297,-0.9704,-1.0049,-1.0322,-1.0592,-1.0572,-1.0407,-0.9865,-0.9403,-0.8968,-0.846,-0.7896,-0.744,-0.7465,-0.7317,-0.7023,-0.7072,-0.7067,-0.7182,-0.7353,-0.7588,-0.7831,-0.7976,-0.8176,-0.8365,-0.8606,-0.9035,-0.953,-0.9932,-1.031,-1.0753,-1.0873,-1.1038,-1.1155,-1.1178,-1.1293,-1.1466,-1.163,-1.1854,-1.2128,-1.2258,-1.2116,-1.1772,-1.1027,-1.0511,-1.0256,-1.0176,-1.0637,-1.1363,-1.1976,-1.2536,-1.334,-1.37,-1.3836,-1.388,-1.3874,-1.3827,-1.3696,-1.3475,-1.3261,-1.3105,-1.2891,-1.2703,-1.2636,-1.2542,-1.2522,-1.2577,-1.276,-1.3155,-1.3758,-1.5079,-1.5868,-1.6248,-1.6791,-1.7239,-1.7377,-1.7612,-1.7726,-1.7726,-1.7704,-1.7664,-1.7572,-1.7612,-1.7589,-1.7549,-1.7629,-1.7788,-1.802,-1.829,-1.8702,-1.9213,-1.9714,-2.0454,-2.1601,-2.2355,-2.3315,-2.3874,-2.4118,-2.4266,-2.4135,-2.4019,-2.3979,-2.3978,-2.3996,-2.4036,-2.4056,-2.4056,-2.4094,-2.3958,-2.3837,-2.3771,-2.3725,-2.3747,-2.3786,-0.8316,-0.8862,-0.9368,-0.9614,-0.9763,-1.0083,-1.0086,-0.9814,-0.9453,-0.9044,-0.8636,-0.8176,-0.7646,-0.719,-0.715,-0.6975,-0.6724,-0.6665,-0.6755,-0.6936,-0.7235,-0.7569,-0.7879,-0.8195,-0.8477,-0.8606,-0.8937,-0.9357,-0.9803,-1.0173,-1.0496,-1.0825,-1.0873,-1.0873,-1.092,-1.092,-1.0968,-1.1085,-1.1339,-1.1593,-1.1839,-1.2113,-1.2202,-1.176,-1.1109,-1.0612,-1.0498,-1.0145,-1.0425,-1.1002,-1.1478,-1.2154,-1.3059,-1.3445,-1.3575,-1.3589,-1.3523,-1.3409,-1.3244,-1.302,-1.2804,-1.2681,-1.2475,-1.2392,-1.2359,-1.2298,-1.2298,-1.2338,-1.2421,-1.264,-1.3296,-1.3978,-1.4782,-1.5614,-1.6136,-1.6662,-1.7069,-1.7425,-1.7612,-1.7549,-1.7549,-1.7479,-1.7432,-1.7472,-1.7441,-1.7386,-1.7526,-1.7669,-1.7805,-1.8058,-1.8287,-1.87,-1.9098,-1.9915,-2.1272,-2.2441,-2.3619,-2.4081,-2.4302,-2.4393,-2.4356,-2.4248,-2.4192,-2.4135,-2.4095,-2.4075,-2.4095,-2.4075,-2.3976,-2.3855,-2.3732,-2.366,-2.3634,-2.3634,-2.3656,-0.7803,-0.8326,-0.8862,-0.8985,-0.8968,-0.9387,-0.9391,-0.9131,-0.8926,-0.8598,-0.823,-0.7899,-0.7471,-0.7088,-0.6962,-0.6742,-0.6521,-0.6429,-0.6482,-0.6717,-0.7205,-0.7598,-0.7966,-0.8467,-0.8828,-0.8866,-0.9235,-0.9672,-1.0021,-1.0311,-1.051,-1.0705,-1.0718,-1.0656,-1.0559,-1.0559,-1.0608,-1.0729,-1.1015,-1.1279,-1.149,-1.1747,-1.1846,-1.1737,-1.1313,-1.0932,-1.0757,-1.0451,-1.0338,-1.0902,-1.1032,-1.1676,-1.2475,-1.3034,-1.3175,-1.3142,-1.3021,-1.2862,-1.2713,-1.2501,-1.23,-1.2205,-1.2107,-1.2045,-1.2091,-1.2112,-1.2096,-1.2133,-1.2215,-1.2374,-1.2937,-1.3372,-1.4054,-1.4962,-1.5535,-1.6128,-1.6733,-1.7142,-1.7264,-1.7401,-1.7384,-1.7337,-1.7305,-1.7321,-1.7281,-1.7273,-1.7401,-1.7572,-1.771,-1.7932,-1.8208,-1.8506,-1.8929,-1.9579,-2.0898,-2.2025,-2.3269,-2.3892,-2.4199,-2.4379,-2.4433,-2.4478,-2.4392,-2.4229,-2.4191,-2.4153,-2.4037,-2.3958,-2.3837,-2.371,-2.3598,-2.3504,-2.3499,-2.3517,-2.3539,-0.7051,-0.7648,-0.7871,-0.8067,-0.829,-0.8537,-0.8621,-0.8586,-0.8267,-0.8075,-0.7953,-0.7685,-0.7396,-0.7125,-0.7017,-0.6755,-0.6429,-0.6284,-0.6368,-0.6626,-0.7127,-0.7569,-0.8119,-0.8701,-0.9124,-0.9405,-0.9605,-0.988,-1.0161,-1.0374,-1.0436,-1.0485,-1.0424,-1.0311,-1.0248,-1.0235,-1.0323,-1.0485,-1.0753,-1.1038,-1.1293,-1.1437,-1.1512,-1.1534,-1.122,-1.1125,-1.1138,-1.1036,-1.105,-1.1226,-1.1285,-1.1505,-1.1858,-1.2285,-1.2466,-1.2524,-1.2427,-1.2289,-1.2102,-1.193,-1.1796,-1.1747,-1.1703,-1.1688,-1.1725,-1.1768,-1.1848,-1.1912,-1.197,-1.2088,-1.2121,-1.2665,-1.339,-1.4197,-1.4962,-1.5675,-1.6334,-1.6738,-1.6993,-1.7208,-1.7216,-1.7232,-1.7224,-1.724,-1.7257,-1.7306,-1.7425,-1.7595,-1.7794,-1.8018,-1.831,-1.8584,-1.8861,-1.9627,-2.0537,-2.1581,-2.2635,-2.331,-2.3742,-2.4163,-2.4309,-2.4579,-2.4578,-2.4374,-2.4229,-2.4114,-2.3998,-2.3878,-2.371,-2.3594,-2.3458,-2.3336,-2.3383,-2.3407,-2.343,-0.6705,-0.7153,-0.7313,-0.7381,-0.7432,-0.773,-0.7783,-0.7619,-0.7557,-0.7528,-0.7534,-0.7506,-0.7411,-0.7253,-0.7125,-0.6755,-0.6329,-0.6129,-0.6245,-0.6557,-0.7118,-0.7618,-0.8166,-0.8822,-0.9244,-0.9485,-0.9684,-0.9918,-1.0148,-1.0161,-1.0211,-1.0211,-1.0085,-0.9995,-0.9931,-0.9944,-1.0097,-1.0261,-1.0523,-1.0791,-1.1029,-1.1103,-1.108,-1.0987,-1.0963,-1.093,-1.0944,-1.092,-1.093,-1.1001,-1.1034,-1.108,-1.1242,-1.1408,-1.1665,-1.1879,-1.1852,-1.1717,-1.1557,-1.1415,-1.1347,-1.1347,-1.1362,-1.1407,-1.146,-1.1564,-1.163,-1.1762,-1.1826,-1.1869,-1.1915,-1.2244,-1.2886,-1.3782,-1.4449,-1.5232,-1.6082,-1.6517,-1.6815,-1.7059,-1.715,-1.7175,-1.7183,-1.7183,-1.7273,-1.7338,-1.7425,-1.7635,-1.7839,-1.8142,-1.8428,-1.8806,-1.9143,-1.9772,-2.0433,-2.1142,-2.2,-2.2633,-2.3295,-2.3714,-2.4138,-2.44,-2.4482,-2.4426,-2.4284,-2.4152,-2.3996,-2.3855,-2.366,-2.3476,-2.3336,-2.3265,-2.3289,-2.3313,-2.336,-0.6279,-0.656,-0.6709,-0.6662,-0.6573,-0.6918,-0.6929,-0.6724,-0.6872,-0.6993,-0.7086,-0.7264,-0.7342,-0.7253,-0.7005,-0.6612,-0.6145,-0.6029,-0.6153,-0.6535,-0.7127,-0.7647,-0.8174,-0.8756,-0.9271,-0.9473,-0.9617,-0.9828,-0.9982,-0.9982,-0.9944,-0.9957,-0.9828,-0.9762,-0.9736,-0.988,-0.9944,-1.0135,-1.0311,-1.0523,-1.0608,-1.0632,-1.0559,-1.0386,-1.0436,-1.046,-1.0472,-1.046,-1.051,-1.057,-1.0594,-1.0594,-1.0643,-1.0619,-1.0821,-1.1219,-1.1242,-1.115,-1.1048,-1.0968,-1.0907,-1.0944,-1.0991,-1.1108,-1.1247,-1.1384,-1.1564,-1.1681,-1.1768,-1.1826,-1.1848,-1.1884,-1.2622,-1.3585,-1.4179,-1.4696,-1.5884,-1.6554,-1.6831,-1.7,-1.7092,-1.7166,-1.7232,-1.7265,-1.7321,-1.7417,-1.7502,-1.771,-1.7932,-1.8246,-1.86,-1.9057,-1.9472,-2.0011,-2.0485,-2.0744,-2.1418,-2.1966,-2.2697,-2.3296,-2.3771,-2.4227,-2.4295,-2.4407,-2.4303,-2.4152,-2.3996,-2.3831,-2.3634,-2.343,-2.3265,-2.3193,-2.3265,-2.3313,-2.336,-0.5511,-0.5666,-0.5702,-0.5695,-0.58,-0.6027,-0.6129,-0.616,-0.6337,-0.646,-0.6643,-0.6897,-0.7047,-0.6966,-0.6612,-0.6245,-0.6005,-0.5943,-0.6098,-0.6521,-0.7077,-0.7627,-0.8166,-0.8756,-0.9139,-0.9354,-0.9511,-0.9684,-0.9828,-0.9854,-0.9802,-0.9762,-0.9802,-0.9776,-0.9762,-0.9957,-1.0135,-1.0274,-1.0349,-1.0324,-1.0185,-1.0097,-1.0033,-0.997,-0.9919,-0.9983,-1.0021,-1.0046,-1.0059,-1.0097,-1.0097,-1.0148,-1.0235,-1.026,-1.0273,-1.0386,-1.0485,-1.0583,-1.0548,-1.0523,-1.051,-1.0559,-1.0656,-1.0777,-1.0991,-1.1307,-1.1541,-1.1703,-1.1826,-1.1891,-1.1906,-1.1979,-1.2735,-1.3534,-1.4258,-1.5046,-1.6066,-1.6686,-1.6917,-1.7093,-1.7256,-1.7281,-1.7345,-1.7377,-1.7408,-1.7502,-1.7602,-1.7805,-1.8065,-1.841,-1.8753,-1.9206,-1.9497,-2.0006,-2.0225,-2.0534,-2.0809,-2.1289,-2.1997,-2.2729,-2.3285,-2.375,-2.4313,-2.4352,-2.4248,-2.4152,-2.3996,-2.381,-2.3611,-2.3453,-2.3336,-2.3271,-2.3271,-2.3336,-2.3383,-0.4908,-0.524,-0.5333,-0.5404,-0.546,-0.5686,-0.5819,-0.5881,-0.6029,-0.6214,-0.6399,-0.6665,-0.6747,-0.6634,-0.6329,-0.6091,-0.5881,-0.5888,-0.6075,-0.646,-0.6987,-0.7491,-0.7984,-0.8523,-0.8965,-0.9232,-0.9393,-0.9591,-0.9736,-0.9762,-0.9684,-0.9736,-0.9802,-0.988,-0.988,-1.011,-1.0211,-1.0274,-1.0211,-0.997,-0.9664,-0.9414,-0.9315,-0.9425,-0.9264,-0.9377,-0.9548,-0.9633,-0.9672,-0.975,-0.975,-0.9828,-0.9919,-0.9944,-0.9931,-0.997,-1.0008,-1.011,-1.0211,-1.0236,-1.0236,-1.0274,-1.0399,-1.051,-1.0815,-1.1192,-1.1489,-1.163,-1.1805,-1.1891,-1.2076,-1.2377,-1.3107,-1.385,-1.4519,-1.5405,-1.6233,-1.6648,-1.7052,-1.7224,-1.7392,-1.7479,-1.7542,-1.7589,-1.7618,-1.7704,-1.7822,-1.8018,-1.8313,-1.8679,-1.8998,-1.935,-1.9592,-1.9845,-1.9957,-2.0123,-2.0167,-2.0611,-2.118,-2.1928,-2.2647,-2.3203,-2.3803,-2.4242,-2.4248,-2.4134,-2.4016,-2.3834,-2.3664,-2.3549,-2.3435,-2.3435,-2.3458,-2.3412,-2.3453,-0.4421,-0.4802,-0.5074,-0.5214,-0.5252,-0.5474,-0.5614,-0.5606,-0.5756,-0.5967,-0.6183,-0.6421,-0.6482,-0.6329,-0.6145,-0.5928,-0.5787,-0.5826,-0.6067,-0.6452,-0.6927,-0.7462,-0.7956,-0.8439,-0.8866,-0.919,-0.9432,-0.9632,-0.9736,-0.9776,-0.9828,-0.9828,-1.0046,-1.0085,-1.0186,-1.0311,-1.0424,-1.0211,-0.9995,-0.9574,-0.9068,-0.8696,-0.8572,-0.8555,-0.8583,-0.8661,-0.8951,-0.9158,-0.9247,-0.9301,-0.9339,-0.9408,-0.9567,-0.9619,-0.9646,-0.9672,-0.9698,-0.9724,-0.9867,-0.9944,-1.0034,-1.0123,-1.0249,-1.0424,-1.0801,-1.1155,-1.1429,-1.1586,-1.1826,-1.197,-1.2192,-1.2722,-1.3519,-1.4257,-1.5009,-1.5858,-1.6556,-1.697,-1.7272,-1.7462,-1.7641,-1.7772,-1.7833,-1.7839,-1.7883,-1.7922,-1.8053,-1.8225,-1.8547,-1.8913,-1.918,-1.9485,-1.9641,-1.9795,-1.9825,-1.9854,-1.9858,-2.0005,-2.0559,-2.1089,-2.1807,-2.2663,-2.3423,-2.3766,-2.4081,-2.419,-2.4094,-2.3917,-2.3735,-2.3689,-2.3642,-2.366,-2.3656,-2.3594,-2.3567,-0.4064,-0.4209,-0.4704,-0.4953,-0.5023,-0.5246,-0.5347,-0.5379,-0.541,-0.5631,-0.5912,-0.616,-0.6206,-0.606,-0.5905,-0.5787,-0.5701,-0.5787,-0.606,-0.6482,-0.6987,-0.7481,-0.7974,-0.8456,-0.8926,-0.9328,-0.9579,-0.9776,-0.9944,-1.0122,-1.0122,-1.0122,-1.0336,-1.0411,-1.046,-1.051,-1.0386,-1.0046,-0.9664,-0.9048,-0.847,-0.8021,-0.7752,-0.7589,-0.7837,-0.8108,-0.805,-0.8431,-0.8701,-0.8728,-0.8811,-0.9003,-0.922,-0.9301,-0.9354,-0.9408,-0.9396,-0.9422,-0.9475,-0.9686,-0.9828,-0.9905,-1.011,-1.0424,-1.0815,-1.1132,-1.1384,-1.1593,-1.1869,-1.2091,-1.2422,-1.3005,-1.3952,-1.4674,-1.547,-1.6354,-1.6971,-1.7254,-1.7532,-1.7726,-1.7856,-1.7939,-1.8031,-1.8035,-1.81,-1.8155,-1.831,-1.8489,-1.8753,-1.9082,-1.9326,-1.955,-1.9686,-1.9782,-1.9776,-1.977,-1.9738,-1.9832,-2.0223,-2.0546,-2.0971,-2.1874,-2.2915,-2.3436,-2.375,-2.3988,-2.4189,-2.4016,-2.3917,-2.3876,-2.3855,-2.381,-2.3789,-2.375,-2.3703,-0.3599,-0.3918,-0.4377,-0.473,-0.5023,-0.5214,-0.5309,-0.5309,-0.5379,-0.5512,-0.5732,-0.5905,-0.5943,-0.5819,-0.5686,-0.5624,-0.5599,-0.5718,-0.606,-0.6452,-0.6927,-0.7462,-0.7974,-0.8557,-0.9062,-0.9475,-0.975,-1.0034,-1.0298,-1.0472,-1.0643,-1.0705,-1.0705,-1.0681,-1.0705,-1.0496,-1.0198,-0.9691,-0.9086,-0.8384,-0.7853,-0.7085,-0.6743,-0.6848,-0.6965,-0.7335,-0.7546,-0.7945,-0.8189,-0.8347,-0.8449,-0.8673,-0.8866,-0.8937,-0.9031,-0.9139,-0.9074,-0.9035,-0.9101,-0.9381,-0.9684,-0.9905,-1.0135,-1.0449,-1.0815,-1.1132,-1.1407,-1.1652,-1.1912,-1.2153,-1.2432,-1.351,-1.4648,-1.5222,-1.5983,-1.6911,-1.7342,-1.7597,-1.7732,-1.7861,-1.7944,-1.8005,-1.8095,-1.8184,-1.8284,-1.8383,-1.8565,-1.8753,-1.9016,-1.9196,-1.9383,-1.9518,-1.9641,-1.9699,-1.9712,-1.9668,-1.9609,-1.9736,-1.9884,-2.0133,-2.0458,-2.1385,-2.233,-2.2903,-2.3548,-2.397,-2.417,-2.4113,-2.4074,-2.4016,-2.3976,-2.3935,-2.3896,-2.3896,-2.3834,-0.3167,-0.3621,-0.4113,-0.457,-0.496,-0.5182,-0.5277,-0.5309,-0.5347,-0.5449,-0.5614,-0.5662,-0.5662,-0.5606,-0.5561,-0.5561,-0.5631,-0.5811,-0.6153,-0.6573,-0.7086,-0.7608,-0.8202,-0.8778,-0.9357,-0.9725,-1.0072,-1.0386,-1.0667,-1.0825,-1.0968,-1.1062,-1.1052,-1.0958,-1.0753,-1.0335,-0.9906,-0.9305,-0.8538,-0.7726,-0.7168,-0.6395,-0.5931,-0.616,-0.6348,-0.6645,-0.7024,-0.7413,-0.7724,-0.7879,-0.8042,-0.8269,-0.8428,-0.854,-0.8634,-0.8701,-0.8701,-0.8595,-0.8745,-0.9139,-0.9579,-0.9905,-1.0199,-1.0485,-1.0825,-1.1224,-1.1482,-1.1762,-1.2012,-1.2277,-1.2578,-1.3925,-1.4973,-1.5554,-1.6812,-1.7681,-1.772,-1.7893,-1.7932,-1.8009,-1.807,-1.8151,-1.8243,-1.8348,-1.8505,-1.8619,-1.8788,-1.8948,-1.9117,-1.9277,-1.9365,-1.9485,-1.9569,-1.9582,-1.9601,-1.9541,-1.9499,-1.9508,-1.9631,-1.9726,-2.0175,-2.1117,-2.1818,-2.2371,-2.3088,-2.3915,-2.419,-2.417,-2.4151,-2.4113,-2.4074,-2.4054,-2.3996,-2.3996,-2.3935,-0.2805,-0.3355,-0.3876,-0.4398,-0.4884,-0.5112,-0.5239,-0.5277,-0.5309,-0.5347,-0.5386,-0.5435,-0.5435,-0.541,-0.5397,-0.5463,-0.5636,-0.5875,-0.6267,-0.6768,-0.7375,-0.7993,-0.8651,-0.9224,-0.9751,-1.021,-1.0521,-1.0777,-1.1062,-1.1146,-1.1262,-1.1247,-1.1169,-1.1015,-1.091,-1.0248,-0.9621,-0.897,-0.8082,-0.7163,-0.645,-0.5768,-0.5437,-0.5492,-0.5811,-0.6157,-0.6475,-0.6957,-0.7237,-0.7344,-0.7549,-0.7724,-0.7869,-0.8003,-0.8088,-0.8107,-0.8195,-0.8233,-0.8301,-0.8933,-0.9461,-0.9931,-1.0211,-1.0594,-1.1048,-1.1392,-1.1645,-1.1955,-1.2221,-1.2514,-1.3242,-1.4258,-1.516,-1.6189,-1.7442,-1.8149,-1.817,-1.8149,-1.8205,-1.8159,-1.8218,-1.8319,-1.8406,-1.8526,-1.8732,-1.8878,-1.902,-1.9137,-1.9251,-1.9295,-1.9338,-1.9398,-1.9471,-1.9456,-1.946,-1.9431,-1.9402,-1.9372,-1.9464,-1.9611,-2.011,-2.1048,-2.1619,-2.2023,-2.296,-2.4061,-2.419,-2.419,-2.4209,-2.4209,-2.419,-2.4151,-2.4113,-2.4074,-2.4014,-0.2344,-0.294,-0.3495,-0.4016,-0.4608,-0.5017,-0.5239,-0.5277,-0.5246,-0.5176,-0.5087,-0.5112,-0.5081,-0.5112,-0.5168,-0.5256,-0.5404,-0.6045,-0.6463,-0.6811,-0.7566,-0.8364,-0.9027,-0.9661,-1.016,-1.0545,-1.0849,-1.1062,-1.127,-1.1376,-1.1436,-1.1399,-1.0893,-1.0629,-1.0347,-0.9816,-0.912,-0.8459,-0.7447,-0.6459,-0.592,-0.5199,-0.4772,-0.4872,-0.5339,-0.5692,-0.5976,-0.6466,-0.673,-0.6876,-0.7107,-0.7246,-0.7432,-0.7598,-0.7695,-0.7772,-0.7908,-0.8119,-0.8404,-0.8921,-0.9354,-0.9841,-1.0298,-1.0702,-1.1196,-1.1608,-1.1891,-1.2216,-1.2562,-1.2996,-1.3859,-1.49,-1.5843,-1.6883,-1.7889,-1.8404,-1.8582,-1.8506,-1.8448,-1.8345,-1.836,-1.8322,-1.8385,-1.8524,-1.8714,-1.8861,-1.8984,-1.912,-1.9235,-1.9235,-1.9264,-1.9314,-1.936,-1.9326,-1.9326,-1.9326,-1.9357,-1.9372,-1.9485,-1.9654,-2.028,-2.1068,-2.1822,-2.2446,-2.3345,-2.419,-2.419,-2.4228,-2.4247,-2.4284,-2.4247,-2.4209,-2.4133,-2.4094,-2.4054,-0.1976,-0.2643,-0.3167,-0.3756,-0.4344,-0.489,-0.5176,-0.5239,-0.5144,-0.4979,-0.482,-0.4762,-0.4762,-0.4795,-0.4828,-0.505,-0.5161,-0.5693,-0.6513,-0.6881,-0.7738,-0.8608,-0.9393,-1.0072,-1.0545,-1.0897,-1.1178,-1.1421,-1.1497,-1.1564,-1.1392,-1.0973,-1.0356,-0.9818,-0.9456,-0.8923,-0.8441,-0.7733,-0.6729,-0.5865,-0.5299,-0.4775,-0.4396,-0.4639,-0.4945,-0.5239,-0.5609,-0.5959,-0.6268,-0.6452,-0.6626,-0.679,-0.6978,-0.7166,-0.7324,-0.7432,-0.7724,-0.8052,-0.8533,-0.8926,-0.9437,-1.0072,-1.0434,-1.0893,-1.14,-1.179,-1.2385,-1.2751,-1.3061,-1.3828,-1.4714,-1.5726,-1.6623,-1.7648,-1.8164,-1.8681,-1.8788,-1.8696,-1.8526,-1.8426,-1.8284,-1.8304,-1.8325,-1.8522,-1.8675,-1.8788,-1.8896,-1.9035,-1.9153,-1.9119,-1.9086,-1.9137,-1.9186,-1.9152,-1.92,-1.9264,-1.9295,-1.9372,-1.954,-1.9745,-2.0388,-2.116,-2.2006,-2.2868,-2.3602,-2.4154,-2.421,-2.4247,-2.4303,-2.4321,-2.4303,-2.4247,-2.4152,-2.4133,-2.4113,-0.1713,-0.2405,-0.2962,-0.3584,-0.421,-0.466,-0.4953,-0.5137,-0.4947,-0.4718,-0.4541,-0.4338,-0.4262,-0.4417,-0.4454,-0.4684,-0.5138,-0.5412,-0.6266,-0.7122,-0.7933,-0.8878,-0.9768,-1.0472,-1.0897,-1.1239,-1.1481,-1.1556,-1.1674,-1.1437,-1.1052,-1.0403,-0.9652,-0.8905,-0.8331,-0.7808,-0.7482,-0.685,-0.6124,-0.5358,-0.4832,-0.4287,-0.4197,-0.4362,-0.4579,-0.4851,-0.5208,-0.5498,-0.5696,-0.5882,-0.6029,-0.6252,-0.6452,-0.669,-0.6855,-0.7145,-0.7588,-0.8127,-0.869,-0.9116,-0.9649,-1.0285,-1.0702,-1.1196,-1.1726,-1.2182,-1.2853,-1.3537,-1.4043,-1.4885,-1.5744,-1.6571,-1.7399,-1.8037,-1.8536,-1.877,-1.8825,-1.8733,-1.8565,-1.8408,-1.8208,-1.8146,-1.8163,-1.8325,-1.8426,-1.8524,-1.8585,-1.8679,-1.8789,-1.8861,-1.8843,-1.8878,-1.8914,-1.8966,-1.9035,-1.9184,-1.9314,-1.9405,-1.9703,-1.9982,-2.0625,-2.1399,-2.2337,-2.3162,-2.373,-2.4099,-2.4173,-2.4284,-2.4358,-2.4358,-2.4375,-2.4284,-2.421,-2.4209,-2.419,-0.141,-0.2178,-0.2735,-0.3397,-0.4053,-0.4307,-0.4526,-0.4654,-0.4387,-0.4024,-0.3583,-0.3409,-0.3435,-0.3498,-0.3789,-0.4139,-0.4694,-0.5399,-0.6353,-0.725,-0.8167,-0.9329,-1.0237,-1.0873,-1.1224,-1.1421,-1.1556,-1.1564,-1.1474,-1.1219,-1.0465,-0.969,-0.8763,-0.7853,-0.7057,-0.643,-0.6257,-0.5982,-0.5341,-0.4882,-0.4419,-0.3917,-0.3942,-0.3991,-0.4092,-0.4391,-0.4697,-0.5003,-0.5244,-0.5508,-0.5665,-0.5882,-0.6114,-0.639,-0.6686,-0.7412,-0.7879,-0.8375,-0.8976,-0.9422,-0.9932,-1.0532,-1.0987,-1.1423,-1.2003,-1.2635,-1.3352,-1.4002,-1.4809,-1.5601,-1.6429,-1.7259,-1.7966,-1.8481,-1.8803,-1.8789,-1.8789,-1.8585,-1.8393,-1.8149,-1.7958,-1.7849,-1.7888,-1.7975,-1.8082,-1.8184,-1.8287,-1.8333,-1.8432,-1.8528,-1.8622,-1.8659,-1.8733,-1.877,-1.9001,-1.9168,-1.9314,-1.9479,-1.9829,-2.0347,-2.116,-2.1951,-2.2777,-2.3379,-2.3855,-2.4079,-2.4192,-2.4266,-2.4339,-2.4428,-2.4426,-2.4338,-2.4266,-2.4266,-2.4284,-0.1176,-0.1978,-0.2603,-0.3229,-0.3746,-0.3756,-0.368,-0.3546,-0.3487,-0.3194,-0.2743,-0.2583,-0.2644,-0.2941,-0.333,-0.3762,-0.4344,-0.5069,-0.6112,-0.7415,-0.8316,-0.9439,-1.0383,-1.1076,-1.1307,-1.1429,-1.1429,-1.1362,-1.1103,-1.0416,-0.9665,-0.8682,-0.7748,-0.6775,-0.593,-0.5273,-0.4897,-0.4765,-0.455,-0.4316,-0.3974,-0.3612,-0.3542,-0.3542,-0.3644,-0.3839,-0.417,-0.4487,-0.477,-0.5074,-0.5226,-0.5547,-0.5928,-0.6382,-0.6889,-0.7579,-0.8127,-0.869,-0.9289,-0.9816,-1.0298,-1.0763,-1.1242,-1.1666,-1.2085,-1.2643,-1.343,-1.4174,-1.5218,-1.6199,-1.7064,-1.7878,-1.8393,-1.8927,-1.8877,-1.8807,-1.8605,-1.8375,-1.8115,-1.7837,-1.7653,-1.7532,-1.7549,-1.7664,-1.7755,-1.7844,-1.7949,-1.8018,-1.8146,-1.8284,-1.8388,-1.845,-1.8565,-1.8641,-1.8896,-1.9152,-1.9314,-1.9623,-2.0151,-2.0747,-2.1619,-2.2319,-2.2976,-2.3447,-2.3883,-2.3998,-2.4019,-2.4173,-2.4284,-2.4355,-2.4442,-2.4425,-2.4374,-2.4356,-2.4338,-0.1007,-0.1911,-0.2537,-0.3053,-0.3382,-0.3023,-0.2504,-0.1911,-0.2171,-0.2208,-0.1852,-0.1786,-0.1962,-0.2329,-0.2836,-0.3542,-0.4164,-0.4879,-0.6042,-0.7485,-0.8181,-0.9266,-1.0386,-1.1005,-1.1132,-1.1224,-1.108,-1.0733,-1.0368,-0.955,-0.8497,-0.7549,-0.6639,-0.567,-0.4733,-0.4215,-0.3802,-0.3496,-0.3602,-0.3578,-0.344,-0.3232,-0.3114,-0.3154,-0.3183,-0.3255,-0.359,-0.3874,-0.4156,-0.4538,-0.489,-0.5277,-0.5928,-0.6535,-0.7157,-0.7734,-0.8315,-0.8926,-0.9555,-1.011,-1.0545,-1.1015,-1.1497,-1.179,-1.2169,-1.2819,-1.3639,-1.445,-1.5444,-1.6445,-1.7347,-1.8003,-1.8592,-1.8717,-1.8607,-1.8417,-1.8121,-1.7808,-1.7409,-1.7182,-1.7069,-1.696,-1.7027,-1.7109,-1.7256,-1.7415,-1.7612,-1.7687,-1.7839,-1.7988,-1.818,-1.829,-1.8448,-1.8603,-1.8878,-1.9134,-1.9329,-1.9696,-2.0317,-2.0915,-2.1587,-2.2355,-2.3098,-2.3433,-2.3707,-2.3753,-2.3798,-2.3959,-2.4097,-2.4229,-2.4338,-2.4478,-2.4478,-2.4461,-2.4478,-0.0704,-0.1673,-0.2504,-0.2794,-0.2548,-0.2012,-0.1281,-0.0469,-0.013,-0.0363,-0.0717,-0.0817,-0.1122,-0.1711,-0.2439,-0.3227,-0.4106,-0.4811,-0.6055,-0.7208,-0.8088,-0.8917,-1.0304,-1.0566,-1.0753,-1.0736,-1.043,-0.9742,-0.8922,-0.8087,-0.7224,-0.6177,-0.5318,-0.4474,-0.3663,-0.3192,-0.2834,-0.2471,-0.2511,-0.2769,-0.2804,-0.2638,-0.25,-0.259,-0.2665,-0.2835,-0.3172,-0.3544,-0.3965,-0.4415,-0.4762,-0.5365,-0.6153,-0.6717,-0.7275,-0.7859,-0.8501,-0.9131,-0.9699,-1.0286,-1.0729,-1.1071,-1.146,-1.179,-1.2287,-1.3107,-1.389,-1.4689,-1.5584,-1.6604,-1.7416,-1.8055,-1.8532,-1.8436,-1.8261,-1.7954,-1.7631,-1.7149,-1.6693,-1.6544,-1.6443,-1.6459,-1.6485,-1.6617,-1.6732,-1.6952,-1.7191,-1.7384,-1.7549,-1.7704,-1.8027,-1.818,-1.8406,-1.8603,-1.8878,-1.9084,-1.9266,-1.9858,-2.0551,-2.1091,-2.1643,-2.231,-2.2977,-2.3245,-2.344,-2.3356,-2.3388,-2.3671,-2.384,-2.3963,-2.4211,-2.4338,-2.4526,-2.4559,-2.4626,-0.0322,-0.1319,-0.2119,-0.2167,-0.1598,-0.0853,-0.0053,0.0716,0.1266,0.1178,0.0565,0.0094,-0.0532,-0.1301,-0.2168,-0.3138,-0.4081,-0.4726,-0.5786,-0.6906,-0.769,-0.837,-0.9198,-0.9789,-0.9682,-0.9576,-0.8966,-0.8192,-0.7222,-0.6516,-0.5672,-0.4764,-0.3977,-0.3395,-0.2692,-0.2371,-0.2042,-0.1707,-0.1642,-0.1735,-0.2028,-0.1954,-0.2088,-0.2204,-0.2392,-0.2557,-0.2892,-0.3308,-0.3805,-0.4377,-0.4852,-0.5515,-0.6229,-0.6837,-0.7393,-0.8003,-0.8651,-0.9304,-0.9867,-1.0398,-1.0873,-1.1201,-1.1564,-1.1897,-1.2149,-1.2864,-1.3192,-1.4029,-1.5299,-1.6334,-1.6827,-1.7427,-1.7937,-1.8056,-1.7659,-1.7292,-1.6838,-1.6365,-1.6087,-1.5978,-1.5924,-1.5966,-1.6065,-1.6301,-1.6448,-1.6659,-1.6866,-1.7158,-1.7305,-1.7549,-1.7833,-1.8091,-1.8325,-1.8545,-1.8807,-1.9,-1.9153,-1.9873,-2.0691,-2.1352,-2.1929,-2.2368,-2.2833,-2.2747,-2.2698,-2.2702,-2.2823,-2.3159,-2.3414,-2.353,-2.3864,-2.4192,-2.4389,-2.4572,-2.4654,-0.003,-0.0998,-0.1508,-0.1284,-0.0554,0.039,0.1168,0.1818,0.2292,0.2276,0.173,0.0711,-0.022,-0.1206,-0.2207,-0.3195,-0.4032,-0.4686,-0.5623,-0.6326,-0.6778,-0.7517,-0.8031,-0.8355,-0.8216,-0.7758,-0.7131,-0.6268,-0.5342,-0.4781,-0.4151,-0.3317,-0.2808,-0.2374,-0.193,-0.1567,-0.1268,-0.1076,-0.093,-0.083,-0.0995,-0.1288,-0.1654,-0.1937,-0.2205,-0.2395,-0.2763,-0.3213,-0.3677,-0.4307,-0.4973,-0.5758,-0.6413,-0.6987,-0.753,-0.8145,-0.8871,-0.9463,-1.0021,-1.0632,-1.0991,-1.1339,-1.1696,-1.1976,-1.2205,-1.2487,-1.2829,-1.3714,-1.4997,-1.5812,-1.6321,-1.6935,-1.7446,-1.7541,-1.7093,-1.6548,-1.6056,-1.5593,-1.5463,-1.5359,-1.5418,-1.5448,-1.5682,-1.5911,-1.6179,-1.6355,-1.6623,-1.6898,-1.7199,-1.7519,-1.7833,-1.8053,-1.8301,-1.8526,-1.8789,-1.8913,-1.9053,-1.9829,-2.0644,-2.1453,-2.2103,-2.2215,-2.2159,-2.1826,-2.1814,-2.1919,-2.2263,-2.2652,-2.2873,-2.3034,-2.3441,-2.3785,-2.4099,-2.43,-2.4572,0.0028,-0.0767,-0.0735,-0.0164,0.0697,0.1536,0.2297,0.2831,0.2961,0.2789,0.2108,0.1139,0.0044,-0.1163,-0.222,-0.3204,-0.4114,-0.4695,-0.535,-0.6097,-0.6211,-0.6727,-0.7002,-0.6907,-0.6565,-0.5938,-0.5192,-0.4402,-0.3731,-0.3216,-0.2683,-0.2053,-0.1739,-0.1372,-0.1001,-0.0732,-0.0554,-0.0378,-0.0339,-0.0245,-0.0485,-0.08,-0.1152,-0.1488,-0.1891,-0.2251,-0.2674,-0.321,-0.3667,-0.4248,-0.5036,-0.5913,-0.6626,-0.7205,-0.7744,-0.8361,-0.9089,-0.9647,-1.0185,-1.0763,-1.1132,-1.1399,-1.1718,-1.1955,-1.2185,-1.2419,-1.2938,-1.372,-1.4761,-1.5369,-1.5991,-1.6859,-1.7406,-1.6937,-1.6465,-1.5792,-1.5226,-1.4954,-1.4783,-1.4766,-1.4811,-1.4966,-1.5195,-1.5492,-1.5854,-1.6108,-1.6463,-1.6753,-1.7142,-1.7496,-1.7811,-1.8053,-1.8281,-1.8522,-1.8769,-1.8807,-1.9057,-1.9813,-2.0439,-2.0993,-2.1419,-2.1703,-2.1572,-2.1122,-2.1128,-2.1265,-2.163,-2.2074,-2.2296,-2.2487,-2.2954,-2.3351,-2.3663,-2.3966,-2.4192]}]]